[[{"header":{"parameterUnit":"m.s-1","parameterCategory":1,"la1":31.0,"la2":29.5877,"lo1":-88.7671,"lo2":-86.6584,"dy":0.0162,"dx":0.0185,"nx":115,"ny":88,"refTime":"2023-09-10T18:00:00:Z","depth":0,"parameterNumber":2,"parameterNumberName":"U-component_of_WINDS"},"data":[0.0,0.0,0.0,0.0,0.0,0.0,0.0,0.0,0.0,0.0,0.0,0.0,0.0,0.0,0.0,0.0,0.0,0.0,0.0,0.0,0.0,0.0,0.0,0.0,0.0,0.0,0.0,0.0,0.0,0.0,0.0,0.0,0.0,0.0,0.0,0.0,0.0,0.0,0.0,0.0,0.0,0.0,0.0,0.0,0.0,0.0,0.0,0.0,0.0,0.0,0.0,0.0,0.0,0.0,0.0,0.0,0.0,0.0,0.0,0.0,0.0,0.0,0.0,0.0,0.0,0.0,0.0,0.0,0.0,0.0,0.0,0.0,0.0,0.0,0.0,0.0,0.0,0.0,0.0,0.0,0.0,0.0,0.0,0.0,0.0,0.0,0.0,0.0,0.0,0.0,0.0,0.0,0.0,0.0,0.0,0.0,0.0,0.0,0.0,0.0,0.0,0.0,0.0,0.0,0.0,0.0,0.0,0.0,0.0,0.0,0.0,0.0,0.0,0.0,0.0,0.0,0.0,0.0,0.0,0.0,0.0,0.0,0.0,0.0,0.0,0.0,0.0,0.0,0.0,0.0,0.0,0.0,0.0,0.0,0.0,0.0,0.0,0.0,0.0,0.0,0.0,0.0,0.0,0.0,0.0,0.0,0.0,0.0,0.0,0.0,0.0,0.0,0.0,0.0,0.0,0.0,0.0,0.0,0.0,0.0,0.0,0.0,0.0,0.0,0.0,0.0,0.0,0.0,0.0,0.0,0.0,0.0,0.0,0.0,0.0,0.0,0.0,0.0,0.0,0.0,0.0,0.0,0.0,0.0,0.0,0.0,0.0,0.0,0.0,0.0,0.0,0.0,0.0,0.0,0.0,0.0,0.0,0.0,0.0,0.0,0.0,0.0,0.0,0.0,0.0,0.0,0.0,0.0,0.0,0.0,0.0,0.0,0.0,0.0,0.0,0.0,0.0,0.0,0.0,0.0,0.0,0.0,0.0,0.0,0.0,0.0,0.0,0.0,0.0,0.0,0.0,0.0,0.0,0.0,0.0,0.0,0.0,0.0,0.0,0.0,0.0,0.0,0.0,0.0,0.0,0.0,0.0,0.0,0.0,0.0,0.0,0.0,0.0,0.0,0.0,0.0,0.0,0.0,0.0,0.0,0.0,0.0,0.0,0.0,0.0,0.0,0.0,0.0,0.0,0.0,0.0,0.0,0.0,0.0,0.0,0.0,0.0,0.0,0.0,0.0,0.0,0.0,0.0,0.0,0.0,0.0,0.0,0.0,0.0,0.0,0.0,0.0,0.0,0.0,0.0,0.0,0.0,0.0,0.0,0.0,0.0,0.0,0.0,0.0,0.0,0.0,0.0,0.0,0.0,0.0,0.0,0.0,0.0,0.0,0.0,0.0,0.0,0.0,0.0,0.0,0.0,0.0,0.0,0.0,0.0,0.0,0.0,0.0,0.0,0.0,0.0,0.0,0.0,0.0,0.0,0.0,0.0,0.0,0.0,0.0,0.0,0.0,0.0,0.0,0.0,0.0,0.0,0.0,0.0,0.0,0.0,0.0,0.0,0.0,0.0,0.0,0.0,0.0,0.0,0.0,0.0,0.0,0.0,0.0,0.0,0.0,0.0,0.0,0.0,0.0,0.0,0.0,0.0,0.0,0.0,0.0,0.0,0.0,0.0,0.0,0.0,0.0,0.0,0.0,0.0,0.0,0.0,0.0,0.0,0.0,0.0,0.0,0.0,0.0,0.0,0.0,0.0,0.0,0.0,0.0,0.0,0.0,0.0,0.0,0.0,0.0,0.0,0.0,0.0,0.0,0.0,0.0,0.0,0.0,0.0,0.0,0.0,0.0,0.0,0.0,0.0,0.0,0.0,0.0,0.0,0.0,0.0,0.0,0.0,0.0,0.0,0.0,0.0,0.0,0.0,0.0,0.0,0.0,0.0,0.0,0.0,0.0,0.0,0.0,0.0,0.0,0.0,0.0,0.0,0.0,0.0,0.0,0.0,0.0,0.0,0.0,0.0,0.0,0.0,0.0,0.0,0.0,0.0,0.0,0.0,0.0,0.0,0.0,0.0,0.0,0.0,0.0,0.0,0.0,0.0,0.0,0.0,0.0,0.0,0.0,0.0,0.0,0.0,0.0,0.0,0.0,0.0,0.0,0.0,0.0,0.0,0.0,0.0,0.0,0.0,0.0,0.0,0.0,0.0,0.0,0.0,0.0,0.0,0.0,0.0,0.0,0.0,0.0,0.0,0.0,0.0,0.0,0.0,0.0,0.0,0.0,0.0,0.0,0.0,0.0,0.0,0.0,0.0,0.0,0.0,0.0,0.0,0.0,0.0,0.0,0.0,0.0,0.0,0.0,0.0,0.0,0.0,0.0,0.0,0.0,0.0,0.0,0.0,0.0,0.0,0.0,0.0,0.0,0.0,0.0,0.0,0.0,0.0,0.0,0.0,0.0,0.0,0.0,0.0,0.0,0.0,0.0,0.0,0.0,0.0,0.0,0.0,0.0,0.0,0.0,0.0,0.0,0.0,0.0,0.0,0.0,0.0,0.0,0.0,0.0,0.0,0.0,0.0,0.0,0.0,0.0,0.0,0.0,0.0,0.0,0.0,0.0,0.0,0.0,0.0,0.0,0.0,0.0,0.0,0.0,0.0,0.0,0.0,0.0,0.0,0.0,0.0,0.0,0.0,0.0,0.0,0.0,0.0,0.0,0.0,0.0,0.0,0.0,0.0,0.0,0.0,0.0,0.0,0.0,0.0,0.0,0.0,0.0,0.0,0.0,0.0,0.0,0.0,0.0,0.0,0.0,0.0,0.0,0.0,0.0,0.0,0.0,0.0,0.0,0.0,0.0,0.0,0.0,0.0,0.0,0.0,0.0,0.0,0.0,0.0,0.0,0.0,0.0,0.0,0.0,0.0,0.0,0.0,0.0,0.0,0.0,0.0,0.0,0.0,0.0,0.0,0.0,0.0,0.0,0.0,0.0,0.0,0.0,0.0,0.0,0.0,0.0,0.0,0.0,0.0,0.0,0.0,0.0,0.0,0.0,0.0,0.0,0.0,0.0,0.0,0.0,0.0,0.0,0.0,0.0,0.0,0.0,0.0,0.0,0.0,0.0,0.0,0.0,0.0,0.0,0.0,0.0,0.0,0.0,0.0,0.0,0.0,0.0,0.0,0.0,0.0,0.0,0.0,0.0,0.0,0.0,0.0,0.0,0.0,0.0,0.0,0.0,0.0,0.0,0.0,0.0,0.0,0.0,0.0,0.0,0.0,0.0,0.0,0.0,0.0,0.0,0.0,0.0,0.0,0.0,0.0,0.0,0.0,0.0,0.0,0.0,0.0,0.0,0.0,0.0,0.0,0.0,0.0,0.0,0.0,0.0,0.0,0.0,0.0,0.0,0.0,0.0,0.0,0.0,0.0,0.0,0.0,0.0,0.0,0.0,0.0,0.0,0.0,0.0,0.0,0.0,0.0,0.0,0.0,0.0,0.0,0.0,0.0,0.0,0.0,0.0,0.0,0.0,0.0,0.0,0.0,0.0,0.0,0.0,0.0,0.0,0.0,0.0,0.0,0.0,0.0,0.0,0.0,0.0,0.0,0.0,0.0,0.0,0.0,0.0,0.0,0.0,0.0,0.0,0.0,0.0,0.0,0.0,0.0,0.0,0.0,0.0,0.0,0.0,0.0,0.0,0.0,0.0,0.0,0.0,0.0,0.0,0.0,0.0,0.0,0.0,0.0,0.0,0.0,0.0,0.0,0.0,0.0,0.0,0.0,0.0,0.0,0.0,0.0,0.0,0.0,0.0,0.0,0.0,0.0,0.0,0.0,0.0,0.0,0.0,0.0,0.0,0.0,0.0,0.0,0.0,0.0,0.0,0.0,0.0,0.0,0.0,0.0,0.0,0.0,0.0,0.0,0.0,0.0,0.0,0.0,0.0,0.0,0.0,0.0,0.0,0.0,0.0,0.0,0.0,0.0,0.0,0.0,0.0,0.0,0.0,0.0,0.0,0.0,0.0,0.0,0.0,0.0,0.0,0.0,0.0,0.0,0.0,0.0,0.0,0.0,0.0,0.0,0.0,0.0,0.0,0.0,0.0,0.0,0.0,0.0,0.0,0.0,0.0,0.0,0.0,0.0,0.0,0.0,0.0,0.0,0.0,0.0,0.0,0.0,0.0,0.0,0.0,0.0,0.0,0.0,0.0,0.0,0.0,0.0,0.0,0.0,0.0,0.0,0.0,0.0,0.0,0.0,0.0,0.0,0.0,1.5195,0.0,0.0,0.0,0.0,0.0,0.0,0.0,0.0,0.0,0.0,0.0,0.0,0.0,0.0,0.0,0.0,0.0,0.0,0.0,0.0,0.0,0.0,0.0,0.0,0.0,0.0,0.0,0.0,0.0,0.0,0.0,0.0,0.0,0.0,0.0,0.0,0.0,0.0,0.0,0.0,0.0,0.0,0.0,0.0,0.0,0.0,0.0,0.0,0.0,0.0,0.0,0.0,0.0,0.0,0.0,0.0,0.0,0.0,0.0,0.0,0.0,0.0,0.0,0.0,0.0,0.0,0.0,0.0,0.0,0.0,0.0,0.0,0.0,0.0,0.0,0.0,0.0,0.0,0.0,0.0,0.0,0.0,0.0,0.0,0.0,0.0,0.0,0.0,0.0,0.0,0.0,0.0,0.0,0.0,0.0,0.0,0.0,0.0,0.0,0.0,0.0,0.0,0.0,0.0,0.0,0.0,0.0,0.0,0.0,0.0,1.5195,1.5195,1.5195,1.5195,1.5195,0.0,0.0,0.0,0.0,0.0,0.0,0.0,0.0,0.0,0.0,0.0,0.0,0.0,0.0,0.0,0.0,0.0,0.0,0.0,0.0,0.0,0.0,0.0,0.0,0.0,0.0,0.0,0.0,0.0,0.0,0.0,0.0,0.0,0.0,0.0,0.0,0.0,0.0,0.0,0.0,0.0,0.0,0.0,0.0,0.0,0.0,0.0,0.0,0.0,0.0,0.0,0.0,0.0,0.0,0.0,0.0,0.0,0.0,0.0,0.0,0.0,0.0,0.0,0.0,0.0,0.0,0.0,0.0,0.0,0.0,0.0,0.0,0.0,0.0,0.0,0.0,0.0,0.0,0.0,0.0,0.0,0.0,0.0,0.0,0.0,0.0,0.0,0.0,0.0,0.0,0.0,0.0,0.0,0.0,0.0,0.0,0.0,0.0,0.0,0.0,0.0,0.0,0.0,0.0,0.0,0.0,0.0,0.0,0.0,0.0,0.0,0.0,1.5195,1.5195,1.5189,0.0,0.0,0.0,0.0,0.0,0.0,0.0,0.0,0.0,0.0,0.0,0.0,0.0,0.0,0.0,0.0,0.0,0.0,0.0,0.0,0.0,0.0,0.0,0.0,0.0,0.0,0.0,0.0,0.0,0.0,0.0,0.0,0.0,0.0,0.0,0.0,0.0,0.0,0.0,0.0,0.0,0.0,0.0,0.0,0.0,0.0,0.0,0.0,0.0,0.0,0.0,0.0,0.0,0.0,0.0,0.0,0.0,0.0,0.0,0.0,0.0,0.0,0.0,0.0,0.0,0.0,0.0,0.0,0.0,0.0,0.0,0.0,0.0,0.0,0.0,0.0,0.0,0.0,0.0,0.0,0.0,0.0,0.0,0.0,0.0,0.0,0.0,0.0,0.0,0.0,0.0,0.0,0.0,0.0,0.0,0.0,0.0,0.0,0.0,0.0,0.0,0.0,0.0,0.0,0.0,0.0,0.0,0.0,0.0,0.0,1.5195,1.5195,1.5195,0.0,1.5195,0.0,0.0,0.0,0.0,0.0,0.0,0.0,0.0,0.0,0.0,0.0,0.0,0.0,0.0,0.0,0.0,0.0,0.0,0.0,0.0,0.0,0.0,0.0,0.0,0.0,0.0,0.0,0.0,0.0,0.0,0.0,0.0,0.0,0.0,0.0,0.0,0.0,0.0,0.0,0.0,0.0,0.0,0.0,0.0,0.0,0.0,0.0,0.0,0.0,0.0,0.0,0.0,0.0,0.0,0.0,0.0,0.0,0.0,0.0,0.0,0.0,0.0,0.0,0.0,0.0,0.0,0.0,0.0,0.0,0.0,0.0,0.0,0.0,0.0,0.0,0.0,0.0,0.0,0.0,0.0,0.0,0.0,0.0,0.0,0.0,0.0,0.0,0.0,0.0,0.0,0.0,0.0,0.0,0.0,0.0,0.0,0.0,0.0,0.0,0.0,0.0,0.0,0.0,0.0,0.0,0.0,0.0,0.0,0.0,0.0,1.5195,1.5195,1.5195,1.5195,0.0,0.0,0.0,0.0,0.0,0.0,0.0,0.0,0.0,0.0,0.0,0.0,0.0,0.0,0.0,0.0,0.0,0.0,0.0,0.0,0.0,0.0,0.0,0.0,0.0,0.0,0.0,0.0,0.0,0.0,0.0,0.0,0.0,0.0,0.0,0.0,0.0,0.0,0.0,0.0,0.0,0.0,0.0,0.0,0.0,0.0,0.0,0.0,0.0,0.0,0.0,0.0,0.0,0.0,0.0,0.0,0.0,0.0,0.0,0.0,0.0,0.0,0.0,0.0,0.0,0.0,0.0,0.0,0.0,0.0,0.0,0.0,0.0,0.0,0.0,0.0,0.0,0.0,0.0,0.0,0.0,0.0,0.0,0.0,0.0,0.0,0.0,0.0,0.0,0.0,0.0,0.0,0.0,0.0,0.0,0.0,0.0,0.0,0.0,0.0,0.0,0.0,0.0,0.0,0.0,0.0,0.0,0.0,0.0,0.0,1.558,1.5657,1.5868,1.5676,1.5561,1.5561,0.0,0.0,0.0,0.0,0.0,0.0,0.0,0.0,0.0,0.0,0.0,0.0,0.0,0.0,0.0,0.0,0.0,0.0,0.0,0.0,0.0,0.0,0.0,0.0,0.0,0.0,0.0,0.0,0.0,0.0,0.0,0.0,0.0,0.0,0.0,0.0,0.0,0.0,0.0,0.0,0.0,0.0,0.0,0.0,0.0,0.0,0.0,0.0,0.0,0.0,0.0,0.0,0.0,0.0,0.0,0.0,0.0,0.0,0.0,0.0,0.0,0.0,0.0,0.0,0.0,0.0,0.0,0.0,0.0,0.0,0.0,0.0,0.0,0.0,0.0,0.0,0.0,0.0,0.0,0.0,0.0,0.0,0.0,0.0,0.0,0.0,0.0,0.0,0.0,0.0,0.0,0.0,0.0,0.0,0.0,0.0,0.0,0.0,0.0,0.0,0.0,0.0,0.0,0.0,0.0,0.0,0.0,0.0,1.6407,1.6426,1.6811,1.751,1.683,1.6445,0.0,0.0,0.0,0.0,0.0,0.0,0.0,0.0,0.0,0.0,0.0,0.0,0.0,0.0,0.0,0.0,0.0,0.0,0.0,0.0,0.0,0.0,0.0,0.0,0.0,0.0,0.0,0.0,0.0,0.0,0.0,0.0,0.0,0.0,0.0,0.0,0.0,0.0,0.0,0.0,0.0,0.0,0.0,0.0,0.0,0.0,0.0,0.0,0.0,0.0,0.0,0.0,0.0,0.0,0.0,0.0,0.0,0.0,0.0,0.0,0.0,0.0,0.0,0.0,0.0,0.0,0.0,0.0,0.0,0.0,0.0,0.0,0.0,0.0,0.0,0.0,0.0,0.0,0.0,0.0,0.0,0.0,0.0,0.0,0.0,0.0,0.0,0.0,0.0,0.0,0.0,0.0,0.0,0.0,0.0,0.0,0.0,0.0,0.0,0.0,0.0,0.0,0.0,0.0,0.0,0.0,0.0,0.0,0.0,1.6522,1.7003,1.7407,1.7664,1.7426,1.7023,0.0,0.0,0.0,0.0,0.0,0.0,0.0,0.0,0.0,0.0,0.0,0.0,0.0,0.0,0.0,0.0,0.0,0.0,0.0,0.0,0.0,0.0,0.0,0.0,0.0,0.0,0.0,0.0,0.0,0.0,0.0,0.0,0.0,0.0,0.0,0.0,0.0,0.0,0.0,0.0,0.0,0.0,0.0,0.0,0.0,0.0,0.0,0.0,0.0,0.0,0.0,0.0,0.0,0.0,0.0,0.0,0.0,0.0,0.0,0.0,0.0,0.0,0.0,0.0,0.0,0.0,0.0,0.0,0.0,0.0,0.0,0.0,0.0,0.0,0.0,0.0,0.0,0.0,0.0,0.0,0.0,0.0,0.0,0.0,0.0,0.0,0.0,0.0,0.0,0.0,0.0,0.0,0.0,0.0,0.0,0.0,0.0,0.0,0.0,0.0,0.0,0.0,0.0,0.0,0.0,0.0,0.0,0.0,0.0,1.735,0.0,1.8544,1.8537,1.8261,1.7856,0.0,0.0,0.0,0.0,0.0,0.0,0.0,0.0,0.0,0.0,0.0,0.0,0.0,0.0,0.0,0.0,0.0,0.0,0.0,0.0,0.0,0.0,0.0,0.0,0.0,0.0,0.0,0.0,0.0,0.0,0.0,0.0,0.0,0.0,0.0,0.0,0.0,0.0,0.0,0.0,0.0,0.0,0.0,0.0,0.0,0.0,0.0,0.0,0.0,0.0,0.0,0.0,0.0,0.0,0.0,0.0,0.0,0.0,0.0,0.0,0.0,0.0,0.0,0.0,0.0,0.0,0.0,0.0,0.0,0.0,0.0,0.0,0.0,0.0,0.0,0.0,0.0,0.0,0.0,0.0,0.0,0.0,0.0,0.0,0.0,0.0,0.0,0.0,0.0,0.0,0.0,0.0,0.0,0.0,0.0,0.0,0.0,0.0,0.0,0.0,0.0,0.0,0.0,0.0,0.0,0.0,0.0,0.0,1.7433,1.9066,1.9908,2.0306,2.0284,1.9495,1.9025,0.0,0.0,0.0,0.0,0.0,0.0,0.0,0.0,0.0,0.0,0.0,0.0,0.0,0.0,0.0,0.0,0.0,0.0,0.0,0.0,0.0,0.0,0.0,0.0,0.0,0.0,0.0,0.0,0.0,0.0,0.0,0.0,0.0,0.0,0.0,0.0,0.0,0.0,0.0,0.0,0.0,0.0,0.0,0.0,0.0,0.0,0.0,0.0,0.0,0.0,0.0,0.0,0.0,0.0,0.0,0.0,0.0,0.0,0.0,0.0,0.0,0.0,0.0,0.0,0.0,0.0,0.0,0.0,0.0,0.0,0.0,0.0,0.0,0.0,0.0,0.0,0.0,0.0,0.0,0.0,0.0,0.0,0.0,0.0,0.0,0.0,0.0,0.0,0.0,0.0,0.0,0.0,0.0,0.0,0.0,0.0,0.0,0.0,0.0,0.0,0.0,0.0,0.0,0.0,0.0,0.0,0.0,0.0,0.0,2.0823,2.1647,2.2091,2.2064,2.1239,2.0511,0.0,0.0,0.0,0.0,0.0,0.0,0.0,0.0,0.0,0.0,0.0,0.0,0.0,0.0,0.0,0.0,0.0,0.0,0.0,0.0,0.0,0.0,0.0,0.0,0.0,0.0,0.0,0.0,0.0,0.0,0.0,0.0,0.0,0.0,0.0,0.0,0.0,0.0,0.0,0.0,0.0,0.0,0.0,0.0,0.0,0.0,0.0,0.0,0.0,0.0,0.0,0.0,0.0,0.0,0.0,0.0,0.0,0.0,0.0,0.0,0.0,0.0,0.0,0.0,0.0,0.0,0.0,0.0,0.0,0.0,0.0,0.0,0.0,0.0,0.0,0.0,0.0,0.0,0.0,0.0,0.0,0.0,0.0,0.0,0.0,0.0,0.0,0.0,0.0,0.0,0.0,0.0,0.0,0.0,0.0,0.0,0.0,0.0,0.0,0.0,0.0,0.0,0.0,0.0,0.0,0.0,0.0,0.0,0.0,2.2611,2.2811,2.2926,2.2886,2.2349,2.1678,2.08,0.0,0.0,0.0,0.0,0.0,0.0,0.0,0.0,0.0,0.0,0.0,0.0,0.0,0.0,0.0,0.0,0.0,0.0,0.0,0.0,0.0,0.0,0.0,0.0,0.0,0.0,0.0,0.0,0.0,0.0,0.0,0.0,0.0,0.0,0.0,0.0,0.0,0.0,0.0,0.0,0.0,0.0,0.0,0.0,0.0,0.0,0.0,0.0,0.0,0.0,0.0,0.0,0.0,0.0,0.0,0.0,0.0,0.0,0.0,0.0,0.0,0.0,0.0,0.0,0.0,0.0,0.0,0.0,0.0,0.0,0.0,0.0,0.0,0.0,0.0,0.0,0.0,0.0,0.0,0.0,0.0,0.0,0.0,0.0,0.0,0.0,0.0,0.0,0.0,0.0,0.0,0.0,0.0,0.0,0.0,0.0,0.0,0.0,0.0,0.0,0.0,0.0,0.0,0.0,0.0,0.0,0.0,0.0,2.4346,2.3581,2.3139,2.3107,2.3023,2.2557,0.0,0.0,0.0,0.0,0.0,0.0,0.0,0.0,0.0,0.0,0.0,0.0,0.0,0.0,0.0,0.0,0.0,0.0,0.0,0.0,0.0,0.0,0.0,0.0,0.0,0.0,0.0,0.0,0.0,0.0,0.0,0.0,0.0,0.0,0.0,0.0,0.0,0.0,0.0,0.0,0.0,0.0,0.0,0.0,0.0,0.0,0.0,0.0,0.0,0.0,0.0,0.0,0.0,0.0,0.0,0.0,0.0,0.0,0.0,0.0,0.0,0.0,0.0,0.0,0.0,0.0,0.0,0.0,0.0,0.0,0.0,0.0,0.0,0.0,0.0,0.0,0.0,0.0,0.0,0.0,0.0,0.0,0.0,0.0,0.0,0.0,0.0,0.0,0.0,0.0,0.0,0.0,0.0,0.0,0.0,0.0,0.0,0.0,0.0,0.0,0.0,0.0,0.0,0.0,0.0,0.0,0.0,0.0,0.0,2.5211,2.5094,2.4973,2.4878,2.427,2.3502,0.0,0.0,0.0,0.0,0.0,0.0,0.0,0.0,0.0,0.0,0.0,0.0,0.0,0.0,0.0,0.0,0.0,0.0,0.0,0.0,0.0,0.0,0.0,0.0,0.0,0.0,0.0,0.0,0.0,0.0,0.0,0.0,0.0,0.0,0.0,0.0,0.0,0.0,0.0,0.0,0.0,0.0,0.0,0.0,0.0,0.0,0.0,0.0,0.0,0.0,0.0,0.0,0.0,0.0,0.0,0.0,0.0,0.0,0.0,0.0,0.0,0.0,0.0,0.0,0.0,0.0,0.0,0.0,0.0,0.0,0.0,0.0,0.0,0.0,0.0,0.0,0.0,0.0,0.0,0.0,0.0,0.0,0.0,0.0,0.0,0.0,0.0,0.0,0.0,0.0,0.0,0.0,0.0,0.0,0.0,0.0,0.0,0.0,0.0,0.0,0.0,0.0,0.0,0.0,0.0,0.0,0.0,0.0,2.4982,2.6151,2.6236,2.6225,2.6155,2.5288,2.4418,0.0,0.0,0.0,0.0,0.0,0.0,0.0,0.0,0.0,0.0,0.0,0.0,0.0,0.0,0.0,0.0,0.0,0.0,0.0,0.0,0.0,0.0,0.0,0.0,0.0,0.0,0.0,0.0,0.0,0.0,0.0,0.0,0.0,0.0,0.0,0.0,0.0,0.0,0.0,0.0,0.0,0.0,0.0,0.0,0.0,0.0,0.0,0.0,0.0,0.0,0.0,0.0,0.0,0.0,0.0,0.0,0.0,0.0,0.0,0.0,0.0,0.0,0.0,0.0,0.0,0.0,0.0,0.0,0.0,0.0,0.0,0.0,0.0,0.0,0.0,0.0,0.0,0.0,0.0,0.0,0.0,0.0,0.0,0.0,0.0,0.0,0.0,0.0,0.0,0.0,0.0,0.0,0.0,0.0,0.0,0.0,0.0,0.0,0.0,0.0,0.0,0.0,0.0,0.0,0.0,0.0,0.0,0.0,2.5441,2.6958,2.7095,2.7111,2.7023,2.6203,2.5288,0.0,0.0,0.0,0.0,0.0,0.0,0.0,0.0,0.0,0.0,0.0,0.0,0.0,0.0,0.0,0.0,0.0,0.0,0.0,0.0,0.0,0.0,0.0,0.0,0.0,0.0,0.0,0.0,0.0,0.0,0.0,0.0,0.0,0.0,0.0,0.0,0.0,0.0,0.0,0.0,0.0,0.0,0.0,0.0,0.0,0.0,0.0,0.0,0.0,0.0,0.0,0.0,0.0,0.0,0.0,0.0,0.0,0.0,0.0,0.0,0.0,0.0,0.0,0.0,0.0,0.0,0.0,0.0,0.0,0.0,0.0,0.0,0.0,0.0,0.0,0.0,0.0,0.0,0.0,0.0,0.0,0.0,0.0,0.0,0.0,0.0,0.0,0.0,0.0,0.0,0.0,0.0,0.0,0.0,0.0,0.0,0.0,0.0,0.0,0.0,0.0,0.0,0.0,0.0,0.0,0.0,0.0,0.0,2.6629,2.6983,2.7666,2.8015,2.7989,2.7117,2.5905,0.0,0.0,0.0,0.0,0.0,0.0,0.0,0.0,0.0,0.0,0.0,0.0,0.0,0.0,0.0,0.0,0.0,0.0,0.0,0.0,0.0,0.0,0.0,0.0,0.0,0.0,0.0,0.0,0.0,0.0,0.0,0.0,0.0,0.0,0.0,0.0,0.0,0.0,0.0,0.0,0.0,0.0,0.0,0.0,0.0,0.0,0.0,0.0,1.7922,0.0,0.0,0.0,0.0,0.0,0.0,0.0,0.0,0.0,0.0,0.0,0.0,0.0,0.0,0.0,0.0,0.0,0.0,0.0,0.0,0.0,0.0,0.0,0.0,0.0,0.0,0.0,0.0,0.0,0.0,0.0,0.0,0.0,0.0,0.0,0.0,0.0,0.0,0.0,0.0,0.0,0.0,0.0,0.0,0.0,0.0,0.0,0.0,0.0,0.0,0.0,0.0,0.0,0.0,0.0,0.0,0.0,0.0,0.0,2.7379,2.8201,2.8669,2.8903,2.8881,2.8017,2.6932,0.0,0.0,0.0,0.0,0.0,0.0,0.0,0.0,0.0,0.0,0.0,0.0,0.0,0.0,0.0,0.0,0.0,0.0,0.0,0.0,0.0,0.0,0.0,0.0,0.0,0.0,0.0,0.0,0.0,0.0,0.0,0.0,0.0,0.0,0.0,0.0,0.0,0.0,0.0,0.0,0.0,0.0,0.0,0.0,0.0,0.0,0.0,0.0,0.0,0.0,0.0,0.0,0.0,0.0,0.0,0.0,0.0,0.0,0.0,0.0,0.0,0.0,0.0,0.0,0.0,0.0,0.0,0.0,0.0,0.0,0.0,0.0,0.0,0.0,0.0,0.0,0.0,0.0,0.0,0.0,0.0,0.0,0.0,0.0,0.0,0.0,0.0,0.0,0.0,0.0,0.0,0.0,0.0,0.0,0.0,0.0,0.0,0.0,0.0,0.0,0.0,0.0,0.0,0.0,0.0,0.0,0.0,2.6886,2.8103,2.9513,2.9728,2.9786,2.9786,2.8967,2.8062,2.7108,0.0,0.0,0.0,0.0,0.0,0.0,0.0,0.0,0.0,0.0,0.0,0.0,0.0,0.0,0.0,0.0,0.0,0.0,0.0,0.0,0.0,0.0,0.0,0.0,0.0,0.0,0.0,0.0,0.0,0.0,0.0,0.0,0.0,0.0,0.0,0.0,0.0,0.0,1.707,1.8514,0.0,0.0,0.0,0.0,0.0,0.0,0.0,0.0,2.1297,0.0,0.0,0.0,0.0,0.0,0.0,0.0,0.0,0.0,0.0,0.0,0.0,0.0,0.0,0.0,0.0,0.0,0.0,0.0,0.0,0.0,0.0,0.0,0.0,0.0,0.0,0.0,0.0,0.0,0.0,0.0,0.0,0.0,0.0,0.0,0.0,0.0,0.0,0.0,0.0,0.0,0.0,0.0,0.0,0.0,0.0,0.0,0.0,0.0,0.0,0.0,0.0,0.0,0.0,0.0,0.0,2.6769,2.8357,2.9318,2.9611,3.0313,3.0684,3.0665,2.9843,2.8964,2.8006,0.0,0.0,0.0,0.0,0.0,0.0,0.0,0.0,0.0,0.0,0.0,0.0,0.0,0.0,0.0,0.0,0.0,0.0,0.0,0.0,0.0,0.0,0.0,0.0,0.0,0.0,0.0,0.0,0.0,0.0,0.0,0.0,0.0,0.0,0.0,0.0,0.0,0.0,0.0,2.0238,2.1279,0.0,0.0,0.0,0.0,0.0,0.0,0.0,0.0,2.1494,0.0,0.0,0.0,0.0,0.0,0.0,0.0,0.0,0.0,0.0,0.0,0.0,0.0,0.0,0.0,0.0,0.0,0.0,0.0,0.0,0.0,0.0,0.0,0.0,0.0,0.0,0.0,0.0,0.0,0.0,0.0,0.0,0.0,0.0,0.0,0.0,0.0,0.0,0.0,0.0,0.0,0.0,0.0,0.0,0.0,0.0,0.0,0.0,0.0,0.0,0.0,0.0,0.0,0.0,0.0,2.7635,2.8953,2.9816,3.0265,3.0673,3.0925,3.0899,3.0045,2.9186,0.0,0.0,0.0,0.0,0.0,0.0,0.0,0.0,0.0,0.0,0.0,0.0,0.0,0.0,0.0,0.0,0.0,0.0,0.0,0.0,0.0,0.0,0.0,0.0,0.0,0.0,0.0,0.0,0.0,0.0,0.0,0.0,0.0,0.0,0.0,0.0,0.0,0.0,0.0,0.0,2.1196,2.1859,2.2297,0.0,0.0,0.0,0.0,0.0,0.0,2.2917,2.2608,0.0,0.0,0.0,0.0,0.0,0.0,0.0,0.0,0.0,0.0,0.0,0.0,0.0,0.0,0.0,0.0,0.0,0.0,0.0,0.0,0.0,0.0,0.0,0.0,0.0,0.0,0.0,0.0,0.0,0.0,0.0,0.0,0.0,0.0,0.0,0.0,0.0,0.0,0.0,0.0,0.0,0.0,0.0,0.0,0.0,0.0,0.0,0.0,0.0,0.0,0.0,0.0,0.0,0.0,0.0,2.852,2.941,3.0193,3.0876,3.0915,3.0913,3.0905,3.023,2.937,0.0,0.0,0.0,0.0,0.0,0.0,0.0,0.0,0.0,0.0,0.0,0.0,0.0,0.0,0.0,0.0,0.0,0.0,0.0,0.0,0.0,0.0,0.0,0.0,0.0,0.0,0.0,0.0,0.0,0.0,0.0,0.0,0.0,0.0,0.0,0.0,0.0,0.0,0.0,0.0,0.0,2.2236,2.3101,2.3325,0.0,0.0,0.0,0.0,2.3488,2.3796,0.0,0.0,0.0,0.0,0.0,0.0,0.0,0.0,0.0,0.0,0.0,0.0,0.0,0.0,0.0,0.0,0.0,0.0,0.0,0.0,0.0,0.0,0.0,0.0,0.0,0.0,0.0,0.0,0.0,0.0,0.0,0.0,0.0,0.0,0.0,0.0,0.0,0.0,0.0,0.0,0.0,0.0,0.0,0.0,0.0,0.0,0.0,0.0,0.0,0.0,0.0,0.0,0.0,0.0,0.0,0.0,2.942,3.0291,3.0801,3.0898,3.0918,3.0918,3.0918,3.0801,2.998,0.0,0.0,0.0,0.0,0.0,0.0,0.0,0.0,0.0,0.0,0.0,0.0,0.0,0.0,0.0,0.0,0.0,0.0,0.0,0.0,0.0,0.0,0.0,0.0,0.0,0.0,0.0,0.0,0.0,0.0,0.0,0.0,0.0,0.0,0.0,0.0,0.0,0.0,0.0,0.0,0.0,2.3052,2.3864,2.4621,2.5117,0.0,0.0,2.5222,2.5136,2.4549,0.0,0.0,0.0,0.0,0.0,0.0,0.0,0.0,0.0,0.0,0.0,0.0,0.0,0.0,0.0,0.0,0.0,0.0,0.0,0.0,0.0,0.0,0.0,0.0,0.0,0.0,0.0,0.0,0.0,0.0,0.0,0.0,0.0,0.0,0.0,0.0,0.0,0.0,0.0,0.0,0.0,0.0,0.0,0.0,0.0,0.0,0.0,0.0,0.0,0.0,0.0,0.0,0.0,0.0,0.0,2.8366,2.9578,3.0467,3.1133,3.1601,3.1152,3.1152,3.1621,3.1152,3.0312,0.0,0.0,0.0,0.0,0.0,0.0,0.0,0.0,0.0,0.0,0.0,0.0,0.0,0.0,0.0,0.0,0.0,0.0,0.0,0.0,0.0,0.0,0.0,0.0,0.0,0.0,0.0,0.0,0.0,0.0,0.0,0.0,0.0,0.0,0.0,0.0,0.0,0.0,0.0,0.0,0.0,0.0,2.4654,2.5146,0.0,0.0,0.0,2.5515,2.5996,0.0,0.0,0.0,0.0,0.0,0.0,0.0,0.0,0.0,0.0,0.0,0.0,0.0,0.0,0.0,0.0,0.0,0.0,0.0,0.0,0.0,0.0,0.0,0.0,0.0,0.0,0.0,0.0,0.0,0.0,0.0,0.0,0.0,0.0,0.0,0.0,0.0,0.0,0.0,0.0,0.0,0.0,0.0,0.0,0.0,0.0,0.0,0.0,0.0,0.0,0.0,0.0,0.0,0.0,0.0,0.0,0.0,2.9915,3.0762,3.1521,3.2127,3.1757,3.1836,3.2441,3.166,0.0,0.0,0.0,0.0,0.0,0.0,0.0,0.0,0.0,0.0,0.0,0.0,0.0,0.0,0.0,0.0,0.0,0.0,0.0,0.0,0.0,0.0,0.0,0.0,0.0,0.0,0.0,1.7701,0.0,0.0,0.0,0.0,0.0,0.0,0.0,0.0,0.0,0.0,0.0,0.0,0.0,0.0,2.3728,2.5177,2.5572,2.5919,0.0,0.0,2.6178,2.6832,2.637,2.5659,0.0,0.0,0.0,0.0,0.0,0.0,0.0,0.0,0.0,0.0,0.0,0.0,0.0,0.0,0.0,0.0,0.0,0.0,0.0,0.0,0.0,0.0,0.0,0.0,0.0,0.0,0.0,0.0,0.0,0.0,0.0,0.0,0.0,0.0,0.0,0.0,0.0,0.0,0.0,0.0,0.0,0.0,0.0,0.0,0.0,0.0,0.0,0.0,0.0,0.0,0.0,0.0,0.0,0.0,0.0,3.0762,3.1612,3.2048,3.2126,3.2862,3.326,3.3301,3.2461,3.166,0.0,0.0,0.0,0.0,0.0,0.0,0.0,0.0,0.0,0.0,0.0,0.0,0.0,0.0,0.0,0.0,0.0,0.0,0.0,0.0,0.0,0.0,0.0,0.0,0.0,0.0,0.0,0.0,0.0,0.0,0.0,0.0,0.0,0.0,0.0,0.0,0.0,0.0,0.0,0.0,0.0,2.4331,2.5197,2.6005,2.6544,0.0,0.0,2.7755,2.7813,2.7755,2.7428,2.6563,0.0,0.0,0.0,0.0,0.0,0.0,0.0,0.0,0.0,0.0,0.0,0.0,0.0,0.0,0.0,0.0,0.0,0.0,0.0,0.0,0.0,0.0,0.0,0.0,0.0,0.0,0.0,0.0,0.0,0.0,0.0,0.0,0.0,0.0,0.0,0.0,0.0,0.0,0.0,0.0,0.0,0.0,0.0,0.0,0.0,0.0,0.0,0.0,0.0,0.0,0.0,0.0,0.0,2.9941,3.1612,3.1934,3.2611,3.3646,3.3517,3.3658,3.4189,3.3355,3.2753,0.0,0.0,0.0,0.0,0.0,0.0,0.0,0.0,0.0,0.0,0.0,0.0,0.0,0.0,0.0,0.0,0.0,0.0,0.0,0.0,0.0,0.0,0.0,0.0,0.0,0.0,0.0,0.0,2.2093,2.2371,2.1795,0.0,0.0,0.0,0.0,0.0,0.0,0.0,0.0,0.0,0.0,2.5197,2.5986,2.6851,0.0,0.0,2.8005,2.8063,2.8563,2.8217,2.7775,2.7467,2.6678,0.0,0.0,0.0,0.0,0.0,0.0,0.0,0.0,0.0,0.0,0.0,0.0,0.0,0.0,0.0,0.0,0.0,0.0,0.0,0.0,0.0,0.0,0.0,0.0,0.0,0.0,0.0,0.0,0.0,0.0,0.0,0.0,0.0,0.0,0.0,0.0,0.0,0.0,0.0,0.0,0.0,0.0,0.0,0.0,0.0,0.0,0.0,0.0,0.0,0.0,0.0,0.0,3.0696,3.2101,3.2611,3.347,3.4658,3.4345,3.4466,3.5034,3.4244,3.3782,0.0,0.0,0.0,0.0,0.0,0.0,0.0,0.0,0.0,0.0,0.0,0.0,0.0,0.0,0.0,0.0,0.0,0.0,0.0,0.0,0.0,0.0,0.0,0.0,0.0,0.0,0.0,0.0,2.3073,2.3183,2.2508,0.0,0.0,0.0,0.0,0.0,0.0,0.0,0.0,0.0,0.0,2.6352,2.6909,2.7717,2.8467,2.9006,2.8852,2.8832,2.939,2.9006,2.8563,2.8294,0.0,0.0,0.0,0.0,0.0,0.0,0.0,0.0,0.0,0.0,0.0,0.0,0.0,0.0,0.0,0.0,0.0,0.0,0.0,0.0,0.0,0.0,0.0,0.0,0.0,0.0,0.0,0.0,0.0,0.0,2.1402,0.0,0.0,0.0,0.0,0.0,0.0,0.0,0.0,0.0,0.0,0.0,0.0,0.0,0.0,0.0,0.0,0.0,0.0,0.0,0.0,0.0,0.0,3.1282,3.214,3.3763,3.4638,3.4745,3.5509,3.5926,3.5932,3.5132,3.4664,3.4644,0.0,0.0,0.0,0.0,0.0,0.0,0.0,0.0,0.0,0.0,0.0,0.0,0.0,0.0,0.0,0.0,0.0,0.0,0.0,0.0,0.0,0.0,0.0,0.0,0.0,0.0,2.4141,2.4218,2.4161,0.0,0.0,0.0,0.0,0.0,0.0,0.0,0.0,0.0,0.0,2.6814,2.7852,2.7871,2.8563,2.9102,2.9121,2.9794,3.0333,3.0321,3.0333,3.0063,0.0,0.0,0.0,0.0,0.0,0.0,0.0,0.0,0.0,0.0,0.0,0.0,0.0,0.0,0.0,0.0,0.0,0.0,0.0,0.0,0.0,0.0,0.0,0.0,0.0,0.0,0.0,2.2647,2.2681,0.0,0.0,0.0,0.0,0.0,0.0,0.0,0.0,0.0,0.0,0.0,2.742,2.7444,0.0,0.0,0.0,0.0,0.0,0.0,0.0,0.0,0.0,0.0,0.0,0.0,3.241,3.3785,3.4394,3.4979,3.5541,3.5853,3.6009,3.599,3.572,3.5298,3.4703,0.0,0.0,0.0,0.0,0.0,0.0,0.0,0.0,0.0,0.0,0.0,0.0,0.0,0.0,0.0,0.0,0.0,0.0,0.0,0.0,0.0,0.0,0.0,0.0,0.0,2.4155,0.0,0.0,0.0,0.0,0.0,0.0,0.0,0.0,0.0,0.0,0.0,2.5823,2.6919,2.8016,2.8698,2.8698,2.941,2.9967,0.0,0.0,0.0,0.0,0.0,0.0,0.0,0.0,0.0,0.0,0.0,0.0,0.0,0.0,2.6005,2.5427,2.4851,2.4822,2.5967,0.0,0.0,0.0,0.0,0.0,0.0,0.0,0.0,0.0,0.0,0.0,0.0,0.0,0.0,2.4385,0.0,2.4167,0.0,0.0,0.0,0.0,0.0,0.0,0.0,0.0,2.8479,2.8895,2.923,2.9615,2.9755,0.0,3.0152,3.0271,0.0,0.0,0.0,0.0,0.0,0.0,0.0,0.0,3.3568,3.4675,3.4979,3.5385,3.5914,3.5953,3.5968,3.5958,3.5968,3.5557,3.4736,3.3598,3.2337,0.0,0.0,0.0,0.0,0.0,0.0,0.0,0.0,0.0,0.0,0.0,0.0,0.0,0.0,0.0,0.0,0.0,0.0,0.0,0.0,0.0,0.0,0.0,2.4852,0.0,0.0,0.0,0.0,0.0,0.0,0.0,0.0,0.0,2.5813,2.6333,2.7103,2.8159,2.9044,2.9563,2.9544,0.0,0.0,0.0,0.0,0.0,0.0,0.0,3.0398,3.0398,2.9929,2.9448,2.9151,2.8659,2.8313,2.8324,0.0,0.0,2.7166,2.6589,2.6561,2.7698,2.789,2.789,2.789,2.789,2.789,0.0,0.0,0.0,0.0,0.0,0.0,0.0,0.0,2.7475,2.758,0.0,2.6825,0.0,0.0,0.0,0.0,0.0,2.78,0.0,0.0,2.965,3.0129,3.0976,3.2043,3.2453,3.2324,3.3535,3.3867,3.3184,3.0059,0.0,0.0,0.0,0.0,0.0,0.0,3.471,3.4772,3.5513,3.5896,3.5889,3.5889,3.5897,3.5898,3.5897,3.5554,3.478,3.4677,3.3512,3.1075,3.0875,0.0,0.0,0.0,0.0,0.0,0.0,0.0,0.0,0.0,0.0,0.0,0.0,0.0,0.0,0.0,0.0,0.0,0.0,0.0,0.0,2.5115,0.0,0.0,0.0,0.0,0.0,0.0,0.0,0.0,0.0,0.0,2.6717,2.8044,2.9132,2.9121,0.0,0.0,0.0,0.0,3.0398,3.0398,3.0398,3.0398,3.0398,3.0398,3.0398,3.0398,0.0,0.0,2.9294,2.914,2.914,2.9121,2.8544,2.7986,2.8003,2.795,2.7938,2.8033,2.8082,2.8005,2.8005,2.814,2.8102,2.7453,0.0,0.0,0.0,0.0,2.6703,2.704,2.7418,2.7547,2.7675,2.7781,2.7543,0.0,0.0,0.0,0.0,0.0,0.0,2.9577,3.0445,3.1092,3.153,3.1775,3.2733,3.3124,3.3086,3.3457,3.3574,3.3359,3.2422,3.1934,3.1953,0.0,0.0,0.0,0.0,3.4967,3.5534,3.5773,3.5894,3.5898,3.5898,3.5892,3.5885,3.5885,3.5786,3.5554,3.4959,3.4328,3.3597,3.1814,0.0,0.0,0.0,0.0,0.0,0.0,0.0,0.0,0.0,0.0,0.0,0.0,0.0,0.0,0.0,0.0,0.0,0.0,0.0,2.6813,2.7065,2.7219,0.0,0.0,0.0,0.0,0.0,0.0,0.0,0.0,0.0,2.8376,2.8802,2.9313,0.0,0.0,3.0398,3.0398,3.0398,3.0398,3.0398,3.0398,0.0,3.0398,3.0398,3.0398,3.0398,3.0398,3.0302,3.0063,3.0025,3.0025,3.0025,2.9833,2.9687,2.9667,2.9164,2.8998,2.9514,2.9698,2.9679,2.9698,2.9698,2.9667,2.9503,2.8587,2.7999,2.7657,2.7569,2.7959,2.8228,2.8389,2.8536,2.8668,2.8797,2.8797,2.8818,2.8886,2.8946,0.0,0.0,0.0,3.0973,3.1861,3.2358,3.2602,3.2686,3.3515,3.3926,3.3926,3.4277,3.4434,3.4434,3.4434,3.4434,3.4414,0.0,0.0,3.4683,3.5051,3.5619,3.6376,3.6391,3.6547,3.6868,3.6872,3.6689,3.6347,3.6343,3.6183,3.5866,3.5365,3.4934,3.4642,3.3165,3.1835,0.0,0.0,0.0,0.0,0.0,0.0,0.0,0.0,0.0,0.0,0.0,2.4064,0.0,0.0,0.0,0.0,2.6923,2.7373,2.7855,2.7883,0.0,0.0,0.0,0.0,0.0,0.0,0.0,2.8307,2.876,2.919,2.9524,2.9574,2.9778,3.0297,3.0343,3.0374,3.0367,0.0,3.0367,3.0398,3.0398,3.0398,3.0398,3.0398,3.0398,3.0398,3.0398,3.0398,3.0398,3.0398,3.0525,3.0833,3.091,3.1037,3.1333,3.0956,3.0482,3.0417,3.0398,3.0398,3.0367,3.0636,3.0854,3.1549,3.151,3.0098,2.9147,2.8614,2.9439,2.9905,3.0132,3.0247,3.0367,3.0503,3.0503,3.0535,3.0621,3.0752,0.0,3.2096,3.209,3.2543,3.3395,3.347,3.3495,3.3554,3.4392,3.4805,3.4824,3.5605,3.6016,3.5996,3.5996,3.6035,3.6074,3.5302,3.4917,3.4953,3.5783,3.6562,3.728,3.7233,3.7583,3.8373,3.8326,3.7928,3.7133,3.7114,3.6733,3.5959,3.5884,3.5528,3.4763,3.4619,3.3526,3.1265,0.0,0.0,0.0,0.0,0.0,0.0,0.0,0.0,0.0,0.0,0.0,0.0,0.0,0.0,0.0,2.8097,0.0,2.8095,2.8095,0.0,0.0,0.0,2.8,2.8007,2.7969,2.8268,2.9002,0.0,0.0,3.0184,3.0279,3.0279,3.0299,3.0299,3.0305,3.0292,3.0304,3.0323,3.0386,3.0398,3.0398,3.0398,3.0475,3.059,3.0583,3.0552,3.0686,3.0706,3.0698,3.0956,3.166,3.1788,3.1992,3.2756,3.2744,3.2436,3.0905,3.0667,3.0636,3.065,3.1194,3.168,3.1621,3.1672,3.1436,3.1283,3.1198,3.1467,3.1694,3.1889,3.1974,3.2065,3.221,3.221,3.227,3.2389,3.2513,3.2701,3.2924,3.2966,3.3127,3.3434,3.4089,3.4387,3.4432,3.5286,3.5682,3.5723,3.5898,3.6016,3.6016,3.6016,3.6348,3.6953,3.6784,3.6687,3.6727,3.7488,3.7987,3.8104,3.8097,3.817,3.8326,3.8297,3.8209,3.8006,3.8006,3.7589,3.6744,3.6714,3.6334,3.5543,3.487,3.4263,3.3712,3.1818,0.0,0.0,0.0,0.0,0.0,0.0,0.0,0.0,0.0,2.7477,2.7423,0.0,2.8917,0.0,2.9454,2.9783,2.9735,2.9742,0.0,0.0,2.9653,2.964,2.9614,2.9622,2.9689,2.9874,2.9926,2.997,3.0133,3.0157,3.0157,3.0161,3.0226,3.0312,3.0305,3.0304,3.0316,3.0318,3.0337,3.0318,3.0432,3.0936,3.1379,3.1391,3.1891,3.2295,3.2314,3.2314,3.2372,3.2583,3.2602,3.2699,3.2891,3.2914,3.2795,3.2357,3.225,3.2282,3.2223,3.2377,3.2516,3.2717,3.2813,3.2993,3.3144,3.3212,3.2522,3.2354,3.2495,3.2561,3.2672,3.2804,3.2872,3.2947,3.3018,3.3142,3.3408,3.3767,3.3848,3.4135,3.4581,3.5038,3.5279,3.531,3.5773,3.6013,3.6016,3.6016,3.6191,3.6562,3.658,3.7006,3.7865,3.8263,3.844,3.841,3.8466,3.8656,3.8979,3.9277,3.9389,3.9375,3.9332,3.9158,3.8818,3.8791,3.8384,3.7528,3.716,3.6754,3.6309,3.5437,3.4854,3.4501,3.3149,3.2018,0.0,0.0,0.0,0.0,0.0,0.0,0.0,0.0,0.0,0.0,0.0,2.9734,2.969,3.0067,3.0286,3.0266,3.0234,3.024,3.0226,3.0157,3.0157,3.0104,3.0114,3.0102,3.0068,3.0064,3.0049,3.0,3.0019,3.0019,3.0003,3.0113,3.0185,3.0213,3.0228,3.0254,3.0247,3.0603,3.1024,3.1341,3.1847,3.2186,3.2225,3.2551,3.2839,3.2858,3.2858,3.2954,3.3333,3.3436,3.3583,3.3882,3.3968,3.3941,3.3929,3.3925,3.3638,3.2967,3.3068,3.3306,3.4099,3.4203,3.4363,3.4558,3.4574,3.3222,3.2712,3.2835,3.2899,3.3009,3.3144,3.3256,3.3315,3.3346,3.3471,3.3932,3.4672,3.4736,3.5215,3.5986,3.6005,3.6013,3.6013,3.6007,3.6052,3.6172,3.6172,3.6601,3.746,3.7468,3.7904,3.8762,3.9523,3.9919,3.995,3.9201,3.9156,3.9848,4.0419,4.0707,4.072,4.0654,4.026,3.959,3.9552,3.916,3.8299,3.7597,3.7119,3.6891,3.6176,3.5394,3.4603,3.4449,3.3732,0.0,3.2128,0.0,0.0,0.0,0.0,0.0,0.0,0.0,0.0,3.0009,3.0362,3.0279,3.0221,3.0194,3.018,3.0185,3.0161,3.0094,3.0065,3.0051,2.9988,2.9971,2.9938,2.9874,2.9891,2.9872,2.9874,2.9872,2.9891,2.9872,2.994,2.9988,3.0049,3.0142,3.0204,3.0294,3.1126,3.1943,3.2493,3.2828,3.2976,3.2976,3.3149,3.313,3.3207,3.3207,3.3398,3.4064,3.4255,3.4461,3.5181,3.5242,3.5248,3.513,3.5095,3.4674,3.3601,3.3662,3.4015,3.4221,3.4293,3.4495,3.4604,3.4689,3.449,3.449,3.4617,3.4683,3.4799,3.4932,3.504,3.5109,3.5121,3.5194,3.5329,3.5546,3.5612,3.578,3.6005,3.6005,3.6013,3.6013,3.6007,3.6365,3.7031,3.7031,3.7498,3.8344,3.8355,3.8801,3.9644,3.9763,4.0155,4.0808,0.0,0.0,0.0,4.0667,4.07,4.07,4.0621,4.053,4.0376,4.0376,0.0,3.9218,3.8987,3.8254,3.6916,3.6665,0.0,0.0,0.0,0.0,0.0,0.0,0.0,0.0,0.0,0.0,0.0,3.2115,3.1584,3.0344,3.0222,3.0207,3.0138,3.0123,3.0109,3.0053,3.0053,3.0003,2.9937,2.9939,2.9935,2.9926,2.9885,2.9813,2.9735,2.9753,2.9754,2.9737,2.9736,2.9735,2.9753,2.9806,2.9842,2.9878,3.0064,3.0365,3.1013,3.192,3.252,3.2703,3.3374,3.3844,3.3916,3.4453,3.4726,3.4726,3.4745,3.4783,3.5032,3.5081,3.5066,3.5203,3.5217,3.5204,3.5147,3.5127,3.5051,3.4797,3.4783,3.4863,3.4926,0.0,3.4708,3.4668,0.0,3.4908,3.5019,3.5162,3.5209,3.5339,3.5449,3.5566,3.5616,3.5612,3.5669,3.5736,3.5795,3.5859,3.5922,3.6005,3.6009,3.6017,3.603,3.6431,3.685,3.7324,3.7731,3.8407,3.9195,3.9253,3.968,4.0492,4.0465,4.0643,4.1025,4.0988,4.0888,4.08,4.0694,4.064,4.0646,4.0579,4.0549,4.0564,4.0549,0.0,0.0,0.0,0.0,0.0,0.0,0.0,0.0,0.0,0.0,3.4879,3.448,3.4031,3.3583,3.3545,3.33,3.2795,3.2684,3.2306,3.1555,3.104,3.0719,3.0639,3.0285,2.9972,2.9943,2.9891,2.9857,2.9786,2.9815,2.9799,2.9736,2.972,2.9683,2.9626,2.9589,2.9608,2.9608,2.9589,2.9589,2.9608,2.9645,2.987,3.0227,3.0461,3.101,3.2252,3.2849,3.3408,3.3846,3.4241,3.4579,3.4655,3.4942,3.5171,3.5209,3.5209,3.5209,3.5209,3.5203,3.5203,3.516,3.515,3.5134,3.5076,3.5039,3.4982,3.4982,3.4982,3.4964,3.5824,3.5818,3.5171,3.4977,3.5116,3.5058,3.5126,3.5277,0.0,0.0,0.0,3.5572,3.562,3.5607,3.5669,3.5745,3.5791,3.5853,3.5933,3.6005,3.615,3.6219,3.627,3.7126,3.7608,3.7793,3.8485,3.9273,4.0093,4.0109,4.0437,4.1051,4.1085,4.1047,4.0993,4.0917,4.0846,4.0776,4.0662,4.0593,4.0588,4.0539,4.0489,4.0489,4.0489,4.0489,4.0489,3.9873,3.9435,3.9242,3.7781,3.6848,3.6684,3.5907,3.5446,3.5383,3.5374,3.5053,3.4327,3.4274,3.3922,3.3122,3.2966,3.2797,3.258,3.1879,3.1431,3.1381,3.0593,3.0069,3.0052,2.9829,2.9681,2.9663,2.9662,2.9626,2.9607,2.9587,2.9547,2.9491,2.9454,2.9453,2.9453,2.9471,2.9472,2.951,2.97,3.0168,3.0994,3.145,3.203,3.3242,3.3732,3.422,3.4791,3.4999,3.5075,3.4999,3.5037,3.5075,3.5075,3.5056,3.5075,3.5056,3.5069,3.5069,3.5056,3.5021,3.5022,3.4983,3.4927,3.487,3.4792,3.4812,3.4812,3.6621,3.6212,3.6056,3.6006,3.597,3.5413,3.5273,3.5465,3.5479,3.5468,3.5515,3.5577,3.5612,3.5607,3.5728,3.581,3.5799,3.5866,3.5924,3.6044,3.6754,3.7126,3.7161,3.801,3.8819,3.9512,3.9656,4.0132,4.0854,4.0922,4.0996,4.107,4.1042,4.0986,4.0926,4.0868,4.0773,4.0713,4.0654,4.0593,4.0588,4.0539,4.0489,4.0489,4.0489,4.0489,4.0489,4.038,3.9983,3.9234,3.8262,3.7402,3.6654,3.5799,3.5327,3.5327,3.5258,3.5152,3.4973,3.4937,3.4848,3.4528,3.443,3.3827,3.2466,3.222,3.2146,3.2053,3.1318,3.0791,3.0639,3.0039,2.9626,2.9531,2.9531,2.9531,2.9511,2.9507,2.9465,2.9332,2.9314,2.933,2.9286,2.9291,2.9332,2.9446,3.0029,3.1063,3.2323,3.297,3.3164,3.356,3.4187,3.4642,3.4813,3.4908,3.4946,3.4927,3.4927,3.4927,3.4946,3.4946,3.4927,3.4927,3.4925,3.4906,3.487,3.4868,3.4848,3.4829,3.479,3.4769,3.4647,3.4647,3.4647,3.7721,3.7546,3.7046,3.6653,3.631,3.5637,3.5417,3.5507,3.5547,3.5553,3.5546,3.5593,3.5618,3.5659,3.5775,3.5834,3.5866,3.6376,3.6655,3.6774,3.7604,3.8004,3.8092,3.8899,3.9512,3.9916,4.0361,4.0743,4.1081,4.1113,4.1081,4.1042,4.0986,4.0943,4.0888,4.0796,4.0706,4.0648,4.0621,4.0579,4.0558,4.0504,4.0489,4.0489,4.0489,4.0508,4.0495,4.0499,4.0293,3.9874,3.8558,3.7644,3.7206,3.5914,3.5176,3.5162,3.5108,3.5037,3.4945,3.4908,3.481,3.4647,3.4604,3.4282,3.3515,3.3066,3.282,3.276,3.2045,3.133,3.0801,3.0387,2.9936,2.9431,2.9375,2.9355,2.9349,2.9344,2.9302,2.9246,2.9246,2.9243,2.92,2.9225,2.9246,2.9357,3.0327,3.1675,3.2926,3.353,3.387,3.4049,3.444,3.4674,3.4751,3.4791,3.4849,3.4849,3.4831,3.4849,3.4849,3.4849,3.4849,3.4831,3.4813,3.4774,3.4732,3.4703,3.4698,3.4645,3.4645,3.4602,3.4517,3.445,3.4404,3.8855,3.8948,3.8115,3.7299,3.6537,3.6003,3.5707,3.5541,3.5581,3.5723,3.5878,3.5725,3.5679,3.5747,3.5993,3.6144,3.63,3.7099,3.7527,3.7656,3.8492,3.8888,3.8986,3.9765,4.017,4.0232,4.0806,4.1114,4.1109,4.1085,4.1042,4.0986,4.0924,4.0888,4.0876,4.075,4.0668,4.0602,4.0588,4.0564,4.0504,4.0489,4.0489,4.0508,4.0492,4.0495,4.0466,4.0449,4.0432,4.0285,3.8891,3.794,3.7602,3.6212,3.5227,3.5002,3.4927,3.4851,3.4753,3.4649,3.4561,3.445,3.445,3.4404,3.426,3.3799,3.3471,3.3396,3.272,3.1912,3.1309,3.0782,3.0272,2.9622,2.9307,2.9212,2.92,2.9215,2.9193,2.9197,2.9178,2.9156,2.9175,2.9175,2.9381,2.9939,3.0988,3.2186,3.3106,3.3807,3.4203,3.4354,3.4514,3.4623,3.4645,3.4666,3.4687,3.4727,3.4687,3.4687,3.4687,3.4708,3.4708,3.4668,3.4651,3.4632,3.4626,3.4589,3.4539,3.4491,3.4495,3.4473,3.4381,3.4245,3.4197,3.9859,3.9906,3.9185,3.7991,3.6786,3.6702,3.6286,3.5681,3.5607,3.6095,3.6774,3.6124,3.5842,3.5915,3.6708,3.706,3.7136,3.7975,3.8378,3.8502,3.9344,3.9776,3.983,4.0583,4.0974,4.0971,4.1062,4.1113,4.1085,4.1037,4.0986,4.0915,4.0888,4.0858,4.0738,4.0694,4.0642,4.0603,4.0588,4.0554,4.0523,4.0489,4.0492,4.0499,4.0482,4.0485,4.0396,4.0342,4.027,4.0157,3.9299,3.8404,3.7547,3.6615,3.5704,3.4888,3.4751,3.4668,3.4548,3.4458,3.4363,3.4245,3.4221,3.4173,3.4074,3.3975,3.3969,3.3913,3.33,3.2771,3.2551,3.1344,3.0531,3.0327,2.968,2.92,2.9233,2.92,2.9173,2.9126,2.913,2.9089,2.9136,2.9232,2.9812,3.1094,3.1924,3.2828,3.3617,3.3901,3.4023,3.4117,3.4264,3.4409,3.445,3.4431,3.4473,3.4473,3.445,3.4473,3.4495,3.4454,3.4431,3.4476,3.4445,3.4449,3.4431,3.4409,3.4381,3.4377,3.4363,3.4363,3.4245,3.4105,3.4074,4.0138,4.0215,3.9945,3.9257,3.8329,3.7836,3.7483,3.7219,3.723,3.7482,3.7778,3.7525,3.7377,3.7362,3.7793,3.796,3.802,3.8881,3.9283,3.9406,4.0218,4.0601,4.0643,4.0926,4.1104,4.1097,4.1113,4.1076,4.1031,4.096,4.0924,4.0888,4.0858,4.0804,4.0713,4.0675,4.0621,4.0603,4.0554,4.0527,4.0495,4.0495,4.0499,4.0502,4.0468,4.0379,4.0289,4.0252,4.0196,4.01,3.9278,3.8363,3.7488,3.6532,3.5618,3.4783,3.4586,3.4461,3.4357,3.4302,3.4203,3.4087,3.408,3.4049,3.3998,3.3972,3.3972,3.3961,3.3753,3.3377,3.2853,3.214,3.1562,3.1065,3.0296,2.9798,2.9789,2.9352,2.9072,2.904,2.904,2.926,2.9659,3.0142,3.0919,3.1973,3.2525,3.3022,3.3784,3.3939,3.3957,3.4013,3.4104,3.4197,3.4269,3.434,3.4386,3.4386,3.4386,3.4386,3.4386,3.4386,3.4386,3.4358,3.4311,3.4274,3.4227,3.4191,3.4179,3.4173,3.4173,3.4148,3.4099,3.3998,3.3972,4.0308,4.0394,4.0441,4.0087,3.938,3.8822,3.848,3.8336,3.8372,3.8521,3.8792,3.8844,3.8967,3.9117,3.8959,3.8863,3.8974,3.9747,4.0171,4.0301,4.0828,4.1113,4.1116,4.1108,4.1101,4.1109,4.1076,4.1031,4.0979,4.0943,4.0898,4.0868,4.0804,4.0725,4.0668,4.0621,4.0598,4.0573,4.0508,4.0479,4.0468,4.0468,4.0449,4.0449,4.0379,4.0308,4.0196,4.0158,4.0099,4.0038,3.9366,3.8485,3.7383,3.6613,3.5713,3.4626,3.4394,3.4288,3.4162,3.416,3.4099,3.3979,3.3972,3.3972,3.3947,3.3895,3.3868,3.3868,3.3921,3.367,3.3184,3.2845,3.2433,3.1826,3.1035,3.0538,3.0485,2.9971,2.9714,2.9659,2.9824,2.9843,3.0485,3.1182,3.1953,3.2449,3.2797,3.3091,3.3697,3.3879,3.3905,3.3925,3.3931,3.4042,3.4124,3.4197,3.4293,3.4293,3.4269,3.4269,3.4293,3.4293,3.4293,3.4179,3.4152,3.4152,3.4105,3.4042,3.4009,3.4016,3.3998,3.3998,3.3954,3.3902,3.3868,4.0463,4.0588,4.0662,4.0234,3.9508,3.9529,3.912,3.8602,3.8505,3.8929,3.968,3.9758,4.0179,4.0793,4.0055,3.9743,3.9864,4.0597,4.0967,4.0976,4.1074,4.1113,4.1107,4.1104,4.1109,4.1081,4.1037,4.0967,4.0926,4.0888,4.0868,4.0812,4.0738,4.0668,4.0602,4.0598,4.0577,4.0515,4.0499,4.0485,4.0396,4.0325,4.0307,4.0307,4.0252,4.0215,4.0177,4.0077,3.9975,3.9911,3.975,3.8924,3.7314,3.7009,3.6049,3.4492,3.4218,3.4162,3.4024,3.4012,3.3976,3.3915,3.3887,3.3868,3.386,3.3834,3.3834,3.3807,3.3815,3.3778,3.365,3.3117,3.2706,3.254,3.1825,3.1403,3.1372,3.1201,3.1274,3.1201,3.1146,3.1201,3.1347,3.2045,3.2504,3.2797,3.3275,3.3733,3.3752,3.3807,3.3807,3.3852,3.386,3.3902,3.3998,3.4074,3.4049,3.4074,3.4099,3.4049,3.4023,3.4023,3.4005,3.4005,3.4037,3.4012,3.3998,3.3983,3.3976,3.3976,3.3921,3.3895,3.3895,3.3842,3.3834,4.0635,4.0725,4.0765,4.0635,4.0479,4.0468,4.0326,4.0137,4.0117,4.0298,4.0574,4.0618,4.0816,4.1062,4.0775,4.0637,4.065,4.097,4.1112,4.1113,4.1108,4.1099,4.1108,4.1113,4.1076,4.1056,4.1019,4.0953,4.0907,4.0818,4.0773,4.0725,4.0655,4.0621,4.0598,4.0573,4.0527,4.0502,4.0468,4.0398,4.0289,4.0271,4.0215,4.0177,4.0215,4.0138,4.0015,3.9973,3.9867,3.9712,3.9647,3.8823,3.7164,3.5885,3.4945,3.4222,3.4087,3.4043,3.3968,3.3939,3.3915,3.3844,3.3834,3.3834,3.3807,3.3807,3.3807,3.3807,3.3807,3.3807,3.3752,3.3513,3.3366,3.3275,3.2653,3.2159,3.2049,3.1722,3.1404,3.1469,3.1806,3.2173,3.232,3.2871,3.3348,3.3385,3.3623,3.377,3.3807,3.3807,3.3807,3.3807,3.3834,3.386,3.3842,3.3947,3.3998,3.3998,3.4023,3.3998,3.3998,3.3972,3.3998,3.3947,3.3928,3.3928,3.3921,3.3887,3.3897,3.3897,3.386,3.386,3.3834,3.3834,3.3807,4.0796,4.0859,4.0849,4.0915,4.103,4.103,4.1065,4.1106,4.1115,4.1109,4.1104,4.1104,4.1099,4.1112,4.1112,4.111,4.1112,4.1112,4.1112,4.1108,4.1114,4.1113,4.11,4.1076,4.1037,4.1007,4.0967,4.0913,4.0839,4.0742,4.0681,4.0655,4.0621,4.0583,4.0554,4.0527,4.0499,4.043,4.0379,4.0289,4.0215,4.0158,4.01,4.0041,4.0039,4.0015,3.9889,3.9804,3.9693,3.9556,3.9239,3.8278,3.6595,3.5008,3.4099,3.403,3.4023,3.3935,3.3876,3.3852,3.3844,3.3771,3.378,3.3753,3.3753,3.3726,3.3753,3.3726,3.3726,3.3726,3.3726,3.3726,3.3753,3.3725,3.3313,3.2993,3.2955,3.2527,3.229,3.2313,3.2687,3.2963,3.3054,3.3476,3.3715,3.3807,3.3807,3.3807,3.3807,3.3807,3.3807,3.3807,3.3807,3.3807,3.3834,3.3868,3.3895,3.3921,3.3921,3.3947,3.3965,3.3947,3.3921,3.3895,3.3868,3.3868,3.3842,3.3807,3.3807,3.3807,3.3807,3.3834,3.3807,3.3807,3.3807,4.0941,4.0988,4.0988,4.1018,4.1078,4.1103,4.11,4.1099,4.1107,4.1112,4.1113,4.1113,4.1113,4.1112,4.1104,4.11,4.1113,4.1097,4.1094,4.1113,4.1109,4.1115,4.1075,4.1019,4.1,4.0972,4.0915,4.0839,4.0725,4.0694,4.0655,4.0588,4.0583,4.0539,4.0489,4.0479,4.0413,4.0325,4.0233,4.0215,4.0177,4.0077,3.9979,3.9884,3.9791,3.9781,3.9845,3.9623,3.9526,3.9383,3.8646,3.7305,3.5783,3.458,3.3972,3.3921,3.3891,3.3884,3.3815,3.3807,3.3771,3.3716,3.3698,3.3689,3.3615,3.3633,3.3633,3.3615,3.3633,3.3605,3.3633,3.3615,3.3643,3.378,3.3652,3.366,3.367,3.3733,3.3752,3.3623,3.366,3.377,3.3788,3.377,3.3807,3.3807,3.3807,3.3807,3.3807,3.3807,3.3807,3.3788,3.3807,3.378,3.3788,3.3788,3.3788,3.3788,3.3815,3.3815,3.3815,3.3815,3.3834,3.378,3.378,3.378,3.378,3.3744,3.3753,3.3753,3.378,3.378,3.3753,3.3753,3.378,4.1052,4.1059,4.1072,4.1081,4.1114,4.1101,4.111,4.1113,4.1112,4.1103,4.1108,4.1104,4.1104,4.1113,4.11,4.1109,4.11,4.1052,4.1067,4.1095,4.11,4.1075,4.1026,4.1025,4.096,4.0878,4.0807,4.075,4.0694,4.0654,4.0598,4.0554,4.0527,4.0499,4.043,4.0342,4.0271,4.0252,4.0177,4.0098,4.0015,3.9954,3.9873,3.969,3.959,3.9539,3.9563,3.9458,3.9376,3.9298,3.8436,3.7151,3.5581,3.4452,3.3939,3.3913,3.385,3.3797,3.3753,3.3707,3.3698,3.3651,3.3633,3.3615,3.3605,3.3605,3.3577,3.3605,3.3605,3.3605,3.3605,3.3605,3.3605,3.3643,3.3652,3.368,3.3671,3.3698,3.3753,3.3807,3.3807,3.3807,3.3807,3.3807,3.3807,3.3807,3.3807,3.3807,3.3807,3.3807,3.3807,3.3807,3.378,3.3726,3.3726,3.3726,3.3698,3.3726,3.3753,3.3734,3.3734,3.3726,3.3726,3.3698,3.3671,3.3689,3.3689,3.3689,3.3698,3.3671,3.3689,3.3671,3.3671,3.3698,3.3726,4.1105,4.1117,4.1105,4.1112,4.1113,4.1107,4.1116,4.1088,4.1078,4.1061,4.1061,4.1061,4.1075,4.1064,4.1065,4.1078,4.1046,4.0986,4.0984,4.1042,4.1059,4.1032,4.0968,4.0945,4.0878,4.0784,4.0725,4.0681,4.0612,4.0588,4.0523,4.0479,4.0466,4.0396,4.0344,4.0233,4.0177,4.0119,4.0058,3.9954,3.9867,3.9781,3.9679,3.9538,3.9427,3.9346,3.9277,3.9276,3.9237,3.8951,3.8025,3.6545,3.4932,3.4171,3.386,3.3815,3.3788,3.3716,3.3671,3.3678,3.3611,3.3556,3.3538,3.3491,3.3444,3.3415,3.3415,3.3415,3.3386,3.3415,3.3415,3.3415,3.3433,3.3415,3.3532,3.3588,3.3613,3.3623,3.3671,3.3698,3.3744,3.3707,3.3726,3.3726,3.3744,3.3744,3.3726,3.3726,3.3726,3.3726,3.3726,3.3726,3.3698,3.3671,3.3661,3.3633,3.3605,3.3633,3.3689,3.3671,3.3671,3.3671,3.3661,3.3661,3.3633,3.3632,3.3632,3.3623,3.3633,3.3605,3.3577,3.3605,3.3615,3.3661,3.3661,4.1113,4.1113,4.111,4.1084,4.1094,4.1086,4.1097,4.1085,4.1032,4.1013,4.1,4.1,4.1,4.0993,4.0976,4.096,4.098,4.0917,4.0888,4.0908,4.0917,4.0926,4.0878,4.0815,4.0738,4.07,4.0681,4.0612,4.0523,4.0492,4.046,4.0396,4.0362,4.0307,4.0234,4.0196,4.0099,4.0017,3.9933,3.9804,3.9693,3.9575,3.9476,3.9392,3.9275,3.9166,3.9108,3.8923,3.885,3.8693,3.7202,3.5653,3.4255,3.3815,3.378,3.3726,3.3698,3.3643,3.3605,3.359,3.352,3.3382,3.3364,3.3304,3.3178,3.3147,3.3147,3.3165,3.3135,3.3117,3.3117,3.3117,3.3135,3.3147,3.3368,3.3509,3.3579,3.3593,3.3577,3.3605,3.3605,3.3605,3.3633,3.3633,3.3633,3.3633,3.3633,3.3615,3.3615,3.3633,3.3605,3.3605,3.3587,3.3577,3.3567,3.3444,3.3415,3.3415,3.3491,3.3502,3.353,3.353,3.3494,3.3512,3.352,3.3564,3.3553,3.3481,3.3491,3.3462,3.3491,3.3577,3.3577,3.3549,3.3577,4.1116,4.1115,4.1111,4.1061,4.1025,4.1025,4.103,4.1003,4.0952,4.0935,4.0943,4.0943,4.0904,4.0896,4.0801,4.081,4.078,4.0757,4.0761,4.075,4.0725,4.0725,4.0732,4.0675,4.0621,4.0545,4.0519,4.0476,4.043,4.0396,4.0325,4.0252,4.0253,4.0234,4.0138,4.0019,3.9975,3.9911,3.9739,3.9647,3.9532,3.9477,3.9345,3.9207,3.9163,3.9045,3.8902,3.8309,3.7653,3.7091,3.6141,3.5009,3.3962,3.378,3.3726,3.3698,3.3625,3.3569,3.347,3.346,3.337,3.3214,3.3178,3.3147,3.3117,3.3073,3.3042,3.3011,3.2979,3.293,3.2948,3.2948,3.2993,3.3032,3.3142,3.3286,3.34,3.3441,3.3481,3.3577,3.3577,3.3577,3.3577,3.3577,3.3577,3.3577,3.3577,3.3577,3.3549,3.3549,3.352,3.352,3.352,3.3481,3.3422,3.3286,3.3208,3.3208,3.3238,3.3268,3.3298,3.3298,3.3273,3.3201,3.3309,3.3322,3.3292,3.3226,3.3256,3.3316,3.3316,3.3345,3.3316,3.3316,3.3404,4.105,4.1045,4.1018,4.0984,4.0913,4.0926,4.0927,4.0898,4.0839,4.0828,4.0818,4.0818,4.0604,4.0313,4.02,4.0164,4.0203,4.0121,4.0268,4.0621,4.0549,4.0569,4.0598,4.0549,4.0485,4.0441,4.0392,4.036,4.0307,4.029,4.0234,4.0177,4.0138,4.0077,3.9996,3.9911,3.9823,3.9735,3.9599,3.9502,3.9376,3.9298,3.9208,3.908,3.8999,3.8868,3.8346,3.7521,3.6673,3.5937,3.5349,3.4697,3.3872,3.3726,3.3689,3.3633,3.3549,3.3481,3.3382,3.3304,3.3212,3.306,3.3024,3.2961,3.2898,3.2834,3.2802,3.282,3.2787,3.277,3.277,3.277,3.2784,3.2827,3.2862,3.3011,3.3219,3.328,3.3316,3.3357,3.3386,3.3386,3.3386,3.3386,3.3386,3.3386,3.3357,3.3357,3.3357,3.3386,3.3386,3.3404,3.3375,3.3286,3.3244,3.3135,3.3055,3.3024,3.2993,3.3042,3.3086,3.3117,3.3111,3.3087,3.3099,3.3104,3.306,3.306,3.3165,3.3165,3.3135,3.3104,3.3117,3.3135,3.3226,4.0991,4.098,4.0915,4.084,4.0789,4.0776,4.0773,4.0757,4.0694,4.0584,4.0488,4.0526,4.0004,3.9366,3.9251,3.9243,3.9243,3.9099,3.9588,3.998,4.0181,4.0183,4.0408,4.0408,4.0375,4.0342,4.0307,4.0214,4.0177,4.0158,4.0137,4.0055,3.9996,3.9933,3.9867,3.9781,3.967,3.9526,3.9452,3.935,3.9237,3.9129,3.9055,3.8952,3.8672,3.8188,3.7419,3.6589,3.5742,3.4871,3.4862,3.4412,3.3753,3.3671,3.3633,3.3509,3.3422,3.3352,3.3232,3.3127,3.3015,3.2884,3.2852,3.2787,3.2657,3.2623,3.2573,3.2573,3.2573,3.2539,3.2539,3.2539,3.2573,3.257,3.2537,3.2707,3.2959,3.3064,3.3086,3.3068,3.3086,3.3104,3.3086,3.3086,3.3086,3.3238,3.3208,3.3178,3.3178,3.3178,3.3147,3.3117,3.3117,3.3104,3.3042,3.2993,3.2948,3.2884,3.2787,3.282,3.2866,3.288,3.2975,3.3006,3.2912,3.2934,3.2973,3.2987,3.3011,3.2993,3.293,3.2961,3.3024,3.3011,3.3073,4.0839,4.0846,4.0834,4.0781,4.072,4.0675,4.0615,4.0574,4.0545,4.0145,3.9663,3.9548,3.9047,3.8315,3.8243,3.8216,3.8201,3.8175,3.8472,3.9145,3.9185,3.9547,3.9967,4.0101,4.0196,4.0215,4.0138,4.006,4.0022,3.9939,3.9892,3.9873,3.9804,3.9735,3.967,3.9599,3.9526,3.9401,3.9272,3.9183,3.9129,3.9007,3.8902,3.8744,3.8195,3.736,3.6446,3.5611,3.4796,3.4164,3.3963,3.3908,3.367,3.3577,3.3509,3.3422,3.334,3.3219,3.3046,3.2938,3.2876,3.269,3.2623,3.2557,3.2523,3.2387,3.2318,3.2284,3.2249,3.2232,3.2232,3.2284,3.2318,3.2301,3.2335,3.2422,3.2611,3.2776,3.2852,3.2898,3.2948,3.2948,3.3011,3.3011,3.3042,3.3055,3.3055,3.3011,3.2979,3.2961,3.293,3.2898,3.2902,3.287,3.2802,3.2737,3.2672,3.2657,3.259,3.2523,3.2606,3.2621,3.2687,3.2719,3.2669,3.2707,3.2745,3.2743,3.2737,3.2719,3.2719,3.2719,3.277,3.282,3.2852,4.0662,4.0662,4.0668,4.0626,4.0554,4.0523,4.0457,4.0293,3.9931,3.955,3.9071,3.8706,3.8035,3.7255,3.7171,3.7137,3.7217,3.7469,3.7776,3.8137,3.8173,3.8567,3.9129,3.9359,3.9477,3.988,3.9954,3.9876,3.9794,3.9747,3.9689,3.9661,3.9594,3.957,3.9502,3.9401,3.9324,3.9245,3.9129,3.9036,3.9007,3.8921,3.8534,3.8217,3.7624,3.6886,3.5572,3.5151,3.4418,3.3796,3.3567,3.3549,3.3491,3.3462,3.3375,3.3256,3.3152,3.3078,3.2902,3.2758,3.2643,3.2507,3.2422,3.2353,3.2318,3.2214,3.2161,3.2161,3.2108,3.2108,3.2108,3.2108,3.2161,3.2161,3.2179,3.2249,3.2319,3.2525,3.2707,3.2737,3.2737,3.277,3.282,3.282,3.282,3.2802,3.2802,3.277,3.2784,3.2752,3.2737,3.2722,3.2677,3.2643,3.2557,3.2472,3.237,3.2335,3.2318,3.2284,3.2318,3.2335,3.2404,3.242,3.247,3.2472,3.2491,3.2456,3.2472,3.2488,3.2488,3.2454,3.2488,3.2521,3.2606,4.0466,4.0431,4.0438,4.0392,4.0342,4.0189,4.004,3.9834,3.9089,3.8611,3.8458,3.7771,3.6991,3.629,3.612,3.6046,3.6121,3.6519,3.6819,3.7122,3.7055,3.754,3.806,3.8221,3.8517,3.9429,3.9637,3.9656,3.9595,3.9556,3.9483,3.9429,3.938,3.9343,3.9317,3.9237,3.9156,3.9092,3.8989,3.895,3.8862,3.8785,3.8334,3.7607,3.6881,3.623,3.5082,3.4597,3.4157,3.3506,3.3393,3.3364,3.3334,3.3334,3.3256,3.3086,3.2979,3.2884,3.2755,3.2608,3.2439,3.2354,3.2232,3.2108,3.2073,3.2001,3.1965,3.1982,3.1982,3.1982,3.2018,3.1982,3.1982,3.1965,3.1984,3.202,3.2108,3.2249,3.2387,3.2472,3.2506,3.2523,3.2506,3.2539,3.2539,3.2573,3.2539,3.2539,3.2555,3.2504,3.2488,3.2456,3.244,3.2406,3.2336,3.2318,3.2197,3.2108,3.2073,3.2054,3.2018,3.2001,3.202,3.2249,3.2283,3.2266,3.2267,3.2301,3.2284,3.2266,3.2283,3.2301,3.2283,3.2249,3.2335,4.0306,4.0251,4.0177,4.0139,4.0004,3.9337,3.8992,3.8819,3.804,3.728,3.6729,3.6483,3.5932,3.5287,3.5057,3.4996,3.5066,3.5308,3.555,3.5964,3.5983,3.6344,3.6975,3.7051,3.7429,3.8264,3.8871,3.922,3.94,3.9345,3.9285,3.9231,3.9175,3.9129,3.912,3.9036,3.9007,3.8921,3.8862,3.8785,3.8615,3.8377,3.7906,3.6991,3.6042,3.5198,3.4624,3.3948,3.349,3.3214,3.3147,3.3086,3.3042,3.3104,3.3073,3.293,3.2884,3.2755,3.2541,3.2457,3.2301,3.2196,3.2037,3.1929,3.1856,3.1783,3.1709,3.1651,3.1651,3.1614,3.1593,3.1651,3.1614,3.1614,3.1654,3.1728,3.1819,3.1929,3.2001,3.2144,3.2179,3.2249,3.2318,3.2335,3.2335,3.237,3.2335,3.2335,3.2335,3.2283,3.2214,3.2179,3.2161,3.2143,3.2161,3.2108,3.2037,3.1893,3.1837,3.1763,3.1743,3.1631,3.1688,3.1948,3.2056,3.2073,3.2108,3.2107,3.2054,3.2037,3.2073,3.2108,3.2055,3.202,3.2091,4.0059,3.9979,3.9958,3.9648,3.9186,3.8766,3.8269,3.7772,3.6961,3.6375,3.5958,3.5562,3.5105,3.4682,3.4586,3.4517,3.4427,3.4386,3.4629,3.4923,3.4926,3.5244,3.5943,3.5932,3.6398,3.6989,3.759,3.8364,3.9081,3.9127,3.9007,3.9032,3.8987,3.8979,3.8968,3.8939,3.8833,3.8773,3.8676,3.8395,3.7931,3.7509,3.676,3.5848,3.5163,3.4467,3.381,3.3502,3.3152,3.3042,3.2961,3.2916,3.2852,3.277,3.2787,3.2737,3.269,3.2574,3.2371,3.2267,3.2073,3.1965,3.1802,3.1709,3.1651,3.1576,3.1521,3.15,3.15,3.15,3.15,3.1479,3.15,3.15,3.1483,3.1521,3.1614,3.1651,3.1726,3.1837,3.2018,3.2108,3.2144,3.2179,3.2179,3.2179,3.2144,3.2144,3.2108,3.2073,3.1985,3.1946,3.1925,3.1891,3.1873,3.1873,3.1856,3.1709,3.1634,3.1576,3.1555,3.1479,3.1555,3.1688,3.1765,3.1841,3.1765,3.1743,3.1763,3.18,3.18,3.1783,3.1783,3.1783,3.1873,3.9248,3.9226,3.9222,3.8757,3.8122,3.7873,3.7418,3.6696,3.5852,3.5477,3.536,3.4813,3.4465,3.4358,3.4269,3.4221,3.4124,3.4124,3.4161,3.4154,3.4141,3.4423,3.4739,3.4954,3.5248,3.5899,3.6054,3.6812,3.7979,3.821,3.842,3.846,3.8534,3.8711,3.8718,3.8474,3.8505,3.8365,3.8071,3.7588,3.6906,3.6146,3.5363,3.4558,3.4364,3.3839,3.3247,3.3064,3.2948,3.2884,3.2787,3.2707,3.2692,3.2541,3.2456,3.2489,3.2387,3.2354,3.2232,3.2073,3.1893,3.1783,3.1634,3.1576,3.15,3.1462,3.1423,3.144,3.144,3.144,3.1402,3.144,3.144,3.1423,3.144,3.144,3.1479,3.1479,3.1517,3.1668,3.1873,3.191,3.191,3.191,3.1873,3.1873,3.1873,3.1856,3.1856,3.1896,3.1823,3.1743,3.1665,3.1593,3.1576,3.1614,3.1596,3.1521,3.1483,3.1445,3.1423,3.144,3.1479,3.15,3.1466,3.1507,3.1445,3.1496,3.1589,3.1627,3.1517,3.1538,3.1614,3.1614,3.1651,3.7272,3.7248,3.7193,3.7094,3.6858,3.623,3.5833,3.5609,3.4803,3.4394,3.4487,3.4271,3.4124,3.4023,3.3939,3.3868,3.3842,3.3842,3.3842,3.3815,3.378,3.3826,3.389,3.3751,3.4233,3.4786,3.4848,3.5465,3.6391,3.6567,3.6911,3.7345,3.7509,3.7679,3.8058,3.7674,3.7374,3.7247,3.6687,3.6188,3.5872,3.5157,3.4617,3.4186,3.3661,3.319,3.2934,3.282,3.2773,3.2621,3.259,3.2507,3.2422,3.2319,3.2232,3.2179,3.2179,3.2144,3.1984,3.1979,3.1883,3.1823,3.1692,3.1496,3.1606,3.1562,3.1523,3.123,3.1331,3.1489,3.1557,3.1314,3.1263,3.1263,3.1336,3.1325,3.1312,3.1363,3.138,3.1402,3.1614,3.1614,3.1593,3.1593,3.1572,3.1572,3.1593,3.1576,3.1596,3.164,3.164,3.1572,3.1513,3.144,3.1402,3.144,3.1385,3.1329,3.1329,3.1312,3.1329,3.1308,3.1269,3.1291,3.1257,3.1334,3.1385,3.1436,3.1487,3.1453,3.1402,3.144,3.1517,3.1517,3.1479,3.5578,3.6597,3.6581,3.6239,3.5769,3.5365,3.495,3.4526,3.4131,3.3921,3.3895,3.3842,3.378,3.3698,3.3605,3.3559,3.3577,3.3577,3.3577,3.3577,3.3549,3.3509,3.3499,3.3441,3.3653,3.3701,3.3792,3.3894,3.4649,3.5521,3.6157,3.6344,3.6417,3.6508,3.7035,3.6617,3.6422,3.6136,3.5566,3.5033,3.4749,3.4199,3.3674,3.3548,3.3112,3.2841,3.269,3.2608,3.2507,3.237,3.2318,3.2267,3.2196,3.2108,3.1984,3.1929,3.1875,3.1839,3.1891,3.2142,3.2217,3.2286,3.2395,3.2672,3.2507,3.2415,3.2391,3.2476,3.2459,3.2408,3.2256,3.2036,3.1867,3.1788,3.1551,3.1348,3.132,3.123,3.1247,3.1286,3.1346,3.1363,3.1402,3.144,3.1479,3.1479,3.1517,3.1517,3.15,3.1449,3.1445,3.1414,3.1359,3.1325,3.1325,3.1325,3.1308,3.1252,3.1252,3.1252,3.123,3.119,3.119,3.119,3.1213,3.1269,3.1342,3.1342,3.132,3.1342,3.1308,3.1346,3.1363,3.1346,3.1308,3.4093,3.5462,3.5614,3.52,3.4566,3.453,3.4219,3.3679,3.3587,3.3559,3.353,3.3473,3.3415,3.3345,3.3286,3.3256,3.3256,3.3256,3.3274,3.3274,3.3274,3.3244,3.3214,3.317,3.314,3.3042,3.3096,3.3149,3.3486,3.4191,3.4952,3.5395,3.5413,3.5625,3.5679,3.5503,3.5291,3.4862,3.4285,3.397,3.3831,3.3337,3.2991,3.2855,3.2707,3.2608,3.2439,3.2371,3.2267,3.2179,3.2073,3.2054,3.2001,3.1893,3.1783,3.1777,3.1806,3.2012,3.2149,3.2363,3.2679,3.2917,3.3107,3.327,3.3296,3.3389,3.3372,3.322,3.3237,3.3271,3.3271,3.2814,3.2662,3.2347,3.1958,3.1687,3.1467,3.1427,3.1326,3.123,3.1269,3.123,3.1269,3.1346,3.1385,3.1385,3.1423,3.144,3.1385,3.1329,3.1308,3.1297,3.128,3.1247,3.1247,3.1247,3.119,3.119,3.119,3.119,3.119,3.119,3.119,3.119,3.119,3.123,3.1286,3.123,3.119,3.123,3.1269,3.123,3.123,3.119,3.119,3.2707,3.2912,3.3424,3.3544,3.3358,3.3322,3.3262,3.3178,3.3129,3.3129,3.3099,3.3068,3.2975,3.293,3.293,3.2916,3.293,3.2948,3.2916,3.2916,3.2916,3.2916,3.2884,3.2852,3.2838,3.2787,3.2734,3.2669,3.2672,3.295,3.3666,3.4253,3.4343,3.4842,3.4932,3.4577,3.4074,3.3651,3.3216,3.3087,3.3054,3.2829,3.2725,3.2523,3.2439,3.2354,3.2232,3.2144,3.2073,3.2037,3.1893,3.1819,3.18,3.1688,3.1593,3.1794,3.2115,3.2366,3.2667,3.2838,3.2985,3.3335,3.3609,3.3728,3.3812,3.3558,3.3457,3.366,3.3829,3.3711,3.3609,3.3372,3.3322,3.3102,3.2737,3.2364,3.2076,3.1732,3.1596,3.1292,3.136,3.1664,3.1732,3.193,3.1477,3.1409,3.1308,3.1308,3.1269,3.1252,3.1213,3.1207,3.1207,3.119,3.119,3.119,3.119,3.119,3.119,3.119,3.119,3.119,3.119,3.119,3.119,3.119,3.119,3.119,3.119,3.119,3.119,3.119,3.119,3.119,3.119,3.2231,3.2266,3.2453,3.2669,3.2848,3.2816,3.2834,3.2802,3.2737,3.2672,3.2621,3.2588,3.2537,3.2521,3.2521,3.2539,3.2539,3.2521,3.2521,3.2521,3.2539,3.2539,3.2521,3.2488,3.2472,3.2472,3.2437,3.2403,3.242,3.2387,3.2578,3.3013,3.3253,3.3354,3.3443,3.3565,3.314,3.2897,3.269,3.2626,3.2611,3.2474,3.2387,3.2318,3.2267,3.2161,3.2037,3.1965,3.1893,3.1783,3.1671,3.1651,3.1614,3.1517,3.1701,3.2003,3.2406,3.2893,3.3583,3.3744,3.416,3.4634,3.4793,3.4709,3.4607,3.4726,3.4759,3.4793,3.4675,3.4573,3.4742,3.4387,3.4032,3.3905,3.3584,3.3143,3.2822,3.2435,3.229,3.2188,3.2425,3.273,3.2696,3.2645,3.1985,3.145,3.1292,3.1207,3.1314,3.1444,3.1546,3.1579,3.1596,3.1393,3.1376,3.1309,3.1224,3.119,3.119,3.119,3.119,3.119,3.119,3.119,3.119,3.119,3.119,3.119,3.119,3.119,3.119,3.119,3.119,3.119,3.119,3.1714,3.1714,3.175,3.202,3.2352,3.2386,3.2386,3.2335,3.2318,3.2232,3.2161,3.2161,3.2161,3.2161,3.2161,3.2161,3.2161,3.2161,3.2161,3.2161,3.2161,3.2144,3.2161,3.2161,3.2161,3.2144,3.2144,3.2161,3.2126,3.216,3.2248,3.2284,3.2318,3.2457,3.261,3.2506,3.2489,3.2489,3.2439,3.2388,3.2337,3.2249,3.2108,3.2073,3.2037,3.1929,3.1819,3.1726,3.1688,3.1596,3.1521,3.1462,3.1423,3.1543,3.1788,3.2224,3.2785,3.3337,3.4193,3.4854,3.5108,3.5351,3.5487,3.552,3.5639,3.5639,3.5402,3.5487,3.5537,3.5622,3.5605,3.5098,3.4844,3.4709,3.4122,3.37,3.3575,3.3296,3.3187,3.3111,3.3263,3.3254,3.3203,3.3051,3.2594,3.2002,3.1799,3.1755,3.18,3.1964,3.2205,3.2205,3.2171,3.1901,3.1613,3.1698,3.1681,3.119,3.119,3.119,3.119,3.119,3.119,3.119,3.119,3.119,3.119,3.119,3.119,3.119,3.119,3.119,3.119,3.119,3.119,3.0998,3.1055,3.1173,3.1466,3.1858,3.1894,3.1875,3.1856,3.1837,3.1819,3.1783,3.1783,3.18,3.1783,3.1819,3.1819,3.1819,3.1819,3.1819,3.1819,3.1783,3.1783,3.1819,3.1783,3.1802,3.1837,3.1837,3.1856,3.1819,3.1832,3.1888,3.1893,3.1966,3.2073,3.2283,3.2232,3.2214,3.2196,3.2161,3.2143,3.2089,3.2054,3.1946,3.1856,3.1837,3.1726,3.1614,3.1538,3.15,3.1462,3.1351,3.1312,3.1329,3.1252,3.1636,3.2381,3.2983,3.3677,3.4455,3.5165,3.5487,3.5588,3.5639,3.5639,3.5639,3.5639,3.5639,3.5639,3.5639,3.5639,3.5605,3.5571,3.5487,3.5273,3.4711,3.4448,3.4324,3.4223,3.4115,3.4074,3.3702,3.3474,3.3474,3.3372,3.3068,3.2679,3.2391,3.2337,3.2366,3.2496,3.2747,3.2765,3.2714,3.2577,3.2341,3.229,3.2104,3.1546,3.1258,3.1343,3.1275,3.119,3.119,3.119,3.119,3.119,3.119,3.119,3.119,3.119,3.119,3.119,3.119,3.119,3.119,3.0485,3.0485,3.051,3.0658,3.0908,3.1274,3.1406,3.1406,3.1385,3.1406,3.1406,3.1423,3.1445,3.1466,3.1466,3.1521,3.1576,3.1483,3.1466,3.1466,3.1462,3.1423,3.1406,3.1466,3.1449,3.1504,3.1521,3.1576,3.1614,3.1606,3.1589,3.1634,3.1671,3.1802,3.2073,3.2144,3.2126,3.2109,3.2001,3.1927,3.1891,3.178,3.1688,3.1614,3.1631,3.1555,3.1462,3.1423,3.1385,3.1368,3.1274,3.1252,3.1252,3.119,3.1765,3.2662,3.3423,3.3998,3.4844,3.552,3.5605,3.5639,3.5639,3.5639,3.5639,3.5639,3.5639,3.5639,3.5639,3.5639,3.5622,3.5605,3.5571,3.5554,3.5211,3.5211,3.5155,3.5093,3.5026,3.507,3.4895,3.4742,3.4675,3.4269,3.388,3.366,3.3423,3.3102,3.3083,3.3093,3.3204,3.3211,3.3168,3.317,3.3102,3.3034,3.2713,3.2154,3.1833,3.1715,3.1579,3.1326,3.119,3.119,3.119,3.119,3.119,3.119,3.119,3.119,3.119,3.119,3.119,3.119,3.119,2.9886,2.9886,2.993,2.9984,3.0097,3.0658,3.0935,3.0935,3.0952,3.0935,3.0975,3.0992,3.1055,3.1078,3.1157,3.1196,3.1269,3.1213,3.1157,3.1157,3.1095,3.1112,3.1151,3.1117,3.1157,3.1196,3.1213,3.1269,3.1269,3.1269,3.1346,3.1385,3.1479,3.1651,3.1837,3.1873,3.1873,3.1819,3.1726,3.1688,3.1651,3.1576,3.15,3.1445,3.1406,3.1406,3.1385,3.1346,3.1291,3.1235,3.1213,3.119,3.119,3.136,3.1968,3.2933,3.4066,3.4607,3.5307,3.5588,3.5639,3.5639,3.5639,3.5639,3.5639,3.5639,3.5639,3.5639,3.5639,3.5639,3.5639,3.5639,3.5622,3.5622,3.5605,3.5526,3.5526,3.5459,3.5459,3.5526,3.5588,3.5622,3.5605,3.5301,3.4827,3.4641,3.4472,3.4117,3.3855,3.3888,3.3929,3.3977,3.3973,3.4047,3.3964,3.3795,3.3372,3.2763,3.2459,3.2222,3.1782,3.1529,3.136,3.119,3.119,3.119,3.119,3.119,3.119,3.119,3.119,3.119,3.119,3.119,3.119,2.9243,2.9289,2.9425,2.947,2.9544,3.0011,3.0326,3.0468,3.0468,3.0485,3.0485,3.0609,3.0692,3.0708,3.0814,3.0895,3.0912,3.0855,3.0871,3.0871,3.0831,3.0831,3.0831,3.0871,3.0855,3.0855,3.0895,3.0935,3.0912,3.0992,3.1072,3.119,3.1325,3.144,3.1462,3.15,3.1538,3.1576,3.1576,3.1538,3.1483,3.1462,3.1368,3.1312,3.1329,3.1291,3.1269,3.123,3.123,3.119,3.119,3.119,3.119,3.119,3.2121,3.3288,3.4675,3.5318,3.5526,3.5622,3.5639,3.5639,3.5639,3.5639,3.5639,3.5639,3.5639,3.5639,3.5639,3.5639,3.5639,3.5639,3.5639,3.5622,3.5622,3.5622,3.5622,3.556,3.556,3.5622,3.5622,3.5639,3.5639,3.5453,3.5301,3.525,3.5047,3.4922,3.4718,3.4928,3.4969,3.5053,3.5043,3.5036,3.4878,3.4556,3.4117,3.3541,3.3051,3.2747,3.2256,3.1749,3.1512,3.1343,3.1224,3.119,3.119,3.119,3.119,3.119,3.119,3.119,3.119,3.119,3.119,2.851,2.851,2.8668,2.8748,2.8842,2.915,2.9572,2.9984,2.9984,2.9984,3.0011,3.013,3.0258,3.0359,3.0485,3.0568,3.0568,3.0568,3.0543,3.0543,3.0485,3.0401,3.0443,3.0485,3.0526,3.0568,3.0593,3.0634,3.0773,3.0814,3.0855,3.0992,3.1112,3.1112,3.1151,3.1134,3.1308,3.1385,3.1385,3.1368,3.1329,3.1329,3.1252,3.1252,3.1252,3.1213,3.119,3.119,3.119,3.119,3.119,3.119,3.119,3.1241,3.185,3.3339,3.4641,3.5622,3.5639,3.5639,3.5639,3.5639,3.5639,3.5639,3.5639,3.5639,3.5639,3.5639,3.5639,3.5639,3.5639,3.5639,3.5639,3.5639,3.5639,3.5639,3.5639,3.5639,3.5639,3.5639,3.5639,3.5639,3.5639,3.5605,3.5487,3.5588,3.5554,3.543,3.5379,3.5504,3.5588,3.5622,3.5588,3.5402,3.5453,3.5216,3.4793,3.4336,3.3812,3.3203,3.2544,3.2053,3.1715,3.1444,3.1241,3.119,3.119,3.119,3.119,3.119,3.119,3.119,3.119,3.119,3.119,2.7825,2.7875,2.7955,2.8122,2.835,2.8479,2.8811,2.9243,2.9454,2.9544,2.9617,2.9738,2.9886,3.0017,3.0103,3.0172,3.0199,3.0156,3.0172,3.013,3.0103,3.0087,3.0087,3.013,3.0189,3.0231,3.0274,3.0359,3.051,3.0651,3.0749,3.0733,3.0831,3.0912,3.0952,3.0992,3.1072,3.119,3.1252,3.1235,3.1235,3.1213,3.119,3.119,3.119,3.119,3.119,3.119,3.119,3.119,3.119,3.119,3.1393,3.1698,3.2222,3.3643,3.4759,3.547,3.5639,3.5639,3.5639,3.5639,3.5639,3.5639,3.5639,3.5639,3.5639,3.5639,3.5639,3.5639,3.5639,3.5639,3.5639,3.5639,3.5639,3.5639,3.5639,3.5639,3.5639,3.5639,3.5639,3.5639,3.5639,3.5639,3.5639,3.5639,3.5639,3.5571,3.5504,3.5554,3.5605,3.5622,3.5639,3.5571,3.5639,3.5639,3.5301,3.4861,3.4455,3.3795,3.2983,3.229,3.1867,3.1529,3.1207,3.119,3.119,3.119,3.119,3.119,3.119,3.119,3.119,3.119,3.119,2.7152,2.7335,2.735,2.7575,2.7925,2.7925,2.8122,2.8348,2.8795,2.9075,2.9213,2.9396,2.9531,2.9621,2.9694,2.9722,2.9766,2.9722,2.9722,2.9766,2.9738,2.9738,2.9722,2.9766,2.9826,2.993,2.9973,3.006,3.0189,3.0359,3.0443,3.0485,3.0651,3.0749,3.079,3.0831,3.0871,3.0952,3.1055,3.1134,3.1134,3.1151,3.119,3.1151,3.1151,3.1151,3.1151,3.119,3.119,3.119,3.119,3.119,3.1579,3.2273,3.2966,3.3711,3.4675,3.5301,3.5571,3.5639,3.5639,3.5639,3.5639,3.5639,3.5639,3.5639,3.5639,3.5639,3.5639,3.5639,3.5639,3.5639,3.5639,3.5639,3.5639,3.5639,3.5639,3.5639,3.5639,3.5639,3.5639,3.5639,3.5639,3.5639,3.5639,3.5639,3.5639,3.5639,3.5639,3.5639,3.5639,3.5639,3.5639,3.5639,3.5639,3.5639,3.5639,3.5318,3.4945,3.4438,3.366,3.2848,3.2059,3.1596,3.119,3.119,3.119,3.119,3.119,3.119,3.119,3.119,3.119,3.119,3.119,2.6418,2.6563,2.6788,2.7063,2.7357,2.7372,2.7524,2.7775,2.8024,2.8365,2.8748,2.892,2.9044,2.9152,2.9259,2.9305,2.9289,2.935,2.9289,2.9289,2.9305,2.938,2.9364,2.9425,2.9486,2.9592,2.9637,2.9754,2.9913,3.0044,3.0189,3.0274,3.0401,3.0443,3.0526,3.0568,3.0651,3.0692,3.0831,3.0912,3.0935,3.0952,3.0992,3.0992,3.0975,3.0992,3.1015,3.1015,3.1055,3.1055,3.1151,3.119,3.1241,3.2121,3.2797,3.344,3.4269,3.4979,3.5402,3.5571,3.5639,3.5639,3.5639,3.5639,3.5639,3.5639,3.5639,3.5639,3.5639,3.5639,3.5639,3.5639,3.5639,3.5639,3.5639,3.5639,3.5639,3.5639,3.5639,3.5639,3.5639,3.5639,3.5639,3.5639,3.5639,3.5639,3.5639,3.5639,3.5639,3.5639,3.5639,3.5639,3.5639,3.5639,3.5639,3.5639,3.5639,3.5639,3.5351,3.4844,3.4252,3.3152,3.2053,3.1546,3.119,3.119,3.119,3.119,3.119,3.119,3.119,3.119,3.119,3.119,3.119,2.5296,2.55,2.6023,2.6472,2.6788,2.6788,2.7011,2.7321,2.7488,2.774,2.8088,2.8414,2.8637,2.8732,2.8858,2.892,2.8951,2.8967,2.9014,2.8951,2.8951,2.8998,2.9045,2.9091,2.9121,2.9229,2.9366,2.9486,2.9589,2.9782,2.993,2.9989,3.0017,3.0146,3.0231,3.0316,3.0401,3.0485,3.0568,3.0609,3.0651,3.0749,3.0912,3.0935,3.0895,3.0912,3.0929,3.0969,3.0952,3.0975,3.1072,3.1095,3.1263,3.1894,3.2442,3.3068,3.3829,3.4675,3.5064,3.5385,3.5571,3.5605,3.5639,3.5639,3.5639,3.5639,3.5639,3.5639,3.5639,3.5639,3.5639,3.5639,3.5639,3.5639,3.5639,3.5639,3.5639,3.5639,3.5639,3.5639,3.5639,3.5639,3.5639,3.5639,3.5639,3.5639,3.5639,3.5639,3.5639,3.5639,3.5639,3.5639,3.5639,3.5639,3.5639,3.5639,3.5639,3.5639,3.5639,3.4844,3.4032,3.3,3.2087,3.1529,3.119,3.119,3.119,3.119,3.119,3.119,3.119,3.119,3.119,3.119,3.119,2.4028,2.4299,2.5038,2.5628,2.6076,2.6062,2.64,2.6817,2.7026,2.7181,2.7386,2.784,2.8186,2.8429,2.8541,2.8589,2.8652,2.8589,2.8652,2.8652,2.8636,2.8684,2.8747,2.8747,2.8873,2.8998,2.9121,2.9198,2.9273,2.9425,2.9576,2.9681,2.9814,2.993,2.9973,3.006,3.0146,3.0146,3.0189,3.0189,3.0316,3.0568,3.0716,3.0781,3.0797,3.0807,3.0824,3.0824,3.0831,3.0912,3.0935,3.0975,3.1156,3.1601,3.2053,3.2628,3.3271,3.4032,3.459,3.5064,3.5351,3.5526,3.5605,3.5639,3.5639,3.5639,3.5639,3.5639,3.5639,3.5639,3.5639,3.5639,3.5639,3.5639,3.5639,3.5639,3.5639,3.5639,3.5639,3.5639,3.5639,3.5639,3.5639,3.5639,3.5639,3.5639,3.5639,3.5639,3.5639,3.5639,3.5639,3.5639,3.5639,3.5639,3.5639,3.5639,3.5639,3.5639,3.5504,3.4675,3.3812,3.2882,3.207,3.1444,3.119,3.119,3.119,3.119,3.119,3.119,3.119,3.119,3.119,3.119,3.119,2.283,2.3218,2.3486,2.4106,2.4841,2.4936,2.543,2.6176,2.639,2.663,2.6922,2.7144,2.7488,2.7925,2.8039,2.8152,2.8266,2.825,2.8168,2.8168,2.825,2.8348,2.8411,2.8508,2.8636,2.8732,2.8858,2.8904,2.8951,2.9044,2.9182,2.9364,2.9396,2.9486,2.9608,2.9726,2.9814,2.9814,2.9842,2.987,2.9957,3.0156,3.0276,3.0318,3.0318,3.0342,3.0375,3.0485,3.0551,3.0634,3.0773,3.0912,3.1059,3.1234,3.1618,3.2063,3.2763,3.3372,3.3964,3.4573,3.4945,3.5436,3.5504,3.5639,3.5639,3.5639,3.5639,3.5639,3.5639,3.5639,3.5639,3.5639,3.5639,3.5639,3.5639,3.5639,3.5639,3.5639,3.5639,3.5639,3.5639,3.5639,3.5639,3.5639,3.5639,3.5639,3.5639,3.5639,3.5639,3.5639,3.5639,3.5639,3.5639,3.5639,3.5639,3.5639,3.5639,3.5639,3.5385,3.459,3.3761,3.2865,3.2104,3.141,3.119,3.119,3.119,3.119,3.119,3.119,3.119,3.119,3.119,3.119,3.119]},{"header":{"parameterUnit":"m.s-1","parameterCategory":1,"la1":31.0,"la2":29.5877,"lo1":-88.7671,"lo2":-86.6584,"dy":0.0162,"dx":0.0185,"nx":115,"ny":88,"refTime":"2023-09-10T18:00:00:Z","depth":0,"parameterNumber":3,"parameterNumberName":"V-component_of_WINDS"},"data":[0.0,0.0,0.0,0.0,0.0,0.0,0.0,0.0,0.0,0.0,0.0,0.0,0.0,0.0,0.0,0.0,0.0,0.0,0.0,0.0,0.0,0.0,0.0,0.0,0.0,0.0,0.0,0.0,0.0,0.0,0.0,0.0,0.0,0.0,0.0,0.0,0.0,0.0,0.0,0.0,0.0,0.0,0.0,0.0,0.0,0.0,0.0,0.0,0.0,0.0,0.0,0.0,0.0,0.0,0.0,0.0,0.0,0.0,0.0,0.0,0.0,0.0,0.0,0.0,0.0,0.0,0.0,0.0,0.0,0.0,0.0,0.0,0.0,0.0,0.0,0.0,0.0,0.0,0.0,0.0,0.0,0.0,0.0,0.0,0.0,0.0,0.0,0.0,0.0,0.0,0.0,0.0,0.0,0.0,0.0,0.0,0.0,0.0,0.0,0.0,0.0,0.0,0.0,0.0,0.0,0.0,0.0,0.0,0.0,0.0,0.0,0.0,0.0,0.0,0.0,0.0,0.0,0.0,0.0,0.0,0.0,0.0,0.0,0.0,0.0,0.0,0.0,0.0,0.0,0.0,0.0,0.0,0.0,0.0,0.0,0.0,0.0,0.0,0.0,0.0,0.0,0.0,0.0,0.0,0.0,0.0,0.0,0.0,0.0,0.0,0.0,0.0,0.0,0.0,0.0,0.0,0.0,0.0,0.0,0.0,0.0,0.0,0.0,0.0,0.0,0.0,0.0,0.0,0.0,0.0,0.0,0.0,0.0,0.0,0.0,0.0,0.0,0.0,0.0,0.0,0.0,0.0,0.0,0.0,0.0,0.0,0.0,0.0,0.0,0.0,0.0,0.0,0.0,0.0,0.0,0.0,0.0,0.0,0.0,0.0,0.0,0.0,0.0,0.0,0.0,0.0,0.0,0.0,0.0,0.0,0.0,0.0,0.0,0.0,0.0,0.0,0.0,0.0,0.0,0.0,0.0,0.0,0.0,0.0,0.0,0.0,0.0,0.0,0.0,0.0,0.0,0.0,0.0,0.0,0.0,0.0,0.0,0.0,0.0,0.0,0.0,0.0,0.0,0.0,0.0,0.0,0.0,0.0,0.0,0.0,0.0,0.0,0.0,0.0,0.0,0.0,0.0,0.0,0.0,0.0,0.0,0.0,0.0,0.0,0.0,0.0,0.0,0.0,0.0,0.0,0.0,0.0,0.0,0.0,0.0,0.0,0.0,0.0,0.0,0.0,0.0,0.0,0.0,0.0,0.0,0.0,0.0,0.0,0.0,0.0,0.0,0.0,0.0,0.0,0.0,0.0,0.0,0.0,0.0,0.0,0.0,0.0,0.0,0.0,0.0,0.0,0.0,0.0,0.0,0.0,0.0,0.0,0.0,0.0,0.0,0.0,0.0,0.0,0.0,0.0,0.0,0.0,0.0,0.0,0.0,0.0,0.0,0.0,0.0,0.0,0.0,0.0,0.0,0.0,0.0,0.0,0.0,0.0,0.0,0.0,0.0,0.0,0.0,0.0,0.0,0.0,0.0,0.0,0.0,0.0,0.0,0.0,0.0,0.0,0.0,0.0,0.0,0.0,0.0,0.0,0.0,0.0,0.0,0.0,0.0,0.0,0.0,0.0,0.0,0.0,0.0,0.0,0.0,0.0,0.0,0.0,0.0,0.0,0.0,0.0,0.0,0.0,0.0,0.0,0.0,0.0,0.0,0.0,0.0,0.0,0.0,0.0,0.0,0.0,0.0,0.0,0.0,0.0,0.0,0.0,0.0,0.0,0.0,0.0,0.0,0.0,0.0,0.0,0.0,0.0,0.0,0.0,0.0,0.0,0.0,0.0,0.0,0.0,0.0,0.0,0.0,0.0,0.0,0.0,0.0,0.0,0.0,0.0,0.0,0.0,0.0,0.0,0.0,0.0,0.0,0.0,0.0,0.0,0.0,0.0,0.0,0.0,0.0,0.0,0.0,0.0,0.0,0.0,0.0,0.0,0.0,0.0,0.0,0.0,0.0,0.0,0.0,0.0,0.0,0.0,0.0,0.0,0.0,0.0,0.0,0.0,0.0,0.0,0.0,0.0,0.0,0.0,0.0,0.0,0.0,0.0,0.0,0.0,0.0,0.0,0.0,0.0,0.0,0.0,0.0,0.0,0.0,0.0,0.0,0.0,0.0,0.0,0.0,0.0,0.0,0.0,0.0,0.0,0.0,0.0,0.0,0.0,0.0,0.0,0.0,0.0,0.0,0.0,0.0,0.0,0.0,0.0,0.0,0.0,0.0,0.0,0.0,0.0,0.0,0.0,0.0,0.0,0.0,0.0,0.0,0.0,0.0,0.0,0.0,0.0,0.0,0.0,0.0,0.0,0.0,0.0,0.0,0.0,0.0,0.0,0.0,0.0,0.0,0.0,0.0,0.0,0.0,0.0,0.0,0.0,0.0,0.0,0.0,0.0,0.0,0.0,0.0,0.0,0.0,0.0,0.0,0.0,0.0,0.0,0.0,0.0,0.0,0.0,0.0,0.0,0.0,0.0,0.0,0.0,0.0,0.0,0.0,0.0,0.0,0.0,0.0,0.0,0.0,0.0,0.0,0.0,0.0,0.0,0.0,0.0,0.0,0.0,0.0,0.0,0.0,0.0,0.0,0.0,0.0,0.0,0.0,0.0,0.0,0.0,0.0,0.0,0.0,0.0,0.0,0.0,0.0,0.0,0.0,0.0,0.0,0.0,0.0,0.0,0.0,0.0,0.0,0.0,0.0,0.0,0.0,0.0,0.0,0.0,0.0,0.0,0.0,0.0,0.0,0.0,0.0,0.0,0.0,0.0,0.0,0.0,0.0,0.0,0.0,0.0,0.0,0.0,0.0,0.0,0.0,0.0,0.0,0.0,0.0,0.0,0.0,0.0,0.0,0.0,0.0,0.0,0.0,0.0,0.0,0.0,0.0,0.0,0.0,0.0,0.0,0.0,0.0,0.0,0.0,0.0,0.0,0.0,0.0,0.0,0.0,0.0,0.0,0.0,0.0,0.0,0.0,0.0,0.0,0.0,0.0,0.0,0.0,0.0,0.0,0.0,0.0,0.0,0.0,0.0,0.0,0.0,0.0,0.0,0.0,0.0,0.0,0.0,0.0,0.0,0.0,0.0,0.0,0.0,0.0,0.0,0.0,0.0,0.0,0.0,0.0,0.0,0.0,0.0,0.0,0.0,0.0,0.0,0.0,0.0,0.0,0.0,0.0,0.0,0.0,0.0,0.0,0.0,0.0,0.0,0.0,0.0,0.0,0.0,0.0,0.0,0.0,0.0,0.0,0.0,0.0,0.0,0.0,0.0,0.0,0.0,0.0,0.0,0.0,0.0,0.0,0.0,0.0,0.0,0.0,0.0,0.0,0.0,0.0,0.0,0.0,0.0,0.0,0.0,0.0,0.0,0.0,0.0,0.0,0.0,0.0,0.0,0.0,0.0,0.0,0.0,0.0,0.0,0.0,0.0,0.0,0.0,0.0,0.0,0.0,0.0,0.0,0.0,0.0,0.0,0.0,0.0,0.0,0.0,0.0,0.0,0.0,0.0,0.0,0.0,0.0,0.0,0.0,0.0,0.0,0.0,0.0,0.0,0.0,0.0,0.0,0.0,0.0,0.0,0.0,0.0,0.0,0.0,0.0,0.0,0.0,0.0,0.0,0.0,0.0,0.0,0.0,0.0,0.0,0.0,0.0,0.0,0.0,0.0,0.0,0.0,0.0,0.0,0.0,0.0,0.0,0.0,0.0,0.0,0.0,0.0,0.0,0.0,0.0,0.0,0.0,0.0,0.0,0.0,0.0,0.0,0.0,0.0,0.0,0.0,0.0,0.0,0.0,0.0,0.0,0.0,0.0,0.0,0.0,0.0,0.0,0.0,0.0,0.0,0.0,0.0,0.0,0.0,0.0,0.0,0.0,0.0,0.0,0.0,0.0,0.0,0.0,0.0,0.0,0.0,0.0,0.0,0.0,0.0,0.0,0.0,0.0,0.0,0.0,0.0,0.0,0.0,0.0,0.0,0.0,0.0,0.0,0.0,0.0,0.0,0.0,0.0,0.0,0.0,0.0,0.0,0.0,0.0,0.0,0.0,0.0,0.0,0.0,0.0,0.0,0.0,0.0,0.0,0.0,0.0,0.0,0.0,0.0,0.0,0.0,0.0,0.0,0.0,0.0,0.0,0.0,0.0,0.0,0.0,0.0,0.0,0.0,0.0,0.0,0.0,0.0,0.0,0.0,0.0,0.0,0.0,0.0,0.0,0.2679,0.0,0.0,0.0,0.0,0.0,0.0,0.0,0.0,0.0,0.0,0.0,0.0,0.0,0.0,0.0,0.0,0.0,0.0,0.0,0.0,0.0,0.0,0.0,0.0,0.0,0.0,0.0,0.0,0.0,0.0,0.0,0.0,0.0,0.0,0.0,0.0,0.0,0.0,0.0,0.0,0.0,0.0,0.0,0.0,0.0,0.0,0.0,0.0,0.0,0.0,0.0,0.0,0.0,0.0,0.0,0.0,0.0,0.0,0.0,0.0,0.0,0.0,0.0,0.0,0.0,0.0,0.0,0.0,0.0,0.0,0.0,0.0,0.0,0.0,0.0,0.0,0.0,0.0,0.0,0.0,0.0,0.0,0.0,0.0,0.0,0.0,0.0,0.0,0.0,0.0,0.0,0.0,0.0,0.0,0.0,0.0,0.0,0.0,0.0,0.0,0.0,0.0,0.0,0.0,0.0,0.0,0.0,0.0,0.0,0.0,0.2679,0.2679,0.2679,0.2679,0.2679,0.0,0.0,0.0,0.0,0.0,0.0,0.0,0.0,0.0,0.0,0.0,0.0,0.0,0.0,0.0,0.0,0.0,0.0,0.0,0.0,0.0,0.0,0.0,0.0,0.0,0.0,0.0,0.0,0.0,0.0,0.0,0.0,0.0,0.0,0.0,0.0,0.0,0.0,0.0,0.0,0.0,0.0,0.0,0.0,0.0,0.0,0.0,0.0,0.0,0.0,0.0,0.0,0.0,0.0,0.0,0.0,0.0,0.0,0.0,0.0,0.0,0.0,0.0,0.0,0.0,0.0,0.0,0.0,0.0,0.0,0.0,0.0,0.0,0.0,0.0,0.0,0.0,0.0,0.0,0.0,0.0,0.0,0.0,0.0,0.0,0.0,0.0,0.0,0.0,0.0,0.0,0.0,0.0,0.0,0.0,0.0,0.0,0.0,0.0,0.0,0.0,0.0,0.0,0.0,0.0,0.0,0.0,0.0,0.0,0.0,0.0,0.0,0.2679,0.2679,0.2712,0.0,0.0,0.0,0.0,0.0,0.0,0.0,0.0,0.0,0.0,0.0,0.0,0.0,0.0,0.0,0.0,0.0,0.0,0.0,0.0,0.0,0.0,0.0,0.0,0.0,0.0,0.0,0.0,0.0,0.0,0.0,0.0,0.0,0.0,0.0,0.0,0.0,0.0,0.0,0.0,0.0,0.0,0.0,0.0,0.0,0.0,0.0,0.0,0.0,0.0,0.0,0.0,0.0,0.0,0.0,0.0,0.0,0.0,0.0,0.0,0.0,0.0,0.0,0.0,0.0,0.0,0.0,0.0,0.0,0.0,0.0,0.0,0.0,0.0,0.0,0.0,0.0,0.0,0.0,0.0,0.0,0.0,0.0,0.0,0.0,0.0,0.0,0.0,0.0,0.0,0.0,0.0,0.0,0.0,0.0,0.0,0.0,0.0,0.0,0.0,0.0,0.0,0.0,0.0,0.0,0.0,0.0,0.0,0.0,0.0,0.2679,0.2679,0.2679,0.0,0.2679,0.0,0.0,0.0,0.0,0.0,0.0,0.0,0.0,0.0,0.0,0.0,0.0,0.0,0.0,0.0,0.0,0.0,0.0,0.0,0.0,0.0,0.0,0.0,0.0,0.0,0.0,0.0,0.0,0.0,0.0,0.0,0.0,0.0,0.0,0.0,0.0,0.0,0.0,0.0,0.0,0.0,0.0,0.0,0.0,0.0,0.0,0.0,0.0,0.0,0.0,0.0,0.0,0.0,0.0,0.0,0.0,0.0,0.0,0.0,0.0,0.0,0.0,0.0,0.0,0.0,0.0,0.0,0.0,0.0,0.0,0.0,0.0,0.0,0.0,0.0,0.0,0.0,0.0,0.0,0.0,0.0,0.0,0.0,0.0,0.0,0.0,0.0,0.0,0.0,0.0,0.0,0.0,0.0,0.0,0.0,0.0,0.0,0.0,0.0,0.0,0.0,0.0,0.0,0.0,0.0,0.0,0.0,0.0,0.0,0.0,0.2679,0.2679,0.2679,0.2679,0.0,0.0,0.0,0.0,0.0,0.0,0.0,0.0,0.0,0.0,0.0,0.0,0.0,0.0,0.0,0.0,0.0,0.0,0.0,0.0,0.0,0.0,0.0,0.0,0.0,0.0,0.0,0.0,0.0,0.0,0.0,0.0,0.0,0.0,0.0,0.0,0.0,0.0,0.0,0.0,0.0,0.0,0.0,0.0,0.0,0.0,0.0,0.0,0.0,0.0,0.0,0.0,0.0,0.0,0.0,0.0,0.0,0.0,0.0,0.0,0.0,0.0,0.0,0.0,0.0,0.0,0.0,0.0,0.0,0.0,0.0,0.0,0.0,0.0,0.0,0.0,0.0,0.0,0.0,0.0,0.0,0.0,0.0,0.0,0.0,0.0,0.0,0.0,0.0,0.0,0.0,0.0,0.0,0.0,0.0,0.0,0.0,0.0,0.0,0.0,0.0,0.0,0.0,0.0,0.0,0.0,0.0,0.0,0.0,0.0,0.2747,0.2761,0.2798,0.2764,0.2744,0.2744,0.0,0.0,0.0,0.0,0.0,0.0,0.0,0.0,0.0,0.0,0.0,0.0,0.0,0.0,0.0,0.0,0.0,0.0,0.0,0.0,0.0,0.0,0.0,0.0,0.0,0.0,0.0,0.0,0.0,0.0,0.0,0.0,0.0,0.0,0.0,0.0,0.0,0.0,0.0,0.0,0.0,0.0,0.0,0.0,0.0,0.0,0.0,0.0,0.0,0.0,0.0,0.0,0.0,0.0,0.0,0.0,0.0,0.0,0.0,0.0,0.0,0.0,0.0,0.0,0.0,0.0,0.0,0.0,0.0,0.0,0.0,0.0,0.0,0.0,0.0,0.0,0.0,0.0,0.0,0.0,0.0,0.0,0.0,0.0,0.0,0.0,0.0,0.0,0.0,0.0,0.0,0.0,0.0,0.0,0.0,0.0,0.0,0.0,0.0,0.0,0.0,0.0,0.0,0.0,0.0,0.0,0.0,0.0,0.2893,0.2896,0.2964,0.3048,0.2968,0.29,0.0,0.0,0.0,0.0,0.0,0.0,0.0,0.0,0.0,0.0,0.0,0.0,0.0,0.0,0.0,0.0,0.0,0.0,0.0,0.0,0.0,0.0,0.0,0.0,0.0,0.0,0.0,0.0,0.0,0.0,0.0,0.0,0.0,0.0,0.0,0.0,0.0,0.0,0.0,0.0,0.0,0.0,0.0,0.0,0.0,0.0,0.0,0.0,0.0,0.0,0.0,0.0,0.0,0.0,0.0,0.0,0.0,0.0,0.0,0.0,0.0,0.0,0.0,0.0,0.0,0.0,0.0,0.0,0.0,0.0,0.0,0.0,0.0,0.0,0.0,0.0,0.0,0.0,0.0,0.0,0.0,0.0,0.0,0.0,0.0,0.0,0.0,0.0,0.0,0.0,0.0,0.0,0.0,0.0,0.0,0.0,0.0,0.0,0.0,0.0,0.0,0.0,0.0,0.0,0.0,0.0,0.0,0.0,0.0,0.2913,0.2998,0.3069,0.3075,0.3073,0.3002,0.0,0.0,0.0,0.0,0.0,0.0,0.0,0.0,0.0,0.0,0.0,0.0,0.0,0.0,0.0,0.0,0.0,0.0,0.0,0.0,0.0,0.0,0.0,0.0,0.0,0.0,0.0,0.0,0.0,0.0,0.0,0.0,0.0,0.0,0.0,0.0,0.0,0.0,0.0,0.0,0.0,0.0,0.0,0.0,0.0,0.0,0.0,0.0,0.0,0.0,0.0,0.0,0.0,0.0,0.0,0.0,0.0,0.0,0.0,0.0,0.0,0.0,0.0,0.0,0.0,0.0,0.0,0.0,0.0,0.0,0.0,0.0,0.0,0.0,0.0,0.0,0.0,0.0,0.0,0.0,0.0,0.0,0.0,0.0,0.0,0.0,0.0,0.0,0.0,0.0,0.0,0.0,0.0,0.0,0.0,0.0,0.0,0.0,0.0,0.0,0.0,0.0,0.0,0.0,0.0,0.0,0.0,0.0,0.0,0.2942,0.0,0.3145,0.3185,0.3179,0.3108,0.0,0.0,0.0,0.0,0.0,0.0,0.0,0.0,0.0,0.0,0.0,0.0,0.0,0.0,0.0,0.0,0.0,0.0,0.0,0.0,0.0,0.0,0.0,0.0,0.0,0.0,0.0,0.0,0.0,0.0,0.0,0.0,0.0,0.0,0.0,0.0,0.0,0.0,0.0,0.0,0.0,0.0,0.0,0.0,0.0,0.0,0.0,0.0,0.0,0.0,0.0,0.0,0.0,0.0,0.0,0.0,0.0,0.0,0.0,0.0,0.0,0.0,0.0,0.0,0.0,0.0,0.0,0.0,0.0,0.0,0.0,0.0,0.0,0.0,0.0,0.0,0.0,0.0,0.0,0.0,0.0,0.0,0.0,0.0,0.0,0.0,0.0,0.0,0.0,0.0,0.0,0.0,0.0,0.0,0.0,0.0,0.0,0.0,0.0,0.0,0.0,0.0,0.0,0.0,0.0,0.0,0.0,0.0,0.28,0.2977,0.3153,0.3262,0.3394,0.3262,0.3226,0.0,0.0,0.0,0.0,0.0,0.0,0.0,0.0,0.0,0.0,0.0,0.0,0.0,0.0,0.0,0.0,0.0,0.0,0.0,0.0,0.0,0.0,0.0,0.0,0.0,0.0,0.0,0.0,0.0,0.0,0.0,0.0,0.0,0.0,0.0,0.0,0.0,0.0,0.0,0.0,0.0,0.0,0.0,0.0,0.0,0.0,0.0,0.0,0.0,0.0,0.0,0.0,0.0,0.0,0.0,0.0,0.0,0.0,0.0,0.0,0.0,0.0,0.0,0.0,0.0,0.0,0.0,0.0,0.0,0.0,0.0,0.0,0.0,0.0,0.0,0.0,0.0,0.0,0.0,0.0,0.0,0.0,0.0,0.0,0.0,0.0,0.0,0.0,0.0,0.0,0.0,0.0,0.0,0.0,0.0,0.0,0.0,0.0,0.0,0.0,0.0,0.0,0.0,0.0,0.0,0.0,0.0,0.0,0.0,0.3112,0.3283,0.3351,0.3396,0.3364,0.334,0.0,0.0,0.0,0.0,0.0,0.0,0.0,0.0,0.0,0.0,0.0,0.0,0.0,0.0,0.0,0.0,0.0,0.0,0.0,0.0,0.0,0.0,0.0,0.0,0.0,0.0,0.0,0.0,0.0,0.0,0.0,0.0,0.0,0.0,0.0,0.0,0.0,0.0,0.0,0.0,0.0,0.0,0.0,0.0,0.0,0.0,0.0,0.0,0.0,0.0,0.0,0.0,0.0,0.0,0.0,0.0,0.0,0.0,0.0,0.0,0.0,0.0,0.0,0.0,0.0,0.0,0.0,0.0,0.0,0.0,0.0,0.0,0.0,0.0,0.0,0.0,0.0,0.0,0.0,0.0,0.0,0.0,0.0,0.0,0.0,0.0,0.0,0.0,0.0,0.0,0.0,0.0,0.0,0.0,0.0,0.0,0.0,0.0,0.0,0.0,0.0,0.0,0.0,0.0,0.0,0.0,0.0,0.0,0.0,0.2876,0.3003,0.3171,0.3318,0.334,0.3337,0.3388,0.0,0.0,0.0,0.0,0.0,0.0,0.0,0.0,0.0,0.0,0.0,0.0,0.0,0.0,0.0,0.0,0.0,0.0,0.0,0.0,0.0,0.0,0.0,0.0,0.0,0.0,0.0,0.0,0.0,0.0,0.0,0.0,0.0,0.0,0.0,0.0,0.0,0.0,0.0,0.0,0.0,0.0,0.0,0.0,0.0,0.0,0.0,0.0,0.0,0.0,0.0,0.0,0.0,0.0,0.0,0.0,0.0,0.0,0.0,0.0,0.0,0.0,0.0,0.0,0.0,0.0,0.0,0.0,0.0,0.0,0.0,0.0,0.0,0.0,0.0,0.0,0.0,0.0,0.0,0.0,0.0,0.0,0.0,0.0,0.0,0.0,0.0,0.0,0.0,0.0,0.0,0.0,0.0,0.0,0.0,0.0,0.0,0.0,0.0,0.0,0.0,0.0,0.0,0.0,0.0,0.0,0.0,0.0,0.2291,0.2478,0.2739,0.3145,0.3184,0.3271,0.0,0.0,0.0,0.0,0.0,0.0,0.0,0.0,0.0,0.0,0.0,0.0,0.0,0.0,0.0,0.0,0.0,0.0,0.0,0.0,0.0,0.0,0.0,0.0,0.0,0.0,0.0,0.0,0.0,0.0,0.0,0.0,0.0,0.0,0.0,0.0,0.0,0.0,0.0,0.0,0.0,0.0,0.0,0.0,0.0,0.0,0.0,0.0,0.0,0.0,0.0,0.0,0.0,0.0,0.0,0.0,0.0,0.0,0.0,0.0,0.0,0.0,0.0,0.0,0.0,0.0,0.0,0.0,0.0,0.0,0.0,0.0,0.0,0.0,0.0,0.0,0.0,0.0,0.0,0.0,0.0,0.0,0.0,0.0,0.0,0.0,0.0,0.0,0.0,0.0,0.0,0.0,0.0,0.0,0.0,0.0,0.0,0.0,0.0,0.0,0.0,0.0,0.0,0.0,0.0,0.0,0.0,0.0,0.0,0.2039,0.203,0.2295,0.2834,0.2819,0.299,0.0,0.0,0.0,0.0,0.0,0.0,0.0,0.0,0.0,0.0,0.0,0.0,0.0,0.0,0.0,0.0,0.0,0.0,0.0,0.0,0.0,0.0,0.0,0.0,0.0,0.0,0.0,0.0,0.0,0.0,0.0,0.0,0.0,0.0,0.0,0.0,0.0,0.0,0.0,0.0,0.0,0.0,0.0,0.0,0.0,0.0,0.0,0.0,0.0,0.0,0.0,0.0,0.0,0.0,0.0,0.0,0.0,0.0,0.0,0.0,0.0,0.0,0.0,0.0,0.0,0.0,0.0,0.0,0.0,0.0,0.0,0.0,0.0,0.0,0.0,0.0,0.0,0.0,0.0,0.0,0.0,0.0,0.0,0.0,0.0,0.0,0.0,0.0,0.0,0.0,0.0,0.0,0.0,0.0,0.0,0.0,0.0,0.0,0.0,0.0,0.0,0.0,0.0,0.0,0.0,0.0,0.0,0.0,0.1692,0.1771,0.1662,0.1834,0.2231,0.2491,0.2728,0.0,0.0,0.0,0.0,0.0,0.0,0.0,0.0,0.0,0.0,0.0,0.0,0.0,0.0,0.0,0.0,0.0,0.0,0.0,0.0,0.0,0.0,0.0,0.0,0.0,0.0,0.0,0.0,0.0,0.0,0.0,0.0,0.0,0.0,0.0,0.0,0.0,0.0,0.0,0.0,0.0,0.0,0.0,0.0,0.0,0.0,0.0,0.0,0.0,0.0,0.0,0.0,0.0,0.0,0.0,0.0,0.0,0.0,0.0,0.0,0.0,0.0,0.0,0.0,0.0,0.0,0.0,0.0,0.0,0.0,0.0,0.0,0.0,0.0,0.0,0.0,0.0,0.0,0.0,0.0,0.0,0.0,0.0,0.0,0.0,0.0,0.0,0.0,0.0,0.0,0.0,0.0,0.0,0.0,0.0,0.0,0.0,0.0,0.0,0.0,0.0,0.0,0.0,0.0,0.0,0.0,0.0,0.0,0.1556,0.1354,0.1361,0.1421,0.1594,0.212,0.2491,0.0,0.0,0.0,0.0,0.0,0.0,0.0,0.0,0.0,0.0,0.0,0.0,0.0,0.0,0.0,0.0,0.0,0.0,0.0,0.0,0.0,0.0,0.0,0.0,0.0,0.0,0.0,0.0,0.0,0.0,0.0,0.0,0.0,0.0,0.0,0.0,0.0,0.0,0.0,0.0,0.0,0.0,0.0,0.0,0.0,0.0,0.0,0.0,0.0,0.0,0.0,0.0,0.0,0.0,0.0,0.0,0.0,0.0,0.0,0.0,0.0,0.0,0.0,0.0,0.0,0.0,0.0,0.0,0.0,0.0,0.0,0.0,0.0,0.0,0.0,0.0,0.0,0.0,0.0,0.0,0.0,0.0,0.0,0.0,0.0,0.0,0.0,0.0,0.0,0.0,0.0,0.0,0.0,0.0,0.0,0.0,0.0,0.0,0.0,0.0,0.0,0.0,0.0,0.0,0.0,0.0,0.0,0.0,0.1279,0.1237,0.1268,0.1346,0.1467,0.1659,0.1925,0.0,0.0,0.0,0.0,0.0,0.0,0.0,0.0,0.0,0.0,0.0,0.0,0.0,0.0,0.0,0.0,0.0,0.0,0.0,0.0,0.0,0.0,0.0,0.0,0.0,0.0,0.0,0.0,0.0,0.0,0.0,0.0,0.0,0.0,0.0,0.0,0.0,0.0,0.0,0.0,0.0,0.0,0.0,0.0,0.0,0.0,0.0,0.0,-0.1293,0.0,0.0,0.0,0.0,0.0,0.0,0.0,0.0,0.0,0.0,0.0,0.0,0.0,0.0,0.0,0.0,0.0,0.0,0.0,0.0,0.0,0.0,0.0,0.0,0.0,0.0,0.0,0.0,0.0,0.0,0.0,0.0,0.0,0.0,0.0,0.0,0.0,0.0,0.0,0.0,0.0,0.0,0.0,0.0,0.0,0.0,0.0,0.0,0.0,0.0,0.0,0.0,0.0,0.0,0.0,0.0,0.0,0.0,0.0,0.1136,0.1108,0.1126,0.1136,0.1198,0.1285,0.147,0.0,0.0,0.0,0.0,0.0,0.0,0.0,0.0,0.0,0.0,0.0,0.0,0.0,0.0,0.0,0.0,0.0,0.0,0.0,0.0,0.0,0.0,0.0,0.0,0.0,0.0,0.0,0.0,0.0,0.0,0.0,0.0,0.0,0.0,0.0,0.0,0.0,0.0,0.0,0.0,0.0,0.0,0.0,0.0,0.0,0.0,0.0,0.0,0.0,0.0,0.0,0.0,0.0,0.0,0.0,0.0,0.0,0.0,0.0,0.0,0.0,0.0,0.0,0.0,0.0,0.0,0.0,0.0,0.0,0.0,0.0,0.0,0.0,0.0,0.0,0.0,0.0,0.0,0.0,0.0,0.0,0.0,0.0,0.0,0.0,0.0,0.0,0.0,0.0,0.0,0.0,0.0,0.0,0.0,0.0,0.0,0.0,0.0,0.0,0.0,0.0,0.0,0.0,0.0,0.0,0.0,0.0,0.1233,0.1104,0.1031,0.1038,0.104,0.104,0.1012,0.1164,0.148,0.0,0.0,0.0,0.0,0.0,0.0,0.0,0.0,0.0,0.0,0.0,0.0,0.0,0.0,0.0,0.0,0.0,0.0,0.0,0.0,0.0,0.0,0.0,0.0,0.0,0.0,0.0,0.0,0.0,0.0,0.0,0.0,0.0,0.0,0.0,0.0,0.0,0.0,-0.1156,-0.1498,0.0,0.0,0.0,0.0,0.0,0.0,0.0,0.0,-0.2521,0.0,0.0,0.0,0.0,0.0,0.0,0.0,0.0,0.0,0.0,0.0,0.0,0.0,0.0,0.0,0.0,0.0,0.0,0.0,0.0,0.0,0.0,0.0,0.0,0.0,0.0,0.0,0.0,0.0,0.0,0.0,0.0,0.0,0.0,0.0,0.0,0.0,0.0,0.0,0.0,0.0,0.0,0.0,0.0,0.0,0.0,0.0,0.0,0.0,0.0,0.0,0.0,0.0,0.0,0.0,0.0,0.1227,0.1114,0.1024,0.1034,0.1059,0.1072,0.1071,0.1107,0.1075,0.11,0.0,0.0,0.0,0.0,0.0,0.0,0.0,0.0,0.0,0.0,0.0,0.0,0.0,0.0,0.0,0.0,0.0,0.0,0.0,0.0,0.0,0.0,0.0,0.0,0.0,0.0,0.0,0.0,0.0,0.0,0.0,0.0,0.0,0.0,0.0,0.0,0.0,0.0,0.0,-0.1949,-0.2143,0.0,0.0,0.0,0.0,0.0,0.0,0.0,0.0,-0.283,0.0,0.0,0.0,0.0,0.0,0.0,0.0,0.0,0.0,0.0,0.0,0.0,0.0,0.0,0.0,0.0,0.0,0.0,0.0,0.0,0.0,0.0,0.0,0.0,0.0,0.0,0.0,0.0,0.0,0.0,0.0,0.0,0.0,0.0,0.0,0.0,0.0,0.0,0.0,0.0,0.0,0.0,0.0,0.0,0.0,0.0,0.0,0.0,0.0,0.0,0.0,0.0,0.0,0.0,0.0,0.1086,0.0821,0.0716,0.0726,0.0803,0.0877,0.1079,0.0918,0.0892,0.0,0.0,0.0,0.0,0.0,0.0,0.0,0.0,0.0,0.0,0.0,0.0,0.0,0.0,0.0,0.0,0.0,0.0,0.0,0.0,0.0,0.0,0.0,0.0,0.0,0.0,0.0,0.0,0.0,0.0,0.0,0.0,0.0,0.0,0.0,0.0,0.0,0.0,0.0,0.0,-0.2368,-0.2587,-0.254,0.0,0.0,0.0,0.0,0.0,0.0,-0.3374,-0.3328,0.0,0.0,0.0,0.0,0.0,0.0,0.0,0.0,0.0,0.0,0.0,0.0,0.0,0.0,0.0,0.0,0.0,0.0,0.0,0.0,0.0,0.0,0.0,0.0,0.0,0.0,0.0,0.0,0.0,0.0,0.0,0.0,0.0,0.0,0.0,0.0,0.0,0.0,0.0,0.0,0.0,0.0,0.0,0.0,0.0,0.0,0.0,0.0,0.0,0.0,0.0,0.0,0.0,0.0,0.0,0.0934,0.0513,0.0329,0.0404,0.0405,0.054,0.0877,0.0528,0.0513,0.0,0.0,0.0,0.0,0.0,0.0,0.0,0.0,0.0,0.0,0.0,0.0,0.0,0.0,0.0,0.0,0.0,0.0,0.0,0.0,0.0,0.0,0.0,0.0,0.0,0.0,0.0,0.0,0.0,0.0,0.0,0.0,0.0,0.0,0.0,0.0,0.0,0.0,0.0,0.0,0.0,-0.3026,-0.3041,-0.3278,0.0,0.0,0.0,0.0,-0.3773,-0.3822,0.0,0.0,0.0,0.0,0.0,0.0,0.0,0.0,0.0,0.0,0.0,0.0,0.0,0.0,0.0,0.0,0.0,0.0,0.0,0.0,0.0,0.0,0.0,0.0,0.0,0.0,0.0,0.0,0.0,0.0,0.0,0.0,0.0,0.0,0.0,0.0,0.0,0.0,0.0,0.0,0.0,0.0,0.0,0.0,0.0,0.0,0.0,0.0,0.0,0.0,0.0,0.0,0.0,0.0,0.0,0.0,0.0899,0.033,0.0,0.0067,0.0,0.0067,0.0135,0.0067,0.0065,0.0,0.0,0.0,0.0,0.0,0.0,0.0,0.0,0.0,0.0,0.0,0.0,0.0,0.0,0.0,0.0,0.0,0.0,0.0,0.0,0.0,0.0,0.0,0.0,0.0,0.0,0.0,0.0,0.0,0.0,0.0,0.0,0.0,0.0,0.0,0.0,0.0,0.0,0.0,0.0,0.0,-0.3394,-0.3513,-0.3735,-0.3978,0.0,0.0,-0.3938,-0.3981,-0.3943,0.0,0.0,0.0,0.0,0.0,0.0,0.0,0.0,0.0,0.0,0.0,0.0,0.0,0.0,0.0,0.0,0.0,0.0,0.0,0.0,0.0,0.0,0.0,0.0,0.0,0.0,0.0,0.0,0.0,0.0,0.0,0.0,0.0,0.0,0.0,0.0,0.0,0.0,0.0,0.0,0.0,0.0,0.0,0.0,0.0,0.0,0.0,0.0,0.0,0.0,0.0,0.0,0.0,0.0,0.0,0.0867,0.0839,0.0332,0.0,0.0,0.0,0.0,0.0,0.0,0.0,0.0,0.0,0.0,0.0,0.0,0.0,0.0,0.0,0.0,0.0,0.0,0.0,0.0,0.0,0.0,0.0,0.0,0.0,0.0,0.0,0.0,0.0,0.0,0.0,0.0,0.0,0.0,0.0,0.0,0.0,0.0,0.0,0.0,0.0,0.0,0.0,0.0,0.0,0.0,0.0,0.0,0.0,-0.3905,-0.4039,0.0,0.0,0.0,-0.4327,-0.4409,0.0,0.0,0.0,0.0,0.0,0.0,0.0,0.0,0.0,0.0,0.0,0.0,0.0,0.0,0.0,0.0,0.0,0.0,0.0,0.0,0.0,0.0,0.0,0.0,0.0,0.0,0.0,0.0,0.0,0.0,0.0,0.0,0.0,0.0,0.0,0.0,0.0,0.0,0.0,0.0,0.0,0.0,0.0,0.0,0.0,0.0,0.0,0.0,0.0,0.0,0.0,0.0,0.0,0.0,0.0,0.0,0.0,0.0653,0.0,-0.0344,-0.035,-0.0208,-0.0069,0.0,0.0,0.0,0.0,0.0,0.0,0.0,0.0,0.0,0.0,0.0,0.0,0.0,0.0,0.0,0.0,0.0,0.0,0.0,0.0,0.0,0.0,0.0,0.0,0.0,0.0,0.0,0.0,0.0,-0.0695,0.0,0.0,0.0,0.0,0.0,0.0,0.0,0.0,0.0,0.0,0.0,0.0,0.0,0.0,-0.3758,-0.4213,-0.4337,-0.4395,0.0,0.0,-0.4616,-0.4731,-0.465,-0.4524,0.0,0.0,0.0,0.0,0.0,0.0,0.0,0.0,0.0,0.0,0.0,0.0,0.0,0.0,0.0,0.0,0.0,0.0,0.0,0.0,0.0,0.0,0.0,0.0,0.0,0.0,0.0,0.0,0.0,0.0,0.0,0.0,0.0,0.0,0.0,0.0,0.0,0.0,0.0,0.0,0.0,0.0,0.0,0.0,0.0,0.0,0.0,0.0,0.0,0.0,0.0,0.0,0.0,0.0,0.0,0.0067,-0.0759,-0.1189,-0.1192,-0.0789,-0.0363,0.0,0.0,0.0,0.0,0.0,0.0,0.0,0.0,0.0,0.0,0.0,0.0,0.0,0.0,0.0,0.0,0.0,0.0,0.0,0.0,0.0,0.0,0.0,0.0,0.0,0.0,0.0,0.0,0.0,0.0,0.0,0.0,0.0,0.0,0.0,0.0,0.0,0.0,0.0,0.0,0.0,0.0,0.0,0.0,-0.4181,-0.4443,-0.4585,-0.468,0.0,0.0,-0.4894,-0.4904,-0.4894,-0.4836,-0.4684,0.0,0.0,0.0,0.0,0.0,0.0,0.0,0.0,0.0,0.0,0.0,0.0,0.0,0.0,0.0,0.0,0.0,0.0,0.0,0.0,0.0,0.0,0.0,0.0,0.0,0.0,0.0,0.0,0.0,0.0,0.0,0.0,0.0,0.0,0.0,0.0,0.0,0.0,0.0,0.0,0.0,0.0,0.0,0.0,0.0,0.0,0.0,0.0,0.0,0.0,0.0,0.0,0.0,-0.0065,-0.0759,-0.1115,-0.1281,-0.1322,-0.1097,-0.0955,-0.0821,-0.0509,-0.0214,0.0,0.0,0.0,0.0,0.0,0.0,0.0,0.0,0.0,0.0,0.0,0.0,0.0,0.0,0.0,0.0,0.0,0.0,0.0,0.0,0.0,0.0,0.0,0.0,0.0,0.0,0.0,0.0,-0.1255,-0.1515,-0.2628,0.0,0.0,0.0,0.0,0.0,0.0,0.0,0.0,0.0,0.0,-0.433,-0.4582,-0.4735,0.0,0.0,-0.4938,-0.4948,-0.5036,-0.4975,-0.4897,-0.4843,-0.4704,0.0,0.0,0.0,0.0,0.0,0.0,0.0,0.0,0.0,0.0,0.0,0.0,0.0,0.0,0.0,0.0,0.0,0.0,0.0,0.0,0.0,0.0,0.0,0.0,0.0,0.0,0.0,0.0,0.0,0.0,0.0,0.0,0.0,0.0,0.0,0.0,0.0,0.0,0.0,0.0,0.0,0.0,0.0,0.0,0.0,0.0,0.0,0.0,0.0,0.0,0.0,0.0,-0.067,-0.1331,-0.1281,-0.1315,-0.1437,-0.1424,-0.1354,-0.13,-0.0971,-0.0663,0.0,0.0,0.0,0.0,0.0,0.0,0.0,0.0,0.0,0.0,0.0,0.0,0.0,0.0,0.0,0.0,0.0,0.0,0.0,0.0,0.0,0.0,0.0,0.0,0.0,0.0,0.0,0.0,-0.1816,-0.2334,-0.3464,0.0,0.0,0.0,0.0,0.0,0.0,0.0,0.0,0.0,0.0,-0.4528,-0.4745,-0.4887,-0.502,-0.5114,-0.5087,-0.5084,-0.5182,-0.5114,-0.5036,-0.4989,0.0,0.0,0.0,0.0,0.0,0.0,0.0,0.0,0.0,0.0,0.0,0.0,0.0,0.0,0.0,0.0,0.0,0.0,0.0,0.0,0.0,0.0,0.0,0.0,0.0,0.0,0.0,0.0,0.0,0.0,0.3581,0.0,0.0,0.0,0.0,0.0,0.0,0.0,0.0,0.0,0.0,0.0,0.0,0.0,0.0,0.0,0.0,0.0,0.0,0.0,0.0,0.0,0.0,-0.1297,-0.1333,-0.1327,-0.1437,-0.1669,-0.1628,-0.149,-0.1333,-0.1304,-0.1286,-0.1285,0.0,0.0,0.0,0.0,0.0,0.0,0.0,0.0,0.0,0.0,0.0,0.0,0.0,0.0,0.0,0.0,0.0,0.0,0.0,0.0,0.0,0.0,0.0,0.0,0.0,0.0,-0.2165,-0.2759,-0.3503,0.0,0.0,0.0,0.0,0.0,0.0,0.0,0.0,0.0,0.0,-0.4607,-0.4911,-0.4914,-0.5036,-0.5131,-0.5135,-0.5254,-0.5348,-0.5415,-0.5348,-0.5301,0.0,0.0,0.0,0.0,0.0,0.0,0.0,0.0,0.0,0.0,0.0,0.0,0.0,0.0,0.0,0.0,0.0,0.0,0.0,0.0,0.0,0.0,0.0,0.0,0.0,0.0,0.0,0.4865,0.4409,0.0,0.0,0.0,0.0,0.0,0.0,0.0,0.0,0.0,0.0,0.0,0.1077,0.0958,0.0,0.0,0.0,0.0,0.0,0.0,0.0,0.0,0.0,0.0,0.0,0.0,-0.1415,-0.1697,-0.1652,-0.168,-0.1785,-0.1801,-0.1808,-0.1807,-0.1716,-0.1541,-0.1288,0.0,0.0,0.0,0.0,0.0,0.0,0.0,0.0,0.0,0.0,0.0,0.0,0.0,0.0,0.0,0.0,0.0,0.0,0.0,0.0,0.0,0.0,0.0,0.0,0.0,-0.2432,0.0,0.0,0.0,0.0,0.0,0.0,0.0,0.0,0.0,0.0,0.0,-0.4379,-0.4686,-0.4877,-0.506,-0.506,-0.5186,-0.5284,0.0,0.0,0.0,0.0,0.0,0.0,0.0,0.0,0.0,0.0,0.0,0.0,0.0,0.0,-0.4585,-0.4598,-0.4494,-0.4433,-0.4579,0.0,0.0,0.0,0.0,0.0,0.0,0.0,0.0,0.0,0.0,0.0,0.0,0.0,0.0,0.5239,0.0,0.4643,0.0,0.0,0.0,0.0,0.0,0.0,0.0,0.0,0.0994,0.082,0.0702,0.0905,0.0779,0.0,0.0526,0.0396,0.0,0.0,0.0,0.0,0.0,0.0,0.0,0.0,-0.1319,-0.1893,-0.168,-0.1777,-0.2118,-0.212,-0.22,-0.2357,-0.22,-0.1863,-0.1441,-0.1026,-0.0635,0.0,0.0,0.0,0.0,0.0,0.0,0.0,0.0,0.0,0.0,0.0,0.0,0.0,0.0,0.0,0.0,0.0,0.0,0.0,0.0,0.0,0.0,0.0,-0.3051,0.0,0.0,0.0,0.0,0.0,0.0,0.0,0.0,0.0,-0.4435,-0.4525,-0.4657,-0.4965,-0.5121,-0.5213,-0.5209,0.0,0.0,0.0,0.0,0.0,0.0,0.0,-0.5428,-0.5428,-0.5277,-0.5192,-0.5075,-0.5053,-0.4992,-0.4931,0.0,0.0,-0.4974,-0.4868,-0.4803,-0.4884,-0.4918,-0.4918,-0.4918,-0.4918,-0.4918,0.0,0.0,0.0,0.0,0.0,0.0,0.0,0.0,0.628,0.58,0.0,0.5093,0.0,0.0,0.0,0.0,0.0,0.2249,0.0,0.0,0.1035,0.0657,0.0135,0.0699,0.0708,0.0,0.0,0.0,0.0,0.0,0.0,0.0,0.0,0.0,0.0,0.0,-0.106,-0.1898,-0.1551,-0.1724,-0.251,-0.251,-0.2668,-0.2904,-0.2668,-0.2252,-0.1747,-0.1438,-0.1243,-0.1085,-0.0472,0.0,0.0,0.0,0.0,0.0,0.0,0.0,0.0,0.0,0.0,0.0,0.0,0.0,0.0,0.0,0.0,0.0,0.0,0.0,0.0,-0.3306,0.0,0.0,0.0,0.0,0.0,0.0,0.0,0.0,0.0,0.0,-0.4711,-0.4945,-0.5071,-0.5135,0.0,0.0,0.0,0.0,-0.5428,-0.5428,-0.5428,-0.5428,-0.5428,-0.5428,-0.5428,-0.5428,0.0,0.0,-0.5165,-0.5138,-0.5138,-0.5135,-0.5033,-0.4935,-0.5064,-0.5243,-0.5304,-0.5006,-0.4952,-0.4938,-0.4938,-0.4962,-0.4955,0.9654,0.0,0.0,0.0,0.0,0.7846,0.7372,0.6773,0.6487,0.6009,0.54,0.5292,0.0,0.0,0.0,0.0,0.0,0.0,0.1744,0.1196,0.1154,0.0894,0.0347,0.0286,0.0217,0.0,0.0,0.0,0.0,0.0,0.0,0.0,0.0,0.0,0.0,0.0,-0.1527,-0.2251,-0.2188,-0.2431,-0.2904,-0.2904,-0.2982,-0.3061,-0.2824,-0.2581,-0.2252,-0.2062,-0.1799,-0.154,-0.118,0.0,0.0,0.0,0.0,0.0,0.0,0.0,0.0,0.0,0.0,0.0,0.0,0.0,0.0,0.0,0.0,0.0,0.0,0.0,-0.4127,-0.4287,-0.4433,0.0,0.0,0.0,0.0,0.0,0.0,0.0,0.0,0.0,-0.5195,-0.5143,-0.5169,0.0,0.0,-0.5428,-0.5428,-0.5428,-0.5428,-0.5428,-0.5428,0.0,-0.5428,-0.5428,-0.5428,-0.5428,-0.5428,-0.5411,-0.5301,-0.5294,-0.5294,-0.5294,-0.526,-0.5301,-0.5298,-0.5339,-0.5375,-0.527,-0.5237,-0.5233,-0.5237,-0.5237,-0.5298,1.0303,0.9843,0.9572,0.9053,0.8494,0.8215,0.7696,0.7078,0.6719,0.6224,0.5598,0.5598,0.5276,0.4769,0.4391,0.0,0.0,0.0,0.1962,0.1461,0.1271,0.0996,0.0785,0.0219,0.0,0.0,0.0,0.0,0.0,0.0,0.0,0.0,0.0,0.0,-0.1287,-0.1377,-0.1789,-0.2544,-0.2864,-0.3117,-0.3469,-0.3632,-0.3694,-0.358,-0.3419,-0.3245,-0.2823,-0.2706,-0.2443,-0.2119,-0.1956,-0.1599,0.0,0.0,0.0,0.0,0.0,0.0,0.0,0.0,0.0,0.0,0.0,-0.2158,0.0,0.0,0.0,0.0,-0.3784,-0.4213,-0.4661,-0.4729,0.0,0.0,0.0,0.0,0.0,0.0,0.0,-0.5246,-0.5266,-0.541,-0.5539,-0.5481,-0.5452,-0.5547,-0.5624,-0.5561,-0.5491,0.0,-0.5491,-0.5428,-0.5428,-0.5428,-0.5428,-0.5428,-0.5428,-0.5428,-0.5428,-0.5428,-0.5428,-0.5428,-0.5382,-0.5437,-0.545,-0.5403,-0.5525,-0.5528,-0.5512,-0.5432,-0.5428,-0.5428,-0.5491,-0.554,-0.5649,1.1018,1.0773,1.0071,0.94,0.8816,0.865,0.8153,0.7513,0.7122,0.6593,0.5929,0.5929,0.5659,0.5055,0.4322,0.0,0.3303,0.2737,0.2204,0.1677,0.1315,0.117,0.1172,0.0375,0.0,0.0,0.0,0.0,0.0,0.0,0.0,0.0,-0.0847,-0.1296,-0.1373,-0.1641,-0.2076,-0.277,-0.3339,-0.3784,-0.4118,-0.4536,-0.4573,-0.4313,-0.4311,-0.4023,-0.3542,-0.3297,-0.3108,-0.2889,-0.2725,-0.2418,-0.1981,0.0,0.0,0.0,0.0,0.0,0.0,0.0,0.0,0.0,0.0,0.0,0.0,0.0,0.0,0.0,-0.4387,0.0,-0.4765,-0.4765,0.0,0.0,0.0,-0.5189,-0.5762,-0.5945,-0.5944,-0.5769,0.0,0.0,-0.5935,-0.5954,-0.5954,-0.5958,-0.5958,-0.5822,-0.5683,-0.5617,-0.562,-0.5495,-0.5428,-0.5428,-0.5428,-0.5442,-0.5463,-0.5393,-0.5456,-0.548,-0.5483,-0.5413,-0.5528,-0.5583,-0.5534,-0.5497,-0.5776,-0.5847,-0.5792,-0.5589,-0.5476,-0.554,-0.5681,-0.5852,-0.6015,1.0811,1.0597,1.0063,0.9639,0.9315,0.8949,0.8418,0.7729,0.7455,0.6962,0.6261,0.6261,0.5835,0.513,0.4425,0.387,0.346,0.2812,0.2244,0.1679,0.1488,0.1351,0.1202,0.0693,0.0311,0.0,0.0,0.0,0.0,0.0,0.0,0.0,-0.0963,-0.1522,-0.1925,-0.2293,-0.274,-0.325,-0.3752,-0.418,-0.4536,-0.4617,-0.4691,-0.4582,-0.4582,-0.4449,-0.4105,-0.4021,-0.3899,-0.3579,-0.3434,-0.3224,-0.2801,-0.2714,0.0,0.0,0.0,0.0,0.0,0.0,0.0,0.0,0.0,-0.3313,-0.3732,0.0,-0.4322,0.0,-0.4929,-0.5319,-0.5578,-0.5647,0.0,0.0,-0.5697,-0.5762,-0.6092,-0.6432,-0.6582,-0.6282,-0.6225,-0.6302,-0.6474,-0.6548,-0.6548,-0.6618,-0.6218,-0.5892,-0.5822,-0.5617,-0.555,-0.5756,-0.576,-0.5756,-0.5572,-0.5525,-0.5603,-0.5535,-0.5623,-0.5694,-0.5698,-0.5698,-0.5708,-0.5745,-0.5749,-0.5766,-0.6022,-0.6323,-0.6523,-0.6216,-0.605,-0.5983,-0.6191,-0.622,-0.6321,1.1106,1.082,1.0324,0.9896,0.9523,0.9019,0.8443,0.7801,0.7517,0.7019,0.6376,0.6018,0.5587,0.5156,0.4437,0.388,0.3475,0.3036,0.2387,0.1812,0.1683,0.154,0.1233,0.0781,0.0393,0.0,0.0,0.0,0.0,-0.0399,-0.0646,-0.0661,-0.1169,-0.1678,-0.2265,-0.2606,-0.2957,-0.3325,-0.4302,-0.5011,-0.5271,-0.544,-0.5416,-0.5455,-0.5365,-0.5309,-0.4941,-0.4892,-0.4676,-0.4458,-0.4351,-0.4125,-0.3778,-0.3557,-0.3295,0.0,0.0,0.0,0.0,0.0,0.0,0.0,0.0,0.0,0.0,0.0,-0.4909,-0.5168,-0.5505,-0.5818,-0.602,-0.6083,-0.6152,-0.6218,-0.6067,-0.6067,-0.6605,-0.7091,-0.7227,-0.6942,-0.6872,-0.6937,-0.7064,-0.7068,-0.7068,-0.7134,-0.6745,-0.6416,-0.6284,-0.6013,-0.5881,-0.6017,-0.6226,-0.6312,-0.6021,-0.5974,-0.5965,-0.5972,-0.6033,-0.6086,-0.609,-0.609,-0.6108,-0.6103,-0.5971,-0.5922,-0.6356,-0.6834,-0.706,-0.6826,-0.6748,-0.6691,-0.6558,-0.6653,-0.6852,1.1409,1.1031,1.0588,1.0073,0.9588,0.8979,0.8384,0.7807,0.7444,0.6941,0.6367,0.564,0.5277,0.5207,0.4481,0.3941,0.3644,0.3192,0.2617,0.1886,0.1887,0.173,0.1258,0.0786,0.0393,0.0,0.0,-0.008,-0.0163,-0.0981,-0.1406,-0.1438,-0.1467,-0.183,-0.2356,-0.2741,-0.3082,-0.3486,-0.4963,-0.5902,-0.6086,-0.6257,-0.6377,-0.6359,-0.6353,-0.6202,-0.5895,-0.5703,-0.5465,-0.5267,-0.5165,-0.4974,-0.4709,-0.4535,-0.4291,0.0,-0.3732,0.0,0.0,0.0,0.0,0.0,0.0,0.0,0.0,-0.5157,-0.5627,-0.5954,-0.6148,-0.628,-0.6346,-0.6416,-0.6618,-0.6741,-0.6322,-0.6388,-0.7199,-0.7751,-0.7952,-0.7657,-0.7591,-0.7587,-0.7657,-0.7587,-0.7591,-0.7587,-0.7396,-0.7199,-0.6937,-0.6613,-0.642,-0.637,-0.6687,-0.679,-0.6537,-0.6456,-0.641,-0.641,-0.6444,-0.644,-0.6455,-0.6455,-0.6492,-0.6544,-0.6271,-0.6231,-0.6839,-0.733,-0.7492,-0.7387,-0.746,-0.737,-0.7066,-0.7155,-0.7463,1.1037,1.0812,1.0218,0.9841,0.9539,0.892,0.844,0.7992,0.761,0.7159,0.6474,0.5864,0.5561,0.5484,0.4711,0.4103,0.3736,0.3272,0.2659,0.1887,0.1887,0.173,0.1258,0.0786,0.0397,0.0,0.0,-0.0409,-0.1088,-0.1339,-0.144,-0.1384,-0.1823,-0.2192,-0.2407,0.0,0.0,0.0,-0.5625,-0.6083,-0.6083,-0.6343,-0.6419,-0.6395,-0.6395,0.0,-0.6212,-0.6175,-0.6059,-0.5764,-0.5725,0.0,0.0,0.0,0.0,0.0,0.0,0.0,0.0,0.0,0.0,0.0,-0.6025,-0.5783,-0.5282,-0.5738,-0.6214,-0.6544,-0.6609,-0.6675,-0.7007,-0.7007,-0.7134,-0.7326,-0.6981,-0.6911,-0.7531,-0.8077,-0.8338,-0.8107,-0.8042,-0.8112,-0.8247,-0.8177,-0.8107,-0.8042,-0.7917,-0.7857,-0.7797,-0.7218,-0.6871,-0.7017,-0.7077,-0.6986,-0.6877,-0.6714,-0.6655,-0.6593,-0.6697,-0.6829,-0.6829,-0.6832,-0.684,-0.6889,-0.674,-0.6816,-0.7322,-0.7727,-0.7966,-0.7953,-0.7949,-0.7931,-0.7635,-0.7791,-0.7969,1.1012,0.0,1.0116,0.9614,0.0,0.8703,0.8246,0.7795,0.7484,0.6949,0.6251,0.5792,0.5482,0.5243,0.4696,0.4151,0.3604,0.3137,0.2591,0.1887,0.1808,0.1651,0.1337,0.1034,0.0643,-0.0,-0.0494,-0.0922,-0.1369,-0.1371,-0.1472,-0.1679,-0.1855,-0.2219,-0.2689,-0.3676,-0.4659,-0.5371,-0.5991,-0.6346,-0.6438,-0.6609,-0.6786,-0.6697,-0.6786,0.0,0.0,0.0,0.0,0.0,0.0,0.0,0.0,0.0,0.0,-0.5759,-0.5538,-0.5619,-0.5922,-0.5915,-0.6172,-0.6523,-0.6873,-0.6867,-0.6348,-0.6527,-0.681,-0.7074,-0.7131,-0.7265,-0.7466,-0.7591,-0.7722,-0.7842,-0.7572,-0.7637,-0.8177,-0.8522,-0.8722,-0.8635,-0.8624,-0.863,-0.87,-0.8694,-0.8624,-0.856,-0.8501,-0.8424,-0.8454,-0.7807,-0.7373,-0.7892,-0.7659,-0.7406,-0.7504,-0.7434,-0.735,-0.7366,-0.7427,-0.7476,-0.7484,-0.7484,-0.7484,-0.7484,-0.7322,-0.7322,-0.7714,-0.8115,-0.8354,-0.8259,-0.8331,-0.8399,-0.8399,-0.8399,-0.8475,1.0952,1.0355,0.9919,0.9372,0.8755,0.8417,0.7868,0.7257,0.0,0.0,0.0,0.5634,0.5323,0.5004,0.4538,0.4073,0.3446,0.2979,0.2434,0.1887,0.1736,0.1502,0.1187,0.1296,0.0821,-0.0,-0.0924,-0.1371,-0.14,-0.1488,-0.1589,-0.1882,-0.1973,-0.2331,-0.3136,-0.421,-0.5015,-0.5549,-0.6077,-0.652,-0.6792,-0.6966,-0.7139,-0.7139,-0.7139,-0.7139,-0.7139,-0.7031,-0.7042,-0.7008,-0.6747,-0.6746,-0.6882,-0.6574,-0.649,-0.6718,-0.6556,-0.6576,-0.6828,-0.6895,-0.7056,-0.7343,-0.7762,-0.7798,-0.7522,-0.7433,-0.7546,-0.7751,-0.7841,-0.7917,-0.7982,-0.8132,-0.8301,-0.8366,-0.8226,-0.8355,-0.877,-0.8975,-0.9104,-0.9087,-0.9075,-0.9145,-0.9145,-0.9151,-0.9081,-0.9092,-0.8939,-0.9008,-0.9107,-0.85,-0.8135,-0.8597,-0.8332,-0.8058,-0.8192,-0.8161,-0.8178,-0.8161,-0.8169,-0.8178,-0.8178,-0.8174,-0.8178,-0.8174,-0.7855,-0.7855,-0.8174,-0.857,-0.8732,-0.856,-0.8708,-0.8856,-0.9079,-0.9003,-0.9003,1.0674,1.0469,0.9493,0.9061,0.8885,0.8013,0.7176,0.6493,0.6416,0.6254,0.5864,0.5476,0.5243,0.5004,0.4387,0.3843,0.3368,0.2823,0.2276,0.1889,0.1765,0.1296,0.073,0.1161,0.0847,-0.0,-0.0952,-0.1401,-0.1427,-0.1697,-0.179,-0.1883,-0.242,-0.3226,-0.4121,-0.4656,-0.5277,-0.5994,-0.6257,-0.652,-0.6792,-0.6966,-0.7139,-0.7139,-0.7139,-0.7139,-0.7139,-0.7302,-0.741,-0.7272,-0.7264,-0.7186,-0.7042,-0.704,-0.7107,-0.7107,-0.7253,-0.7472,-0.7833,-0.7905,-0.8206,-0.893,-0.9225,-0.8985,-0.8321,-0.8258,-0.8388,-0.8739,-0.8612,-0.8611,-0.893,-0.8827,-0.8776,-0.8888,-0.8888,-0.8888,-0.9022,-0.9233,-0.9432,-0.946,-0.9454,-0.953,-0.9728,-0.9588,-0.946,-0.9426,-0.9396,-0.9423,-0.9574,-0.9376,-0.9119,-0.915,-0.9001,-0.8878,-0.8841,-0.8703,-0.8632,-0.8627,-0.8627,-0.8627,-0.8632,-0.8632,-0.8627,-0.8627,-0.8304,-0.83,-0.8775,-0.9018,-0.9175,-0.917,-0.9241,-0.9316,-0.969,-0.969,-0.969,1.0372,0.9973,0.9409,0.8884,0.8299,0.725,0.6644,0.6261,0.5789,0.5631,0.555,0.524,0.4927,0.4616,0.4155,0.3608,0.3059,0.2544,0.2162,0.1766,0.156,0.1327,0.0997,0.0764,0.0086,-0.0697,-0.0881,-0.1245,-0.1614,-0.1795,-0.2063,-0.242,-0.3226,-0.3942,-0.4478,-0.5099,-0.563,-0.6166,-0.6343,-0.6609,-0.6969,-0.7051,-0.7139,-0.7139,-0.7139,-0.7143,-0.7323,-0.7415,-0.7559,-0.757,-0.7582,-0.7573,-0.757,-0.7552,-0.7638,-0.7795,-0.7944,-0.8169,-0.8551,-0.8784,-0.9165,-0.969,-0.9841,-0.983,-0.9531,-0.9325,-0.9333,-0.9471,-0.934,-0.928,-0.9344,-0.9363,-0.9367,-0.928,-0.9262,-0.9326,-0.9536,-0.9676,-0.9804,-0.9786,-0.9786,-0.9856,-0.9983,-0.9849,-0.9786,-0.9823,-1.0,-1.0215,-1.0145,-1.0171,-1.0194,-1.0005,-0.9632,-0.9372,-0.9311,-0.916,-0.9013,-0.9013,-0.9008,-0.9013,-0.9013,-0.9013,-0.9013,-0.9008,-0.8841,-0.8912,-0.9306,-0.9706,-0.9868,-0.9771,-0.9771,-0.9922,-1.0143,-1.0368,-1.0519,1.0139,0.9531,0.9239,0.844,0.7433,0.6592,0.6136,0.5948,0.5318,0.5021,0.5042,0.4862,0.4618,0.4231,0.3783,0.3242,0.2777,0.2269,0.1967,0.1726,0.1344,0.1188,0.1191,0.0174,-0.0701,-0.1317,-0.1069,-0.1256,-0.1885,-0.1973,-0.242,-0.3226,-0.3941,-0.4478,-0.4928,-0.5455,-0.5897,-0.634,-0.6428,-0.6697,-0.7051,-0.7139,-0.7139,-0.7143,-0.7231,-0.7323,-0.7591,-0.768,-0.7768,-0.8013,-0.7912,-0.7978,-0.825,-0.8111,-0.8214,-0.8484,-0.8627,-0.8851,-0.915,-0.9609,-0.9992,-1.0368,-1.0368,-1.0519,-1.072,-1.0495,-1.0233,-1.021,-1.0082,-0.9985,-0.9947,-0.9928,-0.9982,-0.9768,-0.9664,-0.9703,-0.9983,-1.006,-1.0123,-1.0053,-1.0047,-1.011,-1.0117,-1.0117,-1.0117,-1.0236,-1.067,-1.0847,-1.0677,-1.0985,-1.1031,-1.0749,-1.0223,-0.9846,-0.9771,-0.9695,-0.962,-0.9549,-0.962,-0.962,-0.962,-0.9544,-0.9544,-0.9614,-0.9528,-0.9523,-0.9765,-1.0246,-1.0477,-1.0299,-1.0218,-1.0293,-1.0594,-1.0962,-1.1111,0.9753,0.9305,0.8687,0.7729,0.6652,0.6224,0.5747,0.5174,0.5004,0.4752,0.4353,0.4196,0.4084,0.3775,0.3292,0.2835,0.2597,0.199,0.1759,0.1597,0.0944,0.0868,0.1043,-0.0443,-0.1341,-0.1431,-0.1613,-0.1795,-0.1973,-0.251,-0.3226,-0.403,-0.4297,-0.4746,-0.5544,-0.5719,-0.6074,-0.6704,-0.6792,-0.6877,-0.7054,-0.7139,-0.7231,-0.7415,-0.7503,-0.7595,-0.7852,-0.8025,-0.8285,-0.8536,-0.8533,-0.8602,-0.8841,-0.8875,-0.8902,-0.8941,-0.9311,-0.9614,-0.9825,-1.0207,-1.0588,-1.0962,-1.1037,-1.1186,-1.1484,-1.1533,-1.1366,-1.1101,-1.09,-1.0885,-1.1049,-1.0716,-1.0438,-1.0369,-1.0147,-0.9983,-1.0066,-1.034,-1.0474,-1.0314,-1.0244,-1.0301,-1.0461,-1.0424,-1.0484,-1.0782,-1.107,-1.1384,-1.1493,-1.1508,-1.1632,-1.1416,-1.0968,-1.0438,-1.0368,-1.0363,-1.0293,-1.0293,-1.0368,-1.0293,-1.0218,-1.0288,-1.0363,-1.0212,-1.004,-0.9959,-1.0363,-1.0767,-1.0923,-1.0674,-1.0588,-1.0588,-1.0962,-1.1329,-1.1484,0.9082,0.864,0.8218,0.7364,0.6328,0.5823,0.5268,0.4735,0.4489,0.4188,0.3804,0.3366,0.327,0.3433,0.2974,0.2571,0.2242,0.1868,0.1629,0.1462,0.1141,0.062,-0.0355,-0.0982,-0.1525,-0.1705,-0.1795,-0.2153,-0.2599,-0.3314,-0.3941,-0.4297,-0.4746,-0.5191,-0.5722,-0.5988,-0.6343,-0.6704,-0.6877,-0.7146,-0.7323,-0.7323,-0.7415,-0.7507,-0.7683,-0.794,-0.8288,-0.8372,-0.8636,-0.8982,-0.9158,-0.921,-0.9173,-0.9448,-0.9544,-0.9565,-0.9836,-1.0126,-1.034,-1.0651,-1.1031,-1.1323,-1.1403,-1.1558,-1.1706,-1.1781,-1.1781,-1.1694,-1.1458,-1.1411,-1.1312,-1.1224,-1.1099,-1.0924,-1.058,-1.0406,-1.0549,-1.0611,-1.0581,-1.0498,-1.0498,-1.0578,-1.0795,-1.0896,-1.1101,-1.1401,-1.1598,-1.1775,-1.1964,-1.1935,-1.1942,-1.1961,-1.1577,-1.1111,-1.0887,-1.0663,-1.0513,-1.0513,-1.0513,-1.0513,-1.0513,-1.0513,-1.0513,-1.0669,-1.049,-1.0479,-1.0956,-1.1192,-1.1353,-1.1186,-1.1186,-1.126,-1.1409,-1.1706,-1.1781,0.8292,0.776,0.7404,0.6708,0.5798,0.5283,0.4725,0.4283,0.3948,0.3624,0.3223,0.2801,0.2725,0.2821,0.2554,0.2207,0.1957,0.1735,0.1403,0.0967,0.098,0.0179,-0.1166,-0.1436,-0.1615,-0.1885,-0.2153,-0.2599,-0.3315,-0.3942,-0.4389,-0.4656,-0.5191,-0.5633,-0.5897,-0.6343,-0.6612,-0.6881,-0.7143,-0.7411,-0.7683,-0.7683,-0.768,-0.768,-0.794,-0.8292,-0.8636,-0.8811,-0.9074,-0.9428,-0.9633,-0.9774,-0.9668,-0.9982,-1.0156,-1.0257,-1.0351,-1.0565,-1.0771,-1.1099,-1.1409,-1.17,-1.1781,-1.1781,-1.1855,-1.2003,-1.2077,-1.2077,-1.1929,-1.1758,-1.167,-1.1631,-1.1565,-1.1348,-1.1066,-1.0889,-1.1096,-1.0909,-1.0815,-1.0795,-1.0855,-1.0862,-1.1096,-1.1349,-1.163,-1.181,-1.1937,-1.2044,-1.2265,-1.2164,-1.209,-1.2264,-1.2016,-1.1639,-1.1335,-1.1111,-1.0812,-1.0812,-1.0887,-1.0887,-1.0812,-1.0812,-1.0812,-1.1105,-1.0932,-1.0932,-1.1329,-1.1639,-1.1793,-1.1713,-1.1706,-1.1706,-1.1774,-1.1922,-1.2077,0.7499,0.6792,0.6077,0.5476,0.4851,0.4679,0.4112,0.3377,0.3369,0.2978,0.2601,0.2606,0.2457,0.1959,0.1836,0.1822,0.1741,0.1506,0.0894,0.0179,0.009,-0.0179,-0.0718,-0.1525,-0.1885,-0.2063,-0.251,-0.3224,-0.4121,-0.4297,-0.4656,-0.5282,-0.5544,-0.5897,-0.634,-0.6612,-0.6972,-0.7326,-0.7415,-0.7595,-0.7852,-0.8113,-0.8201,-0.8201,-0.8464,-0.864,-0.8907,-0.9345,-0.9689,-0.9951,-1.0188,-1.0339,-1.0524,-1.0525,-1.0678,-1.0958,-1.0789,-1.0771,-1.1137,-1.1545,-1.1948,-1.2177,-1.2083,-1.2077,-1.2157,-1.2231,-1.2231,-1.2305,-1.2224,-1.2211,-1.2164,-1.1972,-1.1904,-1.1844,-1.1583,-1.143,-1.1341,-1.1356,-1.1383,-1.1356,-1.1336,-1.1356,-1.141,-1.1663,-1.183,-1.1937,-1.2111,-1.2278,-1.2285,-1.2305,-1.2305,-1.2238,-1.2157,-1.1922,-1.1706,-1.1484,-1.1558,-1.1484,-1.1409,-1.1558,-1.1632,-1.1632,-1.1626,-1.1626,-1.1471,-1.1545,-1.1706,-1.1868,-1.1948,-1.1948,-1.1929,-1.2003,-1.2003,-1.215,-1.2231,0.6254,0.5633,0.5186,0.463,0.4076,0.3986,0.3617,0.3071,0.3069,0.273,0.2393,0.2306,0.1871,0.0986,0.0712,0.0798,0.1064,0.0715,0.0359,-0.009,-0.0628,-0.1076,-0.1436,-0.1795,-0.2153,-0.2511,-0.2778,-0.3403,-0.43,-0.4921,-0.5277,-0.5633,-0.5985,-0.6343,-0.6612,-0.6881,-0.7146,-0.7507,-0.7683,-0.7944,-0.8288,-0.8376,-0.8548,-0.8723,-0.8732,-0.9082,-0.9607,-0.9781,-1.0125,-1.0641,-1.0809,-1.0858,-1.0832,-1.0886,-1.1018,-1.1285,-1.1323,-1.1391,-1.1613,-1.1935,-1.2177,-1.2318,-1.2231,-1.2231,-1.2305,-1.2305,-1.2305,-1.2305,-1.2305,-1.2305,-1.2285,-1.2198,-1.2144,-1.2111,-1.2046,-1.1864,-1.1823,-1.1861,-1.182,-1.1532,-1.1577,-1.171,-1.1764,-1.1964,-1.2138,-1.2151,-1.2238,-1.2291,-1.2305,-1.2305,-1.2305,-1.2305,-1.2231,-1.2157,-1.215,-1.1855,-1.1706,-1.1706,-1.1632,-1.1706,-1.1706,-1.1781,-1.1706,-1.1855,-1.1848,-1.1848,-1.1929,-1.2083,-1.217,-1.217,-1.2157,-1.2157,-1.2231,-1.2231,-1.2305,0.5099,0.4565,0.4474,0.403,0.3409,0.3409,0.2962,0.2334,0.2155,0.1885,0.1525,0.1525,0.1076,0.0269,-0.0359,-0.0538,-0.0269,-0.0269,-0.0359,-0.0628,-0.1256,-0.1795,-0.2064,-0.2153,-0.251,-0.2957,-0.3224,-0.3849,-0.4743,-0.5364,-0.5808,-0.5985,-0.6343,-0.67,-0.6877,-0.7146,-0.7415,-0.7676,-0.794,-0.8288,-0.864,-0.8811,-0.8982,-0.9152,-0.9336,-0.9607,-1.0038,-1.0294,-1.0636,-1.1063,-1.1252,-1.1338,-1.1101,-1.1206,-1.1409,-1.1552,-1.1632,-1.1768,-1.1996,-1.2238,-1.2318,-1.2459,-1.2378,-1.2452,-1.2452,-1.2526,-1.2452,-1.2526,-1.2526,-1.2526,-1.2526,-1.2526,-1.2452,-1.2358,-1.229,-1.2254,-1.2076,-1.2161,-1.2073,-1.1841,-1.1897,-1.1997,-1.2031,-1.2184,-1.2271,-1.2305,-1.2305,-1.2305,-1.2305,-1.2305,-1.2305,-1.2305,-1.2305,-1.2305,-1.2231,-1.2077,-1.2003,-1.1929,-1.1929,-1.1855,-1.1861,-1.1855,-1.1929,-1.2003,-1.2077,-1.2077,-1.215,-1.2305,-1.2305,-1.2305,-1.2305,-1.2231,-1.2305,-1.2305,-1.2305,0.3762,0.3676,0.3676,0.3318,0.2782,0.2694,0.2064,0.1076,0.0718,0.0359,0.0,-0.0,-0.009,-0.0359,-0.1525,-0.2064,-0.1795,-0.1166,-0.1256,-0.1795,-0.1885,-0.2155,-0.2512,-0.2778,-0.3047,-0.3405,-0.403,-0.4743,-0.5633,-0.5719,-0.5985,-0.6428,-0.67,-0.6966,-0.7139,-0.7411,-0.7764,-0.8113,-0.846,-0.8732,-0.8907,-0.9345,-0.9506,-0.9483,-1.0106,-1.0381,-1.0212,-1.0895,-1.1241,-1.1386,-1.1539,-1.1584,-1.154,-1.157,-1.1781,-1.1929,-1.1835,-1.1916,-1.2224,-1.2305,-1.2459,-1.2606,-1.2599,-1.268,-1.282,-1.2826,-1.2826,-1.282,-1.2826,-1.29,-1.2826,-1.282,-1.2746,-1.2378,-1.2331,-1.2251,-1.2338,-1.2278,-1.2285,-1.2238,-1.2251,-1.2291,-1.2298,-1.2291,-1.2305,-1.2305,-1.2305,-1.2305,-1.2305,-1.2305,-1.2305,-1.2298,-1.2305,-1.2378,-1.2298,-1.2298,-1.2298,-1.2298,-1.2224,-1.2224,-1.2224,-1.2224,-1.2231,-1.2378,-1.2378,-1.2378,-1.2378,-1.2532,-1.2452,-1.2452,-1.2378,-1.2378,-1.2452,-1.2452,-1.2378,0.3141,0.3051,0.2242,0.1614,0.1256,0.0987,0.0538,-0.0,-0.0359,-0.0897,-0.1436,-0.1525,-0.1525,-0.1795,-0.2424,-0.2604,-0.2424,-0.2241,-0.2332,-0.2513,-0.2424,-0.2512,-0.2959,-0.3229,-0.3764,-0.4387,-0.501,-0.5455,-0.5991,-0.6257,-0.6612,-0.6877,-0.7146,-0.7415,-0.7676,-0.8025,-0.8376,-0.8464,-0.8907,-0.9257,-0.9607,-0.9777,-0.9941,-1.0265,-1.0794,-1.1338,-1.1813,-1.1688,-1.1757,-1.2015,-1.2027,-1.2071,-1.1905,-1.1947,-1.1935,-1.2009,-1.207,-1.2218,-1.2452,-1.2686,-1.2767,-1.2833,-1.2826,-1.282,-1.29,-1.29,-1.2973,-1.29,-1.29,-1.29,-1.29,-1.29,-1.29,-1.2746,-1.2498,-1.2425,-1.2673,-1.2599,-1.2452,-1.2305,-1.2305,-1.2305,-1.2305,-1.2305,-1.2305,-1.2305,-1.2305,-1.2305,-1.2305,-1.2305,-1.2305,-1.2305,-1.2378,-1.2526,-1.2526,-1.2526,-1.2599,-1.2526,-1.2452,-1.2445,-1.2445,-1.2526,-1.2526,-1.2599,-1.2673,-1.268,-1.268,-1.268,-1.2599,-1.2673,-1.268,-1.2673,-1.2673,-1.2599,-1.2526,0.1974,0.1705,0.0807,0.0269,-0.009,-0.0718,-0.1166,-0.1435,-0.1704,-0.2062,-0.2422,-0.2422,-0.2512,-0.2691,-0.2962,-0.3053,-0.296,-0.3226,-0.3496,-0.3501,-0.3051,-0.3139,-0.3674,-0.4123,-0.4567,-0.5188,-0.5633,-0.608,-0.6523,-0.6792,-0.7054,-0.7411,-0.7591,-0.7852,-0.8116,-0.846,-0.8723,-0.8986,-0.934,-0.9777,-1.0125,-1.0381,-1.0539,-1.0687,-1.1305,-1.2123,-1.2857,-1.2478,-1.2277,-1.2468,-1.2539,-1.2406,-1.2113,-1.21,-1.2157,-1.2224,-1.2298,-1.2439,-1.2673,-1.2928,-1.3155,-1.3134,-1.3127,-1.3193,-1.3258,-1.3331,-1.3331,-1.3331,-1.3404,-1.3331,-1.3331,-1.3331,-1.3339,-1.3331,-1.2872,-1.2725,-1.2987,-1.2907,-1.2673,-1.2599,-1.2532,-1.2519,-1.2526,-1.2526,-1.2532,-1.2532,-1.2526,-1.2526,-1.2526,-1.2526,-1.2526,-1.2526,-1.2599,-1.2673,-1.2753,-1.2826,-1.29,-1.2826,-1.268,-1.2673,-1.2673,-1.2673,-1.2753,-1.2753,-1.2826,-1.2994,-1.2994,-1.2907,-1.2826,-1.29,-1.2973,-1.29,-1.282,-1.2753,-1.2753,0.0179,-0.0179,-0.0538,-0.0896,-0.1256,-0.2333,-0.2784,-0.2963,-0.3139,-0.3138,-0.3047,-0.3047,-0.3047,-0.3136,-0.3585,-0.3764,-0.3765,-0.421,-0.4478,-0.448,-0.421,-0.4121,-0.4567,-0.5102,-0.5544,-0.5811,-0.608,-0.6523,-0.7054,-0.7231,-0.7408,-0.7852,-0.8028,-0.8201,-0.8552,-0.8636,-0.9074,-0.9515,-0.9864,-1.0294,-1.0636,-1.1068,-1.1133,-1.0924,-1.1821,-1.2631,-1.318,-1.3118,-1.2905,-1.2759,-1.2719,-1.2538,-1.2214,-1.2224,-1.2378,-1.2526,-1.2432,-1.2579,-1.29,-1.3316,-1.3543,-1.3572,-1.3564,-1.371,-1.3912,-1.3985,-1.3985,-1.3992,-1.4065,-1.4057,-1.4057,-1.4057,-1.4065,-1.3985,-1.3397,-1.32,-1.3396,-1.3148,-1.2973,-1.29,-1.29,-1.29,-1.2826,-1.2826,-1.2826,-1.2826,-1.2826,-1.282,-1.282,-1.2826,-1.29,-1.29,-1.2893,-1.2973,-1.3053,-1.3258,-1.3331,-1.3331,-1.3193,-1.3112,-1.3039,-1.3039,-1.3025,-1.3032,-1.3119,-1.3221,-1.3302,-1.3273,-1.3193,-1.3266,-1.3193,-1.2973,-1.2973,-1.3046,-1.2973,-0.1166,-0.2155,-0.2244,-0.2422,-0.2689,-0.3229,-0.3409,-0.3497,-0.3853,-0.4032,-0.3942,-0.3942,-0.3939,-0.4028,-0.4378,-0.465,-0.4736,-0.5095,-0.5366,-0.5455,-0.5633,-0.5633,-0.5725,-0.5988,-0.6343,-0.6694,-0.6962,-0.7319,-0.7676,-0.7852,-0.8113,-0.8372,-0.8556,-0.8736,-0.9082,-0.9423,-0.9689,-0.9951,-1.0463,-1.0809,-1.1149,-1.1413,-1.1655,-1.1707,-1.2254,-1.2875,-1.33,-1.3284,-1.3149,-1.2862,-1.2621,-1.2483,-1.2277,-1.2378,-1.2526,-1.2599,-1.2739,-1.2886,-1.3353,-1.3689,-1.3908,-1.3928,-1.3912,-1.3985,-1.4057,-1.4209,-1.4281,-1.4353,-1.4425,-1.4489,-1.4497,-1.4497,-1.4346,-1.4106,-1.3897,-1.3702,-1.3579,-1.3426,-1.3273,-1.2973,-1.2973,-1.2973,-1.2973,-1.2973,-1.2973,-1.2973,-1.2973,-1.2973,-1.3046,-1.3046,-1.3119,-1.3119,-1.3119,-1.3273,-1.3419,-1.3702,-1.384,-1.384,-1.3768,-1.3695,-1.3622,-1.3622,-1.3528,-1.3498,-1.3542,-1.3717,-1.379,-1.3848,-1.3775,-1.363,-1.363,-1.3557,-1.363,-1.363,-1.3411,-0.2601,-0.323,-0.3318,-0.3496,-0.3849,-0.4121,-0.4302,-0.4389,-0.4743,-0.4832,-0.4921,-0.4921,-0.4896,-0.4861,-0.5292,-0.5555,-0.5561,-0.5996,-0.6198,-0.6343,-0.6786,-0.6789,-0.6612,-0.6786,-0.7048,-0.7404,-0.7669,-0.7937,-0.8201,-0.838,-0.8644,-0.8907,-0.9082,-0.9345,-0.9602,-0.9951,-1.0299,-1.0554,-1.0982,-1.1327,-1.1757,-1.2015,-1.2174,-1.2322,-1.2766,-1.3099,-1.3297,-1.3287,-1.3167,-1.2903,-1.2692,-1.2543,-1.2412,-1.2526,-1.268,-1.2826,-1.3046,-1.3273,-1.3572,-1.3965,-1.4183,-1.4289,-1.4274,-1.4418,-1.4561,-1.4705,-1.4776,-1.4784,-1.4856,-1.4848,-1.4848,-1.4848,-1.4768,-1.453,-1.4545,-1.4353,-1.4015,-1.387,-1.363,-1.3477,-1.3404,-1.3404,-1.3404,-1.3404,-1.3404,-1.3404,-1.3477,-1.3477,-1.3477,-1.3404,-1.3404,-1.3411,-1.3484,-1.3702,-1.3855,-1.4065,-1.4201,-1.4274,-1.4346,-1.4281,-1.4129,-1.4057,-1.397,-1.3875,-1.4049,-1.4137,-1.4289,-1.4289,-1.3992,-1.3992,-1.4065,-1.4137,-1.4057,-1.4065,-1.3848,-0.3857,-0.3765,-0.403,-0.4383,-0.4828,-0.5097,-0.5277,-0.5547,-0.5719,-0.5794,-0.578,-0.5786,-0.5711,-0.562,-0.6129,-0.6303,-0.6303,-0.6806,-0.707,-0.732,-0.7629,-0.772,-0.758,-0.758,-0.7757,-0.8025,-0.8201,-0.8456,-0.8632,-0.8903,-0.9174,-0.9524,-0.9602,-0.9864,-1.0125,-1.0381,-1.0722,-1.1241,-1.1499,-1.1843,-1.2277,-1.2619,-1.2784,-1.2845,-1.3128,-1.3336,-1.3343,-1.3227,-1.3097,-1.2864,-1.2775,-1.2695,-1.262,-1.2673,-1.2826,-1.32,-1.3419,-1.3645,-1.3935,-1.4232,-1.4441,-1.4641,-1.4713,-1.4856,-1.5141,-1.5213,-1.5275,-1.5275,-1.5275,-1.5346,-1.5346,-1.5346,-1.5275,-1.5188,-1.5259,-1.5078,-1.4761,-1.4377,-1.4129,-1.4122,-1.4129,-1.4137,-1.4129,-1.4129,-1.4129,-1.3768,-1.384,-1.3912,-1.3912,-1.3912,-1.3985,-1.4057,-1.4057,-1.4137,-1.4281,-1.4346,-1.4497,-1.4641,-1.4856,-1.4784,-1.4633,-1.4553,-1.4338,-1.4266,-1.4482,-1.4577,-1.4681,-1.4601,-1.4353,-1.4346,-1.4489,-1.4418,-1.4274,-1.4353,-1.4209,-0.4743,-0.5015,-0.5104,-0.5369,-0.5813,-0.5988,-0.6251,-0.6517,-0.6694,-0.6718,-0.6637,-0.6618,-0.6534,-0.6412,-0.6829,-0.7083,-0.7166,-0.7507,-0.7915,-0.8321,-0.8508,-0.8858,-0.886,-0.8798,-0.8636,-0.8732,-0.9082,-0.9157,-0.9148,-0.9589,-0.9946,-0.9941,-1.0294,-1.0554,-1.0722,-1.0982,-1.1241,-1.1671,-1.21,-1.2448,-1.2619,-1.3052,-1.33,-1.3341,-1.3432,-1.3506,-1.3446,-1.3226,-1.301,-1.2858,-1.2783,-1.2762,-1.284,-1.2973,-1.32,-1.3419,-1.3725,-1.4015,-1.4369,-1.4665,-1.4896,-1.507,-1.5213,-1.5355,-1.5426,-1.5709,-1.585,-1.5921,-1.5991,-1.5982,-1.5982,-1.5921,-1.585,-1.5842,-1.5771,-1.5638,-1.5468,-1.5023,-1.4713,-1.4561,-1.4497,-1.4497,-1.4353,-1.4353,-1.4281,-1.4201,-1.4201,-1.4353,-1.4425,-1.4418,-1.4489,-1.4561,-1.4649,-1.4721,-1.4776,-1.4919,-1.5062,-1.5141,-1.5284,-1.5426,-1.5204,-1.5125,-1.4982,-1.4911,-1.4974,-1.5078,-1.5182,-1.5095,-1.4919,-1.4911,-1.4911,-1.4911,-1.4848,-1.4784,-1.4713,-0.5805,-0.6077,-0.6169,-0.6435,-0.6877,-0.7054,-0.7316,-0.7559,-0.7581,-0.7598,-0.7506,-0.7436,-0.7307,-0.7326,-0.7647,-0.7809,-0.7996,-0.8307,-0.8634,-0.8892,-0.9165,-0.9527,-0.9937,-0.9904,-0.9751,-0.9666,-0.9777,-0.985,-1.0014,-1.0279,-1.0727,-1.0906,-1.1073,-1.116,-1.1327,-1.1671,-1.1929,-1.2186,-1.2619,-1.2966,-1.3052,-1.3307,-1.3646,-1.3721,-1.3694,-1.3608,-1.3388,-1.323,-1.3126,-1.3058,-1.3053,-1.3046,-1.3193,-1.3266,-1.3484,-1.3775,-1.4072,-1.4297,-1.4649,-1.5015,-1.5309,-1.5505,-1.5638,-1.578,-1.585,-1.6061,-1.6211,-1.6211,-1.6272,-1.6272,-1.6272,-1.6272,-1.6211,-1.6211,-1.6132,-1.5991,-1.5938,-1.5513,-1.5078,-1.4919,-1.4919,-1.4848,-1.4784,-1.4784,-1.4784,-1.4776,-1.4776,-1.4848,-1.4768,-1.484,-1.4919,-1.4999,-1.5237,-1.5309,-1.5355,-1.5488,-1.57,-1.5771,-1.585,-1.5921,-1.585,-1.5771,-1.563,-1.5551,-1.5401,-1.5488,-1.5584,-1.5568,-1.5488,-1.5409,-1.5409,-1.548,-1.5409,-1.5338,-1.5204,-0.7044,-0.7129,-0.7312,-0.7669,-0.8025,-0.7994,-0.8237,-0.8649,-0.8487,-0.8295,-0.8262,-0.8115,-0.8116,-0.8211,-0.8339,-0.8571,-0.8922,-0.9105,-0.9351,-0.9428,-0.9842,-1.0147,-1.0466,-1.0689,-1.0863,-1.0565,-1.0621,-1.0626,-1.0702,-1.1063,-1.1602,-1.2055,-1.1946,-1.1935,-1.202,-1.2277,-1.2534,-1.2796,-1.3045,-1.3222,-1.3476,-1.3639,-1.3858,-1.3967,-1.3789,-1.3636,-1.3467,-1.3367,-1.3369,-1.3368,-1.3492,-1.3564,-1.3637,-1.3637,-1.3775,-1.4129,-1.4425,-1.4641,-1.4927,-1.5292,-1.5647,-1.5867,-1.607,-1.6272,-1.6342,-1.6482,-1.6551,-1.656,-1.656,-1.656,-1.6491,-1.656,-1.656,-1.6551,-1.6473,-1.6403,-1.6272,-1.5991,-1.5709,-1.5488,-1.5417,-1.5426,-1.5417,-1.5346,-1.5346,-1.5275,-1.5346,-1.5346,-1.5267,-1.533,-1.5409,-1.5568,-1.5735,-1.5805,-1.5859,-1.585,-1.6053,-1.6272,-1.6342,-1.6421,-1.6491,-1.6482,-1.6403,-1.5903,-1.5833,-1.5912,-1.6,-1.5929,-1.5921,-1.5912,-1.5833,-1.5842,-1.5833,-1.5903,-1.5771,-0.8109,-0.8281,-0.854,-0.8807,-0.9052,-0.8991,-0.9181,-0.932,-0.9133,-0.895,-0.8903,-0.8843,-0.8793,-0.888,-0.9066,-0.9377,-0.9642,-0.9792,-0.9942,-1.0058,-1.0488,-1.0852,-1.1128,-1.1416,-1.1712,-1.179,-1.1606,-1.1246,-1.1112,-1.1655,-1.2386,-1.2936,-1.2729,-1.2619,-1.2711,-1.2966,-1.3052,-1.3307,-1.3476,-1.3639,-1.3769,-1.3968,-1.4172,-1.4107,-1.3745,-1.36,-1.3726,-1.363,-1.3616,-1.3928,-1.3985,-1.4129,-1.4281,-1.4137,-1.4209,-1.4489,-1.4641,-1.4927,-1.5434,-1.5655,-1.5929,-1.614,-1.6412,-1.6621,-1.676,-1.6899,-1.7038,-1.7185,-1.7185,-1.7254,-1.7332,-1.7185,-1.7254,-1.7254,-1.7097,-1.6959,-1.683,-1.6621,-1.6482,-1.6202,-1.6132,-1.5991,-1.585,-1.5771,-1.5771,-1.57,-1.5771,-1.5771,-1.5771,-1.5833,-1.5974,-1.6132,-1.6298,-1.6289,-1.6211,-1.6272,-1.6412,-1.6691,-1.6839,-1.6978,-1.7056,-1.7263,-1.7116,-1.6542,-1.6245,-1.6254,-1.6272,-1.636,-1.6421,-1.6412,-1.6342,-1.6272,-1.6333,-1.6403,-1.6263,-0.9248,-0.9506,-0.9593,-0.9794,-0.9952,-0.9936,-0.9986,-1.0033,-0.9817,-0.9662,-0.9635,-0.9529,-0.9571,-0.9781,-0.9836,-1.0143,-1.0443,-1.0513,-1.0587,-1.076,-1.1012,-1.1366,-1.1679,-1.2023,-1.2355,-1.2556,-1.2486,-1.2188,-1.1855,-1.2431,-1.3052,-1.3345,-1.3234,-1.3137,-1.3228,-1.3313,-1.3561,-1.373,-1.3886,-1.3975,-1.3993,-1.4117,-1.4111,-1.4031,-1.3851,-1.3751,-1.3918,-1.4048,-1.4072,-1.4281,-1.4418,-1.4569,-1.4713,-1.4848,-1.4856,-1.4919,-1.507,-1.5363,-1.5788,-1.6,-1.6342,-1.6551,-1.6821,-1.7038,-1.7185,-1.7323,-1.7382,-1.7461,-1.7461,-1.7461,-1.7461,-1.7539,-1.7461,-1.7461,-1.7451,-1.7382,-1.7254,-1.7185,-1.7047,-1.6839,-1.6491,-1.6272,-1.6202,-1.6132,-1.6132,-1.6132,-1.6202,-1.6202,-1.6272,-1.6254,-1.6385,-1.663,-1.6797,-1.6778,-1.6769,-1.6769,-1.676,-1.7038,-1.7176,-1.7323,-1.7401,-1.7539,-1.7401,-1.7116,-1.689,-1.6664,-1.689,-1.7056,-1.6978,-1.6908,-1.6908,-1.6899,-1.6899,-1.6899,-1.6769,-1.0333,-1.0419,-1.0509,-1.0657,-1.0752,-1.0771,-1.0729,-1.0696,-1.045,-1.0341,-1.039,-1.0312,-1.0455,-1.0669,-1.0887,-1.1037,-1.1335,-1.1335,-1.1347,-1.1428,-1.1589,-1.1853,-1.2132,-1.2464,-1.2742,-1.3066,-1.3212,-1.3126,-1.28,-1.2971,-1.3323,-1.362,-1.3646,-1.3613,-1.3711,-1.3814,-1.4015,-1.4058,-1.4234,-1.4241,-1.4167,-1.3966,-1.393,-1.405,-1.4059,-1.4103,-1.4198,-1.4377,-1.4497,-1.4641,-1.4856,-1.5078,-1.5158,-1.5434,-1.5568,-1.5497,-1.5709,-1.5867,-1.607,-1.6342,-1.6691,-1.6899,-1.7176,-1.7323,-1.7461,-1.7529,-1.7598,-1.7608,-1.7608,-1.7608,-1.7676,-1.7608,-1.7608,-1.7598,-1.7608,-1.7608,-1.7539,-1.7539,-1.747,-1.7194,-1.6769,-1.67,-1.67,-1.67,-1.6769,-1.6769,-1.6769,-1.676,-1.676,-1.6515,-1.6655,-1.7056,-1.7282,-1.7332,-1.7323,-1.7254,-1.7245,-1.7382,-1.7451,-1.752,-1.7598,-1.7608,-1.7539,-1.7461,-1.7442,-1.7285,-1.752,-1.7548,-1.742,-1.7351,-1.747,-1.7392,-1.7254,-1.7254,-1.7185,-1.0952,-1.1033,-1.1283,-1.1341,-1.1445,-1.1423,-1.1384,-1.1313,-1.1141,-1.101,-1.1039,-1.1135,-1.1335,-1.1632,-1.1935,-1.2077,-1.215,-1.215,-1.215,-1.2224,-1.2378,-1.2479,-1.2587,-1.2956,-1.3227,-1.3528,-1.3639,-1.3614,-1.3426,-1.34,-1.3709,-1.4056,-1.4117,-1.4275,-1.4324,-1.4179,-1.4253,-1.4204,-1.4083,-1.4073,-1.413,-1.4026,-1.4162,-1.4335,-1.4375,-1.4431,-1.4577,-1.4784,-1.4935,-1.5125,-1.5284,-1.5505,-1.5726,-1.5938,-1.607,-1.6132,-1.6132,-1.6202,-1.6473,-1.6736,-1.7042,-1.7278,-1.7477,-1.7548,-1.7791,-1.7948,-1.8017,-1.794,-1.7998,-1.7997,-1.8036,-1.7988,-1.7959,-1.7959,-1.791,-1.7813,-1.7716,-1.7745,-1.7754,-1.7676,-1.7254,-1.7254,-1.7332,-1.7332,-1.7411,-1.7411,-1.7332,-1.7323,-1.7245,-1.7001,-1.7001,-1.7411,-1.7558,-1.7608,-1.7676,-1.7608,-1.7666,-1.7725,-1.7725,-1.7716,-1.7725,-1.7803,-1.7872,-1.7794,-1.7774,-1.7638,-1.7666,-1.7695,-1.7724,-1.7705,-1.7676,-1.7608,-1.747,-1.747,-1.7539,-1.2337,-1.2068,-1.224,-1.2213,-1.2142,-1.2177,-1.212,-1.1973,-1.1919,-1.1929,-1.2003,-1.215,-1.2378,-1.2599,-1.29,-1.2966,-1.2973,-1.2973,-1.2973,-1.2973,-1.3046,-1.32,-1.328,-1.3426,-1.3682,-1.3873,-1.3911,-1.3866,-1.3823,-1.3903,-1.4152,-1.4316,-1.4345,-1.4381,-1.4588,-1.4424,-1.4439,-1.4417,-1.437,-1.4332,-1.4305,-1.4253,-1.4294,-1.4587,-1.4656,-1.488,-1.507,-1.5292,-1.5505,-1.57,-1.585,-1.6,-1.614,-1.6272,-1.6473,-1.6621,-1.6682,-1.6751,-1.6778,-1.718,-1.7493,-1.7896,-1.8142,-1.8485,-1.8579,-1.8621,-1.8701,-1.875,-1.874,-1.8711,-1.8623,-1.8496,-1.8398,-1.8261,-1.8125,-1.8008,-1.7901,-1.794,-1.7949,-1.7881,-1.7735,-1.7745,-1.7676,-1.7608,-1.7539,-1.7539,-1.747,-1.747,-1.7461,-1.7432,-1.752,-1.7773,-1.7832,-1.7813,-1.7813,-1.7813,-1.7803,-1.7862,-1.7862,-1.7862,-1.794,-1.8008,-1.8008,-1.8008,-1.793,-1.7872,-1.7823,-1.7823,-1.7901,-1.7823,-1.7803,-1.7735,-1.7745,-1.7735,-1.7803,-1.3688,-1.3347,-1.305,-1.2986,-1.301,-1.2996,-1.2879,-1.276,-1.2893,-1.2966,-1.3039,-1.3185,-1.3331,-1.3557,-1.3702,-1.3775,-1.3775,-1.3775,-1.3783,-1.3783,-1.3783,-1.3855,-1.3928,-1.408,-1.4152,-1.4281,-1.4305,-1.4328,-1.4387,-1.4425,-1.4478,-1.448,-1.4488,-1.4484,-1.4506,-1.4525,-1.4528,-1.444,-1.4553,-1.4595,-1.4622,-1.4582,-1.4689,-1.48,-1.5078,-1.5292,-1.5647,-1.5788,-1.6,-1.6132,-1.6342,-1.6421,-1.6482,-1.6691,-1.6899,-1.7075,-1.7269,-1.7381,-1.7455,-1.7755,-1.8114,-1.8529,-1.8827,-1.9015,-1.9127,-1.9277,-1.9268,-1.918,-1.9189,-1.9209,-1.9209,-1.8945,-1.8857,-1.8582,-1.8358,-1.8202,-1.8076,-1.8144,-1.8086,-1.794,-1.7872,-1.794,-1.7872,-1.7735,-1.7666,-1.7666,-1.7598,-1.7608,-1.7666,-1.7725,-1.7803,-1.7979,-1.7969,-1.7949,-1.7949,-1.7949,-1.8008,-1.8008,-1.8008,-1.8008,-1.8008,-1.8008,-1.8008,-1.8008,-1.8008,-1.794,-1.7881,-1.794,-1.8008,-1.794,-1.7872,-1.794,-1.794,-1.8008,-1.8008,-1.5078,-1.4912,-1.393,-1.3638,-1.3732,-1.3717,-1.3863,-1.3912,-1.3977,-1.3977,-1.4049,-1.4122,-1.4338,-1.4489,-1.4489,-1.4569,-1.4489,-1.4497,-1.4569,-1.4569,-1.4569,-1.4569,-1.4641,-1.4713,-1.4792,-1.4856,-1.4832,-1.4974,-1.5062,-1.5016,-1.4901,-1.4628,-1.4666,-1.479,-1.4828,-1.4766,-1.4551,-1.4545,-1.4615,-1.4905,-1.4977,-1.5048,-1.5086,-1.5426,-1.5647,-1.5867,-1.607,-1.6202,-1.6342,-1.6412,-1.6691,-1.683,-1.6908,-1.7116,-1.7332,-1.7533,-1.7802,-1.8033,-1.8295,-1.839,-1.8567,-1.886,-1.9209,-1.9473,-1.9521,-1.9375,-1.9316,-1.9434,-1.9531,-1.9463,-1.9404,-1.9268,-1.9238,-1.9111,-1.8806,-1.8592,-1.8426,-1.832,-1.8242,-1.8066,-1.8105,-1.8281,-1.832,-1.8249,-1.79,-1.7861,-1.7803,-1.7803,-1.7872,-1.7862,-1.793,-1.8018,-1.8018,-1.8008,-1.8008,-1.8008,-1.8008,-1.8008,-1.8008,-1.8008,-1.8008,-1.8008,-1.8008,-1.8008,-1.8008,-1.8008,-1.8008,-1.8008,-1.8008,-1.8008,-1.8008,-1.8008,-1.8008,-1.8008,-1.8008,-1.5895,-1.5824,-1.5392,-1.4974,-1.4625,-1.4697,-1.4705,-1.4776,-1.4919,-1.5062,-1.5125,-1.5196,-1.5259,-1.5338,-1.5338,-1.5346,-1.5346,-1.5338,-1.5338,-1.5338,-1.5346,-1.5346,-1.5338,-1.5409,-1.5488,-1.5488,-1.5471,-1.5542,-1.5551,-1.5709,-1.5539,-1.5394,-1.5154,-1.5025,-1.5065,-1.5032,-1.4929,-1.4992,-1.507,-1.53,-1.5468,-1.5664,-1.5709,-1.585,-1.6,-1.6211,-1.6412,-1.6551,-1.6691,-1.6899,-1.7107,-1.7185,-1.7254,-1.747,-1.7662,-1.7922,-1.8241,-1.861,-1.9097,-1.9286,-1.9425,-1.9895,-2.0088,-2.0039,-1.998,-2.0049,-2.0068,-2.0088,-2.0019,-1.9961,-2.0059,-1.9853,-1.9648,-1.9477,-1.9292,-1.9039,-1.8854,-1.8821,-1.8643,-1.8584,-1.8721,-1.8896,-1.8877,-1.8848,-1.8467,-1.8066,-1.8066,-1.8018,-1.7988,-1.8154,-1.8213,-1.8232,-1.8242,-1.8125,-1.8115,-1.8076,-1.8027,-1.8008,-1.8008,-1.8008,-1.8008,-1.8008,-1.8008,-1.8008,-1.8008,-1.8008,-1.8008,-1.8008,-1.8008,-1.8008,-1.8008,-1.8008,-1.8008,-1.8008,-1.8008,-1.6862,-1.6862,-1.6793,-1.6315,-1.5692,-1.5621,-1.5621,-1.5771,-1.585,-1.5982,-1.6123,-1.6123,-1.6123,-1.6123,-1.6123,-1.6123,-1.6123,-1.6123,-1.6123,-1.6123,-1.6123,-1.6114,-1.6123,-1.6123,-1.6123,-1.6114,-1.6114,-1.6123,-1.6193,-1.6386,-1.6254,-1.6008,-1.5762,-1.5655,-1.538,-1.5417,-1.5497,-1.5497,-1.5647,-1.5797,-1.6034,-1.6079,-1.6272,-1.6342,-1.6412,-1.6621,-1.683,-1.7047,-1.7116,-1.7245,-1.7382,-1.7529,-1.7598,-1.7665,-1.7985,-1.8325,-1.8643,-1.9054,-1.9642,-2.0022,-2.0168,-2.041,-2.0488,-2.0508,-2.0576,-2.0576,-2.0439,-2.0488,-2.0518,-2.0566,-2.0557,-2.0264,-2.0117,-2.0039,-1.9999,-1.9752,-1.958,-1.9515,-1.9354,-1.9213,-1.9301,-1.9199,-1.917,-1.9082,-1.8818,-1.8477,-1.8359,-1.8241,-1.8083,-1.8269,-1.8594,-1.8594,-1.8574,-1.8418,-1.8252,-1.8301,-1.8291,-1.8008,-1.8008,-1.8008,-1.8008,-1.8008,-1.8008,-1.8008,-1.8008,-1.8008,-1.8008,-1.8008,-1.8008,-1.8008,-1.8008,-1.8008,-1.8008,-1.8008,-1.8008,-1.8259,-1.8202,-1.7998,-1.7442,-1.6673,-1.6603,-1.6682,-1.676,-1.6839,-1.683,-1.6899,-1.6899,-1.6908,-1.6899,-1.683,-1.683,-1.683,-1.683,-1.683,-1.683,-1.6899,-1.6899,-1.683,-1.6899,-1.6821,-1.6839,-1.6839,-1.676,-1.683,-1.7014,-1.6866,-1.6691,-1.6464,-1.6254,-1.5833,-1.5982,-1.5974,-1.5877,-1.6123,-1.6289,-1.6438,-1.6421,-1.663,-1.676,-1.6839,-1.7047,-1.7254,-1.7392,-1.7461,-1.7529,-1.7647,-1.7716,-1.7725,-1.7862,-1.8173,-1.8601,-1.9043,-1.9443,-1.9893,-2.0303,-2.0488,-2.0547,-2.0576,-2.0576,-2.0576,-2.0576,-2.0576,-2.0576,-2.0576,-2.0576,-2.0557,-2.0537,-2.0488,-2.0468,-2.0345,-2.0292,-2.0118,-2.0058,-1.9895,-1.9772,-1.9556,-1.9326,-1.9326,-1.9268,-1.9092,-1.8867,-1.8701,-1.8482,-1.8312,-1.8479,-1.8906,-1.9108,-1.9078,-1.8809,-1.8672,-1.8643,-1.8535,-1.8213,-1.8047,-1.8096,-1.8057,-1.8008,-1.8008,-1.8008,-1.8008,-1.8008,-1.8008,-1.8008,-1.8008,-1.8008,-1.8008,-1.8008,-1.8008,-1.8008,-1.8008,-1.9142,-1.9142,-1.9065,-1.8787,-1.8297,-1.7784,-1.7588,-1.7588,-1.7666,-1.7588,-1.7588,-1.7598,-1.752,-1.7442,-1.7442,-1.7382,-1.7323,-1.7451,-1.7442,-1.7442,-1.7529,-1.7598,-1.7588,-1.7442,-1.7432,-1.7373,-1.7382,-1.7323,-1.7254,-1.743,-1.742,-1.7176,-1.7107,-1.6821,-1.6342,-1.6202,-1.6193,-1.6184,-1.6482,-1.6709,-1.6778,-1.6987,-1.7116,-1.7254,-1.7263,-1.7401,-1.7529,-1.7598,-1.7666,-1.7657,-1.7784,-1.7862,-1.7862,-1.8008,-1.834,-1.8857,-1.9297,-1.9629,-2.0117,-2.0508,-2.0557,-2.0576,-2.0576,-2.0576,-2.0576,-2.0576,-2.0576,-2.0576,-2.0576,-2.0576,-2.0566,-2.0557,-2.0537,-2.0527,-2.0535,-2.0535,-2.0399,-2.0466,-2.0426,-2.035,-2.0146,-2.0059,-2.0019,-1.9785,-1.9561,-1.9434,-1.9297,-1.9111,-1.8909,-1.901,-1.9364,-1.966,-1.9733,-1.9344,-1.9111,-1.9072,-1.8887,-1.8564,-1.8379,-1.8311,-1.8232,-1.8086,-1.8008,-1.8008,-1.8008,-1.8008,-1.8008,-1.8008,-1.8008,-1.8008,-1.8008,-1.8008,-1.8008,-1.8008,-1.8008,-2.0064,-2.0064,-1.9998,-1.9846,-1.9639,-1.8787,-1.8405,-1.8405,-1.8414,-1.8405,-1.8337,-1.8347,-1.8202,-1.8124,-1.7988,-1.792,-1.7872,-1.793,-1.7988,-1.7988,-1.8134,-1.8144,-1.8076,-1.8056,-1.7988,-1.792,-1.793,-1.7872,-1.7872,-1.7872,-1.7735,-1.7666,-1.7539,-1.7185,-1.6839,-1.6769,-1.6769,-1.683,-1.7047,-1.7116,-1.7185,-1.7323,-1.7461,-1.752,-1.7588,-1.7588,-1.7666,-1.7735,-1.7794,-1.7852,-1.793,-1.8008,-1.8008,-1.8105,-1.8457,-1.9014,-1.9668,-1.998,-2.0487,-2.0547,-2.0576,-2.0576,-2.0576,-2.0576,-2.0576,-2.0576,-2.0576,-2.0576,-2.0576,-2.0576,-2.0576,-2.0576,-2.0566,-2.0566,-2.0557,-2.0615,-2.0615,-2.0575,-2.0575,-2.0615,-2.0547,-2.0566,-2.0557,-2.0381,-2.0107,-2.0,-1.9902,-1.9697,-1.9448,-1.9664,-1.9787,-2.0014,-2.0212,-1.9856,-1.9609,-1.9512,-1.9268,-1.8916,-1.874,-1.8603,-1.835,-1.8203,-1.8105,-1.8008,-1.8008,-1.8008,-1.8008,-1.8008,-1.8008,-1.8008,-1.8008,-1.8008,-1.8008,-1.8008,-1.8008,-2.0955,-2.0892,-2.07,-2.0635,-2.0495,-1.977,-1.932,-1.9131,-1.9131,-1.9142,-1.9142,-1.8942,-1.8808,-1.8818,-1.8607,-1.8472,-1.8482,-1.8539,-1.8549,-1.8549,-1.8617,-1.8617,-1.8617,-1.8549,-1.8539,-1.8539,-1.8472,-1.8405,-1.8482,-1.8347,-1.8212,-1.8008,-1.7813,-1.7608,-1.7529,-1.7461,-1.7392,-1.7323,-1.7323,-1.7392,-1.7451,-1.7529,-1.7657,-1.7716,-1.7725,-1.7794,-1.7872,-1.794,-1.794,-1.8008,-1.8008,-1.8008,-1.8008,-1.8008,-1.8545,-1.9219,-2.0019,-2.0391,-2.0615,-2.0566,-2.0576,-2.0576,-2.0576,-2.0576,-2.0576,-2.0576,-2.0576,-2.0576,-2.0576,-2.0576,-2.0576,-2.0576,-2.0576,-2.0566,-2.0566,-2.0566,-2.0566,-2.0634,-2.0634,-2.0566,-2.0566,-2.0576,-2.0576,-2.0469,-2.0381,-2.0352,-2.0234,-2.0061,-1.9944,-2.0166,-2.0291,-2.034,-2.0436,-2.033,-2.0137,-1.9951,-1.9697,-1.9365,-1.9082,-1.8906,-1.8623,-1.833,-1.8193,-1.8096,-1.8027,-1.8008,-1.8008,-1.8008,-1.8008,-1.8008,-1.8008,-1.8008,-1.8008,-1.8008,-1.8008,-2.1975,-2.1975,-2.18,-2.1663,-2.1439,-2.0985,-2.042,-1.9846,-1.9846,-1.9846,-1.977,-1.966,-1.9462,-1.9341,-1.9142,-1.9008,-1.9008,-1.9008,-1.9085,-1.9085,-1.9142,-1.9274,-1.9208,-1.9142,-1.9075,-1.9008,-1.8931,-1.8865,-1.8674,-1.8607,-1.8539,-1.8347,-1.8144,-1.8144,-1.8076,-1.8066,-1.7803,-1.7666,-1.7666,-1.7657,-1.7725,-1.7725,-1.7862,-1.7862,-1.7862,-1.793,-1.8008,-1.8008,-1.8008,-1.8008,-1.8008,-1.8008,-1.8008,-1.8037,-1.8389,-1.9248,-2.0,-2.0566,-2.0576,-2.0576,-2.0576,-2.0576,-2.0576,-2.0576,-2.0576,-2.0576,-2.0576,-2.0576,-2.0576,-2.0576,-2.0576,-2.0576,-2.0576,-2.0576,-2.0576,-2.0576,-2.0576,-2.0576,-2.0576,-2.0576,-2.0576,-2.0576,-2.0576,-2.0557,-2.0488,-2.0547,-2.0527,-2.0352,-2.0323,-2.0498,-2.0547,-2.0566,-2.0547,-2.0439,-2.0469,-2.0332,-2.0088,-1.9824,-1.9521,-1.917,-1.8789,-1.8506,-1.8311,-1.8154,-1.8037,-1.8008,-1.8008,-1.8008,-1.8008,-1.8008,-1.8008,-1.8008,-1.8008,-1.8008,-1.8008,-2.2836,-2.2775,-2.2739,-2.2469,-2.2149,-2.1951,-2.1514,-2.0955,-2.0624,-2.0495,-2.0355,-2.0248,-2.0064,-1.9868,-1.9736,-1.9594,-1.9518,-1.9584,-1.9594,-1.966,-1.9736,-1.9726,-1.9726,-1.966,-1.9605,-1.9539,-1.9473,-1.9341,-1.9065,-1.8875,-1.8751,-1.8741,-1.8617,-1.8482,-1.8414,-1.8347,-1.8212,-1.8008,-1.7862,-1.7852,-1.7852,-1.793,-1.8008,-1.8008,-1.8008,-1.8008,-1.8008,-1.8008,-1.8008,-1.8008,-1.8008,-1.8008,-1.8125,-1.8301,-1.8603,-1.9424,-2.0068,-2.0478,-2.0576,-2.0576,-2.0576,-2.0576,-2.0576,-2.0576,-2.0576,-2.0576,-2.0576,-2.0576,-2.0576,-2.0576,-2.0576,-2.0576,-2.0576,-2.0576,-2.0576,-2.0576,-2.0576,-2.0576,-2.0576,-2.0576,-2.0576,-2.0576,-2.0576,-2.0576,-2.0576,-2.0576,-2.0576,-2.0537,-2.0498,-2.0527,-2.0557,-2.0566,-2.0576,-2.0537,-2.0576,-2.0576,-2.0381,-2.0127,-1.9893,-1.9512,-1.9043,-1.8643,-1.8398,-1.8203,-1.8018,-1.8008,-1.8008,-1.8008,-1.8008,-1.8008,-1.8008,-1.8008,-1.8008,-1.8008,-1.8008,-2.3603,-2.345,-2.3463,-2.3138,-2.2714,-2.2714,-2.2469,-2.2247,-2.16,-2.1221,-2.1031,-2.0775,-2.0582,-2.0453,-2.0313,-2.0237,-2.0172,-2.0237,-2.0237,-2.0172,-2.0248,-2.0248,-2.0237,-2.0172,-2.0118,-1.9998,-1.9933,-1.9802,-1.9605,-1.9341,-1.9208,-1.9142,-1.8875,-1.8751,-1.8684,-1.8617,-1.8549,-1.8414,-1.8202,-1.8066,-1.8066,-1.8076,-1.8008,-1.8076,-1.8076,-1.8076,-1.8076,-1.8008,-1.8008,-1.8008,-1.8008,-1.8008,-1.8232,-1.8633,-1.9033,-1.9463,-2.0019,-2.0381,-2.0537,-2.0576,-2.0576,-2.0576,-2.0576,-2.0576,-2.0576,-2.0576,-2.0576,-2.0576,-2.0576,-2.0576,-2.0576,-2.0576,-2.0576,-2.0576,-2.0576,-2.0576,-2.0576,-2.0576,-2.0576,-2.0576,-2.0576,-2.0576,-2.0576,-2.0576,-2.0576,-2.0576,-2.0576,-2.0576,-2.0576,-2.0576,-2.0576,-2.0576,-2.0576,-2.0576,-2.0576,-2.0576,-2.0576,-2.0391,-2.0176,-1.9883,-1.9434,-1.8965,-1.8416,-1.8242,-1.8008,-1.8008,-1.8008,-1.8008,-1.8008,-1.8008,-1.8008,-1.8008,-1.8008,-1.8008,-1.8008,-2.4421,-2.4234,-2.4015,-2.3734,-2.3365,-2.3378,-2.3198,-2.2896,-2.2592,-2.2161,-2.1663,-2.14,-2.1198,-2.1083,-2.0967,-2.0903,-2.0892,-2.0839,-2.0892,-2.0892,-2.0903,-2.0764,-2.0752,-2.07,-2.0646,-2.0529,-2.0464,-2.0259,-1.9987,-1.9791,-1.9605,-1.9473,-1.9274,-1.9208,-1.9075,-1.9008,-1.8875,-1.8808,-1.8617,-1.8482,-1.8405,-1.8414,-1.8347,-1.8347,-1.8337,-1.8347,-1.8269,-1.8269,-1.8202,-1.8202,-1.8076,-1.8008,-1.8037,-1.8545,-1.8936,-1.9307,-1.9785,-2.0195,-2.0439,-2.0537,-2.0576,-2.0576,-2.0576,-2.0576,-2.0576,-2.0576,-2.0576,-2.0576,-2.0576,-2.0576,-2.0576,-2.0576,-2.0576,-2.0576,-2.0576,-2.0576,-2.0576,-2.0576,-2.0576,-2.0576,-2.0576,-2.0576,-2.0576,-2.0576,-2.0576,-2.0576,-2.0576,-2.0576,-2.0576,-2.0576,-2.0576,-2.0576,-2.0576,-2.0576,-2.0576,-2.0576,-2.0576,-2.0576,-2.041,-2.0117,-1.9775,-1.9141,-1.8506,-1.8213,-1.8008,-1.8008,-1.8008,-1.8008,-1.8008,-1.8008,-1.8008,-1.8008,-1.8008,-1.8008,-1.8008,-2.475,-2.4625,-2.4587,-2.4363,-2.4015,-2.4015,-2.3793,-2.3437,-2.3271,-2.2969,-2.2543,-2.2099,-2.1776,-2.1651,-2.1549,-2.1498,-2.1423,-2.1434,-2.1371,-2.1423,-2.1423,-2.136,-2.1296,-2.1233,-2.1158,-2.1042,-2.085,-2.0646,-2.0431,-2.0183,-1.9998,-1.9944,-1.9868,-1.9671,-1.9539,-1.9407,-1.9274,-1.9142,-1.9008,-1.8942,-1.8875,-1.8751,-1.8482,-1.8405,-1.8472,-1.8482,-1.8492,-1.8424,-1.8414,-1.8337,-1.8212,-1.8134,-1.8232,-1.8507,-1.873,-1.9092,-1.9531,-2.0019,-2.0244,-2.043,-2.0537,-2.0557,-2.0576,-2.0576,-2.0576,-2.0576,-2.0576,-2.0576,-2.0576,-2.0576,-2.0576,-2.0576,-2.0576,-2.0576,-2.0576,-2.0576,-2.0576,-2.0576,-2.0576,-2.0576,-2.0576,-2.0576,-2.0576,-2.0576,-2.0576,-2.0576,-2.0576,-2.0576,-2.0576,-2.0576,-2.0576,-2.0576,-2.0576,-2.0576,-2.0576,-2.0576,-2.0576,-2.0576,-2.0576,-2.0117,-1.9648,-1.9053,-1.8525,-1.8203,-1.8008,-1.8008,-1.8008,-1.8008,-1.8008,-1.8008,-1.8008,-1.8008,-1.8008,-1.8008,-1.8008,-2.4773,-2.4727,-2.4929,-2.4857,-2.453,-2.4517,-2.4297,-2.4041,-2.3806,-2.3628,-2.339,-2.2848,-2.242,-2.2111,-2.1999,-2.1937,-2.1886,-2.1937,-2.1886,-2.1886,-2.1874,-2.1812,-2.1761,-2.1761,-2.1561,-2.136,-2.1158,-2.1019,-2.088,-2.07,-2.0518,-2.0399,-2.0205,-1.9998,-1.9933,-1.9802,-1.9671,-1.9671,-1.9605,-1.9605,-1.9407,-1.9008,-1.8731,-1.8586,-1.8596,-1.8694,-1.8704,-1.8704,-1.8617,-1.8482,-1.8405,-1.8337,-1.8261,-1.8429,-1.8506,-1.8838,-1.9209,-1.9648,-1.9971,-2.0244,-2.041,-2.0615,-2.0557,-2.0576,-2.0576,-2.0576,-2.0576,-2.0576,-2.0576,-2.0576,-2.0576,-2.0576,-2.0576,-2.0576,-2.0576,-2.0576,-2.0576,-2.0576,-2.0576,-2.0576,-2.0576,-2.0576,-2.0576,-2.0576,-2.0576,-2.0576,-2.0576,-2.0576,-2.0576,-2.0576,-2.0576,-2.0576,-2.0576,-2.0576,-2.0576,-2.0576,-2.0576,-2.0576,-2.0498,-2.0019,-1.9521,-1.8984,-1.8516,-1.8154,-1.8008,-1.8008,-1.8008,-1.8008,-1.8008,-1.8008,-1.8008,-1.8008,-1.8008,-1.8008,-1.8008,-2.4697,-2.4467,-2.4427,-2.4424,-2.4518,-2.4504,-2.4557,-2.4624,-2.4394,-2.4189,-2.3923,-2.37,-2.3271,-2.2714,-2.2604,-2.2494,-2.2383,-2.2371,-2.2506,-2.2506,-2.2371,-2.2247,-2.2197,-2.2073,-2.1874,-2.1749,-2.1549,-2.1388,-2.1325,-2.1198,-2.1008,-2.0752,-2.0775,-2.0646,-2.054,-2.0335,-2.0205,-2.0205,-2.0129,-2.0053,-1.9922,-1.9584,-1.9288,-1.9222,-1.9222,-1.933,-1.9351,-1.9142,-1.8998,-1.8865,-1.8674,-1.8482,-1.8387,-1.8398,-1.8439,-1.8605,-1.8916,-1.9268,-1.9609,-1.9961,-2.0176,-2.0459,-2.0498,-2.0576,-2.0576,-2.0576,-2.0576,-2.0576,-2.0576,-2.0576,-2.0576,-2.0576,-2.0576,-2.0576,-2.0576,-2.0576,-2.0576,-2.0576,-2.0576,-2.0576,-2.0576,-2.0576,-2.0576,-2.0576,-2.0576,-2.0576,-2.0576,-2.0576,-2.0576,-2.0576,-2.0576,-2.0576,-2.0576,-2.0576,-2.0576,-2.0576,-2.0576,-2.0576,-2.043,-1.9971,-1.9492,-1.8975,-1.8535,-1.8135,-1.8008,-1.8008,-1.8008,-1.8008,-1.8008,-1.8008,-1.8008,-1.8008,-1.8008,-1.8008,-1.8008]}]]